<?xml version="1.0" encoding="utf-8"?>
<gpx xmlns:xsi="http://www.w3.org/2001/XMLSchema-instance" xmlns:xsd="http://www.w3.org/2001/XMLSchema" version="1.1" creator="Shapelink.com" xmlns="http://www.topografix.com/GPX/1/1" xmlns:gpxtpx="http://www.garmin.com/xmlschemas/TrackPointExtension/v1">
  <metadata>
    <name>Løping 4.91 km, 2012-09-20</name>
    <desc></desc>
    <author><name>Mikael Blom</name></author> 
    <time>2012-09-20T17:44:15Z</time>
  </metadata>
  <trk>
    <name>Løping 4.91 km, 2012-09-20</name>
    <trkseg>
      <trkpt lat="59.9553807" lon="17.7150472">
        <ele>37.1481</ele>
        <time>2012-09-20T17:44:15Z</time>
      </trkpt>
      <trkpt lat="59.9553734" lon="17.7150177">
        <ele>37.1481</ele>
        <time>2012-09-20T17:44:16Z</time>
      </trkpt>
      <trkpt lat="59.9553645" lon="17.7149752">
        <ele>37.6287</ele>
        <time>2012-09-20T17:44:17Z</time>
      </trkpt>
      <trkpt lat="59.9553573" lon="17.7149289">
        <ele>38.1094</ele>
        <time>2012-09-20T17:44:18Z</time>
      </trkpt>
      <trkpt lat="59.9553452" lon="17.7148793">
        <ele>38.1094</ele>
        <time>2012-09-20T17:44:19Z</time>
      </trkpt>
      <trkpt lat="59.9553329" lon="17.7148241">
        <ele>37.6287</ele>
        <time>2012-09-20T17:44:20Z</time>
      </trkpt>
      <trkpt lat="59.9553167" lon="17.7147668">
        <ele>37.6287</ele>
        <time>2012-09-20T17:44:21Z</time>
      </trkpt>
      <trkpt lat="59.9553004" lon="17.7147146">
        <ele>37.6287</ele>
        <time>2012-09-20T17:44:22Z</time>
      </trkpt>
      <trkpt lat="59.9552882" lon="17.7146582">
        <ele>38.1094</ele>
        <time>2012-09-20T17:44:23Z</time>
      </trkpt>
      <trkpt lat="59.9552773" lon="17.7146018">
        <ele>38.1094</ele>
        <time>2012-09-20T17:44:24Z</time>
      </trkpt>
      <trkpt lat="59.9552646" lon="17.7145504">
        <ele>38.1094</ele>
        <time>2012-09-20T17:44:25Z</time>
      </trkpt>
      <trkpt lat="59.9552552" lon="17.714499">
        <ele>38.5901</ele>
        <time>2012-09-20T17:44:26Z</time>
      </trkpt>
      <trkpt lat="59.9552486" lon="17.7144513">
        <ele>38.5901</ele>
        <time>2012-09-20T17:44:27Z</time>
      </trkpt>
      <trkpt lat="59.9552431" lon="17.7143979">
        <ele>38.5901</ele>
        <time>2012-09-20T17:44:28Z</time>
      </trkpt>
      <trkpt lat="59.9552388" lon="17.7143459">
        <ele>38.5901</ele>
        <time>2012-09-20T17:44:29Z</time>
      </trkpt>
      <trkpt lat="59.9552351" lon="17.7143032">
        <ele>38.5901</ele>
        <time>2012-09-20T17:44:30Z</time>
      </trkpt>
      <trkpt lat="59.9552289" lon="17.7142598">
        <ele>38.5901</ele>
        <time>2012-09-20T17:44:31Z</time>
      </trkpt>
      <trkpt lat="59.955218" lon="17.7142091">
        <ele>38.5901</ele>
        <time>2012-09-20T17:44:32Z</time>
      </trkpt>
      <trkpt lat="59.9552046" lon="17.7141675">
        <ele>38.1094</ele>
        <time>2012-09-20T17:44:33Z</time>
      </trkpt>
      <trkpt lat="59.9551895" lon="17.7141328">
        <ele>38.1094</ele>
        <time>2012-09-20T17:44:34Z</time>
      </trkpt>
      <trkpt lat="59.9551709" lon="17.7141027">
        <ele>38.1094</ele>
        <time>2012-09-20T17:44:35Z</time>
      </trkpt>
      <trkpt lat="59.9551542" lon="17.7140934">
        <ele>38.1094</ele>
        <time>2012-09-20T17:44:36Z</time>
      </trkpt>
      <trkpt lat="59.9551417" lon="17.7141077">
        <ele>38.1094</ele>
        <time>2012-09-20T17:44:37Z</time>
      </trkpt>
      <trkpt lat="59.9551276" lon="17.7141341">
        <ele>38.1094</ele>
        <time>2012-09-20T17:44:38Z</time>
      </trkpt>
      <trkpt lat="59.955118" lon="17.7141743">
        <ele>38.1094</ele>
        <time>2012-09-20T17:44:39Z</time>
      </trkpt>
      <trkpt lat="59.9551095" lon="17.7142189">
        <ele>37.6287</ele>
        <time>2012-09-20T17:44:40Z</time>
      </trkpt>
      <trkpt lat="59.9550904" lon="17.7142613">
        <ele>37.1481</ele>
        <time>2012-09-20T17:44:41Z</time>
      </trkpt>
      <trkpt lat="59.9550678" lon="17.7142872">
        <ele>36.1868</ele>
        <time>2012-09-20T17:44:42Z</time>
      </trkpt>
      <trkpt lat="59.9550458" lon="17.7143173">
        <ele>35.7061</ele>
        <time>2012-09-20T17:44:43Z</time>
      </trkpt>
      <trkpt lat="59.9550254" lon="17.7143456">
        <ele>35.2255</ele>
        <time>2012-09-20T17:44:44Z</time>
      </trkpt>
      <trkpt lat="59.9550022" lon="17.7143645">
        <ele>35.2255</ele>
        <time>2012-09-20T17:44:45Z</time>
      </trkpt>
      <trkpt lat="59.9549826" lon="17.7144003">
        <ele>35.7061</ele>
        <time>2012-09-20T17:44:46Z</time>
      </trkpt>
      <trkpt lat="59.9549652" lon="17.7144489">
        <ele>36.1868</ele>
        <time>2012-09-20T17:44:47Z</time>
      </trkpt>
      <trkpt lat="59.9549453" lon="17.7145026">
        <ele>36.1868</ele>
        <time>2012-09-20T17:44:48Z</time>
      </trkpt>
      <trkpt lat="59.9549282" lon="17.7145504">
        <ele>36.1868</ele>
        <time>2012-09-20T17:44:49Z</time>
      </trkpt>
      <trkpt lat="59.9549129" lon="17.714592">
        <ele>36.1868</ele>
        <time>2012-09-20T17:44:50Z</time>
      </trkpt>
      <trkpt lat="59.9548957" lon="17.7146297">
        <ele>36.1868</ele>
        <time>2012-09-20T17:44:51Z</time>
      </trkpt>
      <trkpt lat="59.9548751" lon="17.7146587">
        <ele>36.1868</ele>
        <time>2012-09-20T17:44:52Z</time>
      </trkpt>
      <trkpt lat="59.9548533" lon="17.7146875">
        <ele>36.6675</ele>
        <time>2012-09-20T17:44:53Z</time>
      </trkpt>
      <trkpt lat="59.9548284" lon="17.7147193">
        <ele>36.6675</ele>
        <time>2012-09-20T17:44:54Z</time>
      </trkpt>
      <trkpt lat="59.954802" lon="17.7147403">
        <ele>36.1868</ele>
        <time>2012-09-20T17:44:55Z</time>
      </trkpt>
      <trkpt lat="59.9547757" lon="17.7147612">
        <ele>35.7061</ele>
        <time>2012-09-20T17:44:56Z</time>
      </trkpt>
      <trkpt lat="59.9547445" lon="17.7147851">
        <ele>35.2255</ele>
        <time>2012-09-20T17:44:57Z</time>
      </trkpt>
      <trkpt lat="59.9547065" lon="17.7147768">
        <ele>35.2255</ele>
        <time>2012-09-20T17:44:58Z</time>
      </trkpt>
      <trkpt lat="59.9546751" lon="17.7147825">
        <ele>35.2255</ele>
        <time>2012-09-20T17:44:59Z</time>
      </trkpt>
      <trkpt lat="59.9546485" lon="17.714803">
        <ele>35.2255</ele>
        <time>2012-09-20T17:45:00Z</time>
      </trkpt>
      <trkpt lat="59.9546228" lon="17.7148089">
        <ele>35.2255</ele>
        <time>2012-09-20T17:45:01Z</time>
      </trkpt>
      <trkpt lat="59.9545988" lon="17.7148106">
        <ele>35.2255</ele>
        <time>2012-09-20T17:45:02Z</time>
      </trkpt>
      <trkpt lat="59.9545756" lon="17.7148197">
        <ele>35.2255</ele>
        <time>2012-09-20T17:45:03Z</time>
      </trkpt>
      <trkpt lat="59.9545553" lon="17.7148269">
        <ele>35.2255</ele>
        <time>2012-09-20T17:45:04Z</time>
      </trkpt>
      <trkpt lat="59.9545355" lon="17.7148281">
        <ele>35.7061</ele>
        <time>2012-09-20T17:45:05Z</time>
      </trkpt>
      <trkpt lat="59.954514" lon="17.7148358">
        <ele>35.7061</ele>
        <time>2012-09-20T17:45:06Z</time>
      </trkpt>
      <trkpt lat="59.9544874" lon="17.7148343">
        <ele>35.7061</ele>
        <time>2012-09-20T17:45:07Z</time>
      </trkpt>
      <trkpt lat="59.9544606" lon="17.7148266">
        <ele>35.7061</ele>
        <time>2012-09-20T17:45:08Z</time>
      </trkpt>
      <trkpt lat="59.9544343" lon="17.7148096">
        <ele>36.1868</ele>
        <time>2012-09-20T17:45:09Z</time>
      </trkpt>
      <trkpt lat="59.9544104" lon="17.7147987">
        <ele>36.1868</ele>
        <time>2012-09-20T17:45:10Z</time>
      </trkpt>
      <trkpt lat="59.9543819" lon="17.714797">
        <ele>36.6675</ele>
        <time>2012-09-20T17:45:11Z</time>
      </trkpt>
      <trkpt lat="59.9543633" lon="17.7148044">
        <ele>37.1481</ele>
        <time>2012-09-20T17:45:12Z</time>
      </trkpt>
      <trkpt lat="59.9543442" lon="17.7148224">
        <ele>37.1481</ele>
        <time>2012-09-20T17:45:13Z</time>
      </trkpt>
      <trkpt lat="59.9543239" lon="17.7148393">
        <ele>37.6287</ele>
        <time>2012-09-20T17:45:14Z</time>
      </trkpt>
      <trkpt lat="59.9542949" lon="17.7148623">
        <ele>37.6287</ele>
        <time>2012-09-20T17:45:15Z</time>
      </trkpt>
      <trkpt lat="59.9542669" lon="17.7148787">
        <ele>37.6287</ele>
        <time>2012-09-20T17:45:16Z</time>
      </trkpt>
      <trkpt lat="59.9542418" lon="17.714872">
        <ele>38.1094</ele>
        <time>2012-09-20T17:45:17Z</time>
      </trkpt>
      <trkpt lat="59.9542154" lon="17.7148787">
        <ele>38.1094</ele>
        <time>2012-09-20T17:45:18Z</time>
      </trkpt>
      <trkpt lat="59.9541854" lon="17.7149022">
        <ele>37.6287</ele>
        <time>2012-09-20T17:45:19Z</time>
      </trkpt>
      <trkpt lat="59.9541617" lon="17.714911">
        <ele>38.1094</ele>
        <time>2012-09-20T17:45:20Z</time>
      </trkpt>
      <trkpt lat="59.9541483" lon="17.7149001">
        <ele>38.5901</ele>
        <time>2012-09-20T17:45:21Z</time>
      </trkpt>
      <trkpt lat="59.9541377" lon="17.714882">
        <ele>38.5901</ele>
        <time>2012-09-20T17:45:22Z</time>
      </trkpt>
      <trkpt lat="59.9541203" lon="17.7148807">
        <ele>39.5513</ele>
        <time>2012-09-20T17:45:23Z</time>
      </trkpt>
      <trkpt lat="59.954097" lon="17.7149037">
        <ele>39.5513</ele>
        <time>2012-09-20T17:45:24Z</time>
      </trkpt>
      <trkpt lat="59.9540698" lon="17.7149364">
        <ele>39.5513</ele>
        <time>2012-09-20T17:45:25Z</time>
      </trkpt>
      <trkpt lat="59.9540354" lon="17.7149649">
        <ele>40.0321</ele>
        <time>2012-09-20T17:45:26Z</time>
      </trkpt>
      <trkpt lat="59.9540079" lon="17.7149789">
        <ele>40.0321</ele>
        <time>2012-09-20T17:45:27Z</time>
      </trkpt>
      <trkpt lat="59.9539833" lon="17.7149807">
        <ele>40.9934</ele>
        <time>2012-09-20T17:45:28Z</time>
      </trkpt>
      <trkpt lat="59.9539592" lon="17.714968">
        <ele>42.4354</ele>
        <time>2012-09-20T17:45:29Z</time>
      </trkpt>
      <trkpt lat="59.9539393" lon="17.7149556">
        <ele>42.4354</ele>
        <time>2012-09-20T17:45:30Z</time>
      </trkpt>
      <trkpt lat="59.9539222" lon="17.7149554">
        <ele>42.4354</ele>
        <time>2012-09-20T17:45:31Z</time>
      </trkpt>
      <trkpt lat="59.9538969" lon="17.7149623">
        <ele>42.916</ele>
        <time>2012-09-20T17:45:32Z</time>
      </trkpt>
      <trkpt lat="59.953868" lon="17.7149693">
        <ele>42.4354</ele>
        <time>2012-09-20T17:45:33Z</time>
      </trkpt>
      <trkpt lat="59.9538437" lon="17.7149825">
        <ele>41.9547</ele>
        <time>2012-09-20T17:45:34Z</time>
      </trkpt>
      <trkpt lat="59.9538146" lon="17.7149975">
        <ele>41.9547</ele>
        <time>2012-09-20T17:45:35Z</time>
      </trkpt>
      <trkpt lat="59.9537862" lon="17.7149996">
        <ele>41.9547</ele>
        <time>2012-09-20T17:45:36Z</time>
      </trkpt>
      <trkpt lat="59.9537639" lon="17.715004">
        <ele>41.474</ele>
        <time>2012-09-20T17:45:37Z</time>
      </trkpt>
      <trkpt lat="59.9537409" lon="17.71501">
        <ele>41.9547</ele>
        <time>2012-09-20T17:45:38Z</time>
      </trkpt>
      <trkpt lat="59.9537147" lon="17.715024">
        <ele>41.474</ele>
        <time>2012-09-20T17:45:39Z</time>
      </trkpt>
      <trkpt lat="59.9536898" lon="17.7150482">
        <ele>41.9547</ele>
        <time>2012-09-20T17:45:40Z</time>
      </trkpt>
      <trkpt lat="59.9536643" lon="17.7150695">
        <ele>41.474</ele>
        <time>2012-09-20T17:45:41Z</time>
      </trkpt>
      <trkpt lat="59.9536412" lon="17.7150731">
        <ele>40.9934</ele>
        <time>2012-09-20T17:45:42Z</time>
      </trkpt>
      <trkpt lat="59.9536224" lon="17.7150787">
        <ele>41.474</ele>
        <time>2012-09-20T17:45:43Z</time>
      </trkpt>
      <trkpt lat="59.9536069" lon="17.7150933">
        <ele>41.474</ele>
        <time>2012-09-20T17:45:44Z</time>
      </trkpt>
      <trkpt lat="59.9535883" lon="17.7151082">
        <ele>42.4354</ele>
        <time>2012-09-20T17:45:45Z</time>
      </trkpt>
      <trkpt lat="59.9535646" lon="17.7151242">
        <ele>43.3966</ele>
        <time>2012-09-20T17:45:46Z</time>
      </trkpt>
      <trkpt lat="59.9535443" lon="17.7151426">
        <ele>43.3966</ele>
        <time>2012-09-20T17:45:47Z</time>
      </trkpt>
      <trkpt lat="59.9535223" lon="17.7151487">
        <ele>44.358</ele>
        <time>2012-09-20T17:45:48Z</time>
      </trkpt>
      <trkpt lat="59.9534992" lon="17.7151569">
        <ele>44.358</ele>
        <time>2012-09-20T17:45:49Z</time>
      </trkpt>
      <trkpt lat="59.9534803" lon="17.7151714">
        <ele>44.358</ele>
        <time>2012-09-20T17:45:50Z</time>
      </trkpt>
      <trkpt lat="59.953466" lon="17.7152078">
        <ele>44.358</ele>
        <time>2012-09-20T17:45:51Z</time>
      </trkpt>
      <trkpt lat="59.9534531" lon="17.7152561">
        <ele>44.8386</ele>
        <time>2012-09-20T17:45:52Z</time>
      </trkpt>
      <trkpt lat="59.9534404" lon="17.715304">
        <ele>45.7999</ele>
        <time>2012-09-20T17:45:53Z</time>
      </trkpt>
      <trkpt lat="59.9534232" lon="17.7153476">
        <ele>46.7612</ele>
        <time>2012-09-20T17:45:54Z</time>
      </trkpt>
      <trkpt lat="59.9534028" lon="17.7153918">
        <ele>47.7225</ele>
        <time>2012-09-20T17:45:55Z</time>
      </trkpt>
      <trkpt lat="59.9533771" lon="17.7154181">
        <ele>47.7225</ele>
        <time>2012-09-20T17:45:56Z</time>
      </trkpt>
      <trkpt lat="59.9533521" lon="17.7154404">
        <ele>47.7225</ele>
        <time>2012-09-20T17:45:57Z</time>
      </trkpt>
      <trkpt lat="59.9533282" lon="17.7154668">
        <ele>48.684</ele>
        <time>2012-09-20T17:45:58Z</time>
      </trkpt>
      <trkpt lat="59.9533075" lon="17.7154957">
        <ele>49.6453</ele>
        <time>2012-09-20T17:45:59Z</time>
      </trkpt>
      <trkpt lat="59.9532899" lon="17.7155221">
        <ele>49.1646</ele>
        <time>2012-09-20T17:46:00Z</time>
      </trkpt>
      <trkpt lat="59.9532707" lon="17.7155461">
        <ele>49.1646</ele>
        <time>2012-09-20T17:46:01Z</time>
      </trkpt>
      <trkpt lat="59.9532462" lon="17.715572">
        <ele>48.684</ele>
        <time>2012-09-20T17:46:02Z</time>
      </trkpt>
      <trkpt lat="59.9532232" lon="17.7155946">
        <ele>49.6453</ele>
        <time>2012-09-20T17:46:03Z</time>
      </trkpt>
      <trkpt lat="59.953203" lon="17.7156228">
        <ele>49.6453</ele>
        <time>2012-09-20T17:46:04Z</time>
      </trkpt>
      <trkpt lat="59.953175" lon="17.7156668">
        <ele>49.1646</ele>
        <time>2012-09-20T17:46:05Z</time>
      </trkpt>
      <trkpt lat="59.9531537" lon="17.7157018">
        <ele>49.1646</ele>
        <time>2012-09-20T17:46:06Z</time>
      </trkpt>
      <trkpt lat="59.9531247" lon="17.7157375">
        <ele>48.684</ele>
        <time>2012-09-20T17:46:07Z</time>
      </trkpt>
      <trkpt lat="59.9531029" lon="17.7157502">
        <ele>48.684</ele>
        <time>2012-09-20T17:46:08Z</time>
      </trkpt>
      <trkpt lat="59.9530843" lon="17.7157733">
        <ele>48.2034</ele>
        <time>2012-09-20T17:46:09Z</time>
      </trkpt>
      <trkpt lat="59.9530678" lon="17.7158069">
        <ele>47.7225</ele>
        <time>2012-09-20T17:46:10Z</time>
      </trkpt>
      <trkpt lat="59.9530521" lon="17.7158424">
        <ele>47.7225</ele>
        <time>2012-09-20T17:46:11Z</time>
      </trkpt>
      <trkpt lat="59.9530331" lon="17.7158836">
        <ele>47.2418</ele>
        <time>2012-09-20T17:46:12Z</time>
      </trkpt>
      <trkpt lat="59.9530253" lon="17.7159159">
        <ele>47.2418</ele>
        <time>2012-09-20T17:46:13Z</time>
      </trkpt>
      <trkpt lat="59.9530175" lon="17.7159475">
        <ele>48.2034</ele>
        <time>2012-09-20T17:46:14Z</time>
      </trkpt>
      <trkpt lat="59.95301" lon="17.715987">
        <ele>48.2034</ele>
        <time>2012-09-20T17:46:15Z</time>
      </trkpt>
      <trkpt lat="59.9530061" lon="17.7160309">
        <ele>47.7225</ele>
        <time>2012-09-20T17:46:16Z</time>
      </trkpt>
      <trkpt lat="59.9530028" lon="17.7160712">
        <ele>47.7225</ele>
        <time>2012-09-20T17:46:17Z</time>
      </trkpt>
      <trkpt lat="59.9529947" lon="17.7161173">
        <ele>46.2806</ele>
        <time>2012-09-20T17:46:18Z</time>
      </trkpt>
      <trkpt lat="59.952991" lon="17.7161555">
        <ele>45.7999</ele>
        <time>2012-09-20T17:46:19Z</time>
      </trkpt>
      <trkpt lat="59.9529821" lon="17.7161893">
        <ele>45.3192</ele>
        <time>2012-09-20T17:46:20Z</time>
      </trkpt>
      <trkpt lat="59.9529691" lon="17.7162147">
        <ele>44.8386</ele>
        <time>2012-09-20T17:46:21Z</time>
      </trkpt>
      <trkpt lat="59.9529601" lon="17.716245">
        <ele>44.358</ele>
        <time>2012-09-20T17:46:22Z</time>
      </trkpt>
      <trkpt lat="59.9529481" lon="17.7162899">
        <ele>43.8773</ele>
        <time>2012-09-20T17:46:23Z</time>
      </trkpt>
      <trkpt lat="59.9529372" lon="17.7163343">
        <ele>42.916</ele>
        <time>2012-09-20T17:46:24Z</time>
      </trkpt>
      <trkpt lat="59.9529334" lon="17.7163788">
        <ele>42.916</ele>
        <time>2012-09-20T17:46:25Z</time>
      </trkpt>
      <trkpt lat="59.9529279" lon="17.7164322">
        <ele>42.916</ele>
        <time>2012-09-20T17:46:26Z</time>
      </trkpt>
      <trkpt lat="59.9529221" lon="17.7164821">
        <ele>42.4354</ele>
        <time>2012-09-20T17:46:27Z</time>
      </trkpt>
      <trkpt lat="59.9529194" lon="17.7165361">
        <ele>41.9547</ele>
        <time>2012-09-20T17:46:28Z</time>
      </trkpt>
      <trkpt lat="59.9529226" lon="17.7165861">
        <ele>41.474</ele>
        <time>2012-09-20T17:46:29Z</time>
      </trkpt>
      <trkpt lat="59.9529308" lon="17.7166329">
        <ele>41.474</ele>
        <time>2012-09-20T17:46:30Z</time>
      </trkpt>
      <trkpt lat="59.9529344" lon="17.7166876">
        <ele>41.474</ele>
        <time>2012-09-20T17:46:31Z</time>
      </trkpt>
      <trkpt lat="59.9529325" lon="17.71674">
        <ele>41.474</ele>
        <time>2012-09-20T17:46:32Z</time>
      </trkpt>
      <trkpt lat="59.9529299" lon="17.7167876">
        <ele>40.9934</ele>
        <time>2012-09-20T17:46:33Z</time>
      </trkpt>
      <trkpt lat="59.9529295" lon="17.7168318">
        <ele>40.9934</ele>
        <time>2012-09-20T17:46:34Z</time>
      </trkpt>
      <trkpt lat="59.9529271" lon="17.7168754">
        <ele>40.0321</ele>
        <time>2012-09-20T17:46:35Z</time>
      </trkpt>
      <trkpt lat="59.9529215" lon="17.7169144">
        <ele>40.5128</ele>
        <time>2012-09-20T17:46:36Z</time>
      </trkpt>
      <trkpt lat="59.9529168" lon="17.7169597">
        <ele>40.5128</ele>
        <time>2012-09-20T17:46:37Z</time>
      </trkpt>
      <trkpt lat="59.952917" lon="17.7170069">
        <ele>40.9934</ele>
        <time>2012-09-20T17:46:38Z</time>
      </trkpt>
      <trkpt lat="59.9529139" lon="17.7170517">
        <ele>40.9934</ele>
        <time>2012-09-20T17:46:39Z</time>
      </trkpt>
      <trkpt lat="59.9529081" lon="17.7170922">
        <ele>40.5128</ele>
        <time>2012-09-20T17:46:40Z</time>
      </trkpt>
      <trkpt lat="59.9528981" lon="17.7171399">
        <ele>40.5128</ele>
        <time>2012-09-20T17:46:41Z</time>
      </trkpt>
      <trkpt lat="59.9528872" lon="17.717185">
        <ele>40.5128</ele>
        <time>2012-09-20T17:46:42Z</time>
      </trkpt>
      <trkpt lat="59.9528764" lon="17.7172269">
        <ele>40.0321</ele>
        <time>2012-09-20T17:46:43Z</time>
      </trkpt>
      <trkpt lat="59.9528603" lon="17.7172792">
        <ele>40.0321</ele>
        <time>2012-09-20T17:46:44Z</time>
      </trkpt>
      <trkpt lat="59.9528454" lon="17.7173237">
        <ele>39.5513</ele>
        <time>2012-09-20T17:46:45Z</time>
      </trkpt>
      <trkpt lat="59.9528354" lon="17.7173579">
        <ele>39.0707</ele>
        <time>2012-09-20T17:46:46Z</time>
      </trkpt>
      <trkpt lat="59.9528264" lon="17.7173979">
        <ele>39.0707</ele>
        <time>2012-09-20T17:46:47Z</time>
      </trkpt>
      <trkpt lat="59.9528132" lon="17.7174395">
        <ele>38.5901</ele>
        <time>2012-09-20T17:46:48Z</time>
      </trkpt>
      <trkpt lat="59.9527978" lon="17.7174775">
        <ele>39.0707</ele>
        <time>2012-09-20T17:46:49Z</time>
      </trkpt>
      <trkpt lat="59.9527847" lon="17.7175101">
        <ele>39.0707</ele>
        <time>2012-09-20T17:46:50Z</time>
      </trkpt>
      <trkpt lat="59.9527719" lon="17.7175472">
        <ele>39.0707</ele>
        <time>2012-09-20T17:46:51Z</time>
      </trkpt>
      <trkpt lat="59.9527518" lon="17.7175809">
        <ele>38.5901</ele>
        <time>2012-09-20T17:46:52Z</time>
      </trkpt>
      <trkpt lat="59.9527289" lon="17.7176215">
        <ele>38.1094</ele>
        <time>2012-09-20T17:46:53Z</time>
      </trkpt>
      <trkpt lat="59.9527129" lon="17.7176622">
        <ele>38.1094</ele>
        <time>2012-09-20T17:46:54Z</time>
      </trkpt>
      <trkpt lat="59.9526998" lon="17.7176911">
        <ele>37.6287</ele>
        <time>2012-09-20T17:46:55Z</time>
      </trkpt>
      <trkpt lat="59.9526901" lon="17.7177231">
        <ele>38.5901</ele>
        <time>2012-09-20T17:46:56Z</time>
      </trkpt>
      <trkpt lat="59.9526745" lon="17.7177584">
        <ele>38.1094</ele>
        <time>2012-09-20T17:46:57Z</time>
      </trkpt>
      <trkpt lat="59.9526611" lon="17.7177925">
        <ele>38.1094</ele>
        <time>2012-09-20T17:46:58Z</time>
      </trkpt>
      <trkpt lat="59.9526469" lon="17.7178332">
        <ele>37.6287</ele>
        <time>2012-09-20T17:46:59Z</time>
      </trkpt>
      <trkpt lat="59.9526378" lon="17.7178682">
        <ele>37.1481</ele>
        <time>2012-09-20T17:47:00Z</time>
      </trkpt>
      <trkpt lat="59.9526301" lon="17.7179272">
        <ele>39.0707</ele>
        <time>2012-09-20T17:47:01Z</time>
      </trkpt>
      <trkpt lat="59.9526151" lon="17.7179709">
        <ele>39.0707</ele>
        <time>2012-09-20T17:47:02Z</time>
      </trkpt>
      <trkpt lat="59.9525994" lon="17.7180196">
        <ele>38.5901</ele>
        <time>2012-09-20T17:47:03Z</time>
      </trkpt>
      <trkpt lat="59.9525901" lon="17.7180626">
        <ele>38.5901</ele>
        <time>2012-09-20T17:47:04Z</time>
      </trkpt>
      <trkpt lat="59.9525808" lon="17.7181085">
        <ele>38.1094</ele>
        <time>2012-09-20T17:47:05Z</time>
      </trkpt>
      <trkpt lat="59.9525705" lon="17.7181527">
        <ele>37.6287</ele>
        <time>2012-09-20T17:47:06Z</time>
      </trkpt>
      <trkpt lat="59.9525548" lon="17.7182262">
        <ele>39.5513</ele>
        <time>2012-09-20T17:47:07Z</time>
      </trkpt>
      <trkpt lat="59.9525405" lon="17.7182688">
        <ele>39.0707</ele>
        <time>2012-09-20T17:47:08Z</time>
      </trkpt>
      <trkpt lat="59.9525317" lon="17.718322">
        <ele>39.5513</ele>
        <time>2012-09-20T17:47:09Z</time>
      </trkpt>
      <trkpt lat="59.952526" lon="17.7183832">
        <ele>40.5128</ele>
        <time>2012-09-20T17:47:10Z</time>
      </trkpt>
      <trkpt lat="59.952522" lon="17.7184396">
        <ele>40.5128</ele>
        <time>2012-09-20T17:47:11Z</time>
      </trkpt>
      <trkpt lat="59.9525143" lon="17.7184872">
        <ele>40.5128</ele>
        <time>2012-09-20T17:47:12Z</time>
      </trkpt>
      <trkpt lat="59.9525023" lon="17.7185328">
        <ele>40.5128</ele>
        <time>2012-09-20T17:47:13Z</time>
      </trkpt>
      <trkpt lat="59.952494" lon="17.7185848">
        <ele>40.9934</ele>
        <time>2012-09-20T17:47:14Z</time>
      </trkpt>
      <trkpt lat="59.9524842" lon="17.7186277">
        <ele>41.474</ele>
        <time>2012-09-20T17:47:15Z</time>
      </trkpt>
      <trkpt lat="59.9524658" lon="17.7186736">
        <ele>41.9547</ele>
        <time>2012-09-20T17:47:16Z</time>
      </trkpt>
      <trkpt lat="59.9524545" lon="17.7187225">
        <ele>41.474</ele>
        <time>2012-09-20T17:47:17Z</time>
      </trkpt>
      <trkpt lat="59.9524456" lon="17.7187651">
        <ele>40.9934</ele>
        <time>2012-09-20T17:47:18Z</time>
      </trkpt>
      <trkpt lat="59.9524389" lon="17.7187996">
        <ele>40.9934</ele>
        <time>2012-09-20T17:47:19Z</time>
      </trkpt>
      <trkpt lat="59.9524305" lon="17.7188368">
        <ele>40.9934</ele>
        <time>2012-09-20T17:47:20Z</time>
      </trkpt>
      <trkpt lat="59.9524184" lon="17.7188696">
        <ele>40.9934</ele>
        <time>2012-09-20T17:47:21Z</time>
      </trkpt>
      <trkpt lat="59.9524039" lon="17.7188967">
        <ele>40.0321</ele>
        <time>2012-09-20T17:47:22Z</time>
      </trkpt>
      <trkpt lat="59.9523953" lon="17.7189333">
        <ele>40.0321</ele>
        <time>2012-09-20T17:47:23Z</time>
      </trkpt>
      <trkpt lat="59.9523897" lon="17.7189799">
        <ele>40.0321</ele>
        <time>2012-09-20T17:47:24Z</time>
      </trkpt>
      <trkpt lat="59.9523824" lon="17.7190333">
        <ele>40.0321</ele>
        <time>2012-09-20T17:47:25Z</time>
      </trkpt>
      <trkpt lat="59.9523638" lon="17.7190927">
        <ele>39.5513</ele>
        <time>2012-09-20T17:47:26Z</time>
      </trkpt>
      <trkpt lat="59.9523513" lon="17.7191486">
        <ele>39.0707</ele>
        <time>2012-09-20T17:47:27Z</time>
      </trkpt>
      <trkpt lat="59.9523434" lon="17.7192101">
        <ele>39.0707</ele>
        <time>2012-09-20T17:47:28Z</time>
      </trkpt>
      <trkpt lat="59.9523389" lon="17.7192646">
        <ele>39.0707</ele>
        <time>2012-09-20T17:47:29Z</time>
      </trkpt>
      <trkpt lat="59.9523392" lon="17.7193135">
        <ele>38.5901</ele>
        <time>2012-09-20T17:47:30Z</time>
      </trkpt>
      <trkpt lat="59.9523374" lon="17.7193625">
        <ele>38.5901</ele>
        <time>2012-09-20T17:47:31Z</time>
      </trkpt>
      <trkpt lat="59.9523362" lon="17.7194161">
        <ele>38.5901</ele>
        <time>2012-09-20T17:47:32Z</time>
      </trkpt>
      <trkpt lat="59.9523455" lon="17.7194639">
        <ele>39.5513</ele>
        <time>2012-09-20T17:47:33Z</time>
      </trkpt>
      <trkpt lat="59.9523571" lon="17.7195109">
        <ele>40.5128</ele>
        <time>2012-09-20T17:47:34Z</time>
      </trkpt>
      <trkpt lat="59.9523671" lon="17.7195656">
        <ele>40.9934</ele>
        <time>2012-09-20T17:47:35Z</time>
      </trkpt>
      <trkpt lat="59.9523808" lon="17.7196123">
        <ele>40.9934</ele>
        <time>2012-09-20T17:47:36Z</time>
      </trkpt>
      <trkpt lat="59.9523973" lon="17.7196575">
        <ele>41.474</ele>
        <time>2012-09-20T17:47:37Z</time>
      </trkpt>
      <trkpt lat="59.952413" lon="17.7197099">
        <ele>41.9547</ele>
        <time>2012-09-20T17:47:38Z</time>
      </trkpt>
      <trkpt lat="59.9524311" lon="17.7197637">
        <ele>42.4354</ele>
        <time>2012-09-20T17:47:39Z</time>
      </trkpt>
      <trkpt lat="59.9524538" lon="17.7198071">
        <ele>43.8773</ele>
        <time>2012-09-20T17:47:40Z</time>
      </trkpt>
      <trkpt lat="59.9524749" lon="17.7198459">
        <ele>43.8773</ele>
        <time>2012-09-20T17:47:41Z</time>
      </trkpt>
      <trkpt lat="59.9524921" lon="17.7198837">
        <ele>43.8773</ele>
        <time>2012-09-20T17:47:42Z</time>
      </trkpt>
      <trkpt lat="59.952502" lon="17.7199279">
        <ele>43.8773</ele>
        <time>2012-09-20T17:47:43Z</time>
      </trkpt>
      <trkpt lat="59.9525132" lon="17.7199834">
        <ele>44.358</ele>
        <time>2012-09-20T17:47:44Z</time>
      </trkpt>
      <trkpt lat="59.952517" lon="17.7200429">
        <ele>44.8386</ele>
        <time>2012-09-20T17:47:45Z</time>
      </trkpt>
      <trkpt lat="59.9525145" lon="17.7201003">
        <ele>44.358</ele>
        <time>2012-09-20T17:47:46Z</time>
      </trkpt>
      <trkpt lat="59.9525125" lon="17.7201605">
        <ele>44.358</ele>
        <time>2012-09-20T17:47:47Z</time>
      </trkpt>
      <trkpt lat="59.9525156" lon="17.7202206">
        <ele>44.358</ele>
        <time>2012-09-20T17:47:48Z</time>
      </trkpt>
      <trkpt lat="59.9525205" lon="17.7202756">
        <ele>43.8773</ele>
        <time>2012-09-20T17:47:49Z</time>
      </trkpt>
      <trkpt lat="59.9525263" lon="17.7203159">
        <ele>42.916</ele>
        <time>2012-09-20T17:47:50Z</time>
      </trkpt>
      <trkpt lat="59.9525253" lon="17.7203573">
        <ele>42.4354</ele>
        <time>2012-09-20T17:47:51Z</time>
      </trkpt>
      <trkpt lat="59.95252" lon="17.7204044">
        <ele>41.474</ele>
        <time>2012-09-20T17:47:52Z</time>
      </trkpt>
      <trkpt lat="59.9525264" lon="17.7204531">
        <ele>41.474</ele>
        <time>2012-09-20T17:47:53Z</time>
      </trkpt>
      <trkpt lat="59.9525277" lon="17.720503">
        <ele>40.5128</ele>
        <time>2012-09-20T17:47:54Z</time>
      </trkpt>
      <trkpt lat="59.9525279" lon="17.7205521">
        <ele>40.0321</ele>
        <time>2012-09-20T17:47:55Z</time>
      </trkpt>
      <trkpt lat="59.9525306" lon="17.720604">
        <ele>40.0321</ele>
        <time>2012-09-20T17:47:56Z</time>
      </trkpt>
      <trkpt lat="59.952535" lon="17.7206529">
        <ele>40.0321</ele>
        <time>2012-09-20T17:47:57Z</time>
      </trkpt>
      <trkpt lat="59.9525367" lon="17.7207006">
        <ele>40.0321</ele>
        <time>2012-09-20T17:47:58Z</time>
      </trkpt>
      <trkpt lat="59.9525387" lon="17.7207495">
        <ele>40.0321</ele>
        <time>2012-09-20T17:47:59Z</time>
      </trkpt>
      <trkpt lat="59.9525366" lon="17.7207987">
        <ele>39.5513</ele>
        <time>2012-09-20T17:48:00Z</time>
      </trkpt>
      <trkpt lat="59.9525345" lon="17.7208428">
        <ele>38.5901</ele>
        <time>2012-09-20T17:48:01Z</time>
      </trkpt>
      <trkpt lat="59.9525372" lon="17.7208873">
        <ele>38.1094</ele>
        <time>2012-09-20T17:48:02Z</time>
      </trkpt>
      <trkpt lat="59.9525378" lon="17.7209344">
        <ele>37.6287</ele>
        <time>2012-09-20T17:48:03Z</time>
      </trkpt>
      <trkpt lat="59.9525387" lon="17.7209825">
        <ele>37.1481</ele>
        <time>2012-09-20T17:48:04Z</time>
      </trkpt>
      <trkpt lat="59.952541" lon="17.7210358">
        <ele>37.1481</ele>
        <time>2012-09-20T17:48:05Z</time>
      </trkpt>
      <trkpt lat="59.9525396" lon="17.7210898">
        <ele>37.1481</ele>
        <time>2012-09-20T17:48:06Z</time>
      </trkpt>
      <trkpt lat="59.9525393" lon="17.721144">
        <ele>36.1868</ele>
        <time>2012-09-20T17:48:07Z</time>
      </trkpt>
      <trkpt lat="59.9525372" lon="17.721199">
        <ele>36.1868</ele>
        <time>2012-09-20T17:48:08Z</time>
      </trkpt>
      <trkpt lat="59.952531" lon="17.7212463">
        <ele>35.7061</ele>
        <time>2012-09-20T17:48:09Z</time>
      </trkpt>
      <trkpt lat="59.9525254" lon="17.7212939">
        <ele>35.7061</ele>
        <time>2012-09-20T17:48:10Z</time>
      </trkpt>
      <trkpt lat="59.9525239" lon="17.7213389">
        <ele>35.2255</ele>
        <time>2012-09-20T17:48:11Z</time>
      </trkpt>
      <trkpt lat="59.9525231" lon="17.7213916">
        <ele>35.2255</ele>
        <time>2012-09-20T17:48:12Z</time>
      </trkpt>
      <trkpt lat="59.9525223" lon="17.7214434">
        <ele>35.2255</ele>
        <time>2012-09-20T17:48:13Z</time>
      </trkpt>
      <trkpt lat="59.9525257" lon="17.7214965">
        <ele>35.7061</ele>
        <time>2012-09-20T17:48:14Z</time>
      </trkpt>
      <trkpt lat="59.9525332" lon="17.7215501">
        <ele>35.7061</ele>
        <time>2012-09-20T17:48:15Z</time>
      </trkpt>
      <trkpt lat="59.9525376" lon="17.7216057">
        <ele>35.7061</ele>
        <time>2012-09-20T17:48:16Z</time>
      </trkpt>
      <trkpt lat="59.9525384" lon="17.7216679">
        <ele>36.1868</ele>
        <time>2012-09-20T17:48:17Z</time>
      </trkpt>
      <trkpt lat="59.9525464" lon="17.7217264">
        <ele>36.1868</ele>
        <time>2012-09-20T17:48:18Z</time>
      </trkpt>
      <trkpt lat="59.9525531" lon="17.7217838">
        <ele>37.1481</ele>
        <time>2012-09-20T17:48:19Z</time>
      </trkpt>
      <trkpt lat="59.9525595" lon="17.7218651">
        <ele>40.9934</ele>
        <time>2012-09-20T17:48:20Z</time>
      </trkpt>
      <trkpt lat="59.9525627" lon="17.7219218">
        <ele>40.9934</ele>
        <time>2012-09-20T17:48:21Z</time>
      </trkpt>
      <trkpt lat="59.952572" lon="17.7219698">
        <ele>41.474</ele>
        <time>2012-09-20T17:48:22Z</time>
      </trkpt>
      <trkpt lat="59.9525809" lon="17.7220217">
        <ele>41.474</ele>
        <time>2012-09-20T17:48:23Z</time>
      </trkpt>
      <trkpt lat="59.9525858" lon="17.7220694">
        <ele>40.9934</ele>
        <time>2012-09-20T17:48:24Z</time>
      </trkpt>
      <trkpt lat="59.952589" lon="17.7221121">
        <ele>40.5128</ele>
        <time>2012-09-20T17:48:25Z</time>
      </trkpt>
      <trkpt lat="59.952585" lon="17.7221543">
        <ele>40.0321</ele>
        <time>2012-09-20T17:48:26Z</time>
      </trkpt>
      <trkpt lat="59.9525752" lon="17.7221951">
        <ele>38.5901</ele>
        <time>2012-09-20T17:48:27Z</time>
      </trkpt>
      <trkpt lat="59.9525656" lon="17.7222409">
        <ele>38.1094</ele>
        <time>2012-09-20T17:48:28Z</time>
      </trkpt>
      <trkpt lat="59.9525583" lon="17.7222862">
        <ele>37.6287</ele>
        <time>2012-09-20T17:48:29Z</time>
      </trkpt>
      <trkpt lat="59.9525439" lon="17.7223351">
        <ele>36.1868</ele>
        <time>2012-09-20T17:48:30Z</time>
      </trkpt>
      <trkpt lat="59.9525315" lon="17.7223834">
        <ele>35.7061</ele>
        <time>2012-09-20T17:48:31Z</time>
      </trkpt>
      <trkpt lat="59.9525241" lon="17.7224333">
        <ele>35.7061</ele>
        <time>2012-09-20T17:48:32Z</time>
      </trkpt>
      <trkpt lat="59.9525185" lon="17.7224831">
        <ele>35.2255</ele>
        <time>2012-09-20T17:48:33Z</time>
      </trkpt>
      <trkpt lat="59.9525148" lon="17.7225324">
        <ele>35.2255</ele>
        <time>2012-09-20T17:48:34Z</time>
      </trkpt>
      <trkpt lat="59.9525113" lon="17.7225816">
        <ele>35.2255</ele>
        <time>2012-09-20T17:48:35Z</time>
      </trkpt>
      <trkpt lat="59.952513" lon="17.7226262">
        <ele>34.2642</ele>
        <time>2012-09-20T17:48:36Z</time>
      </trkpt>
      <trkpt lat="59.9525134" lon="17.7226747">
        <ele>34.2642</ele>
        <time>2012-09-20T17:48:37Z</time>
      </trkpt>
      <trkpt lat="59.9525174" lon="17.7227246">
        <ele>33.3029</ele>
        <time>2012-09-20T17:48:38Z</time>
      </trkpt>
      <trkpt lat="59.9525298" lon="17.7227697">
        <ele>33.3029</ele>
        <time>2012-09-20T17:48:39Z</time>
      </trkpt>
      <trkpt lat="59.9525352" lon="17.7228349">
        <ele>34.7449</ele>
        <time>2012-09-20T17:48:40Z</time>
      </trkpt>
      <trkpt lat="59.952541" lon="17.7228957">
        <ele>36.1868</ele>
        <time>2012-09-20T17:48:41Z</time>
      </trkpt>
      <trkpt lat="59.9525495" lon="17.722961">
        <ele>37.1481</ele>
        <time>2012-09-20T17:48:42Z</time>
      </trkpt>
      <trkpt lat="59.9525611" lon="17.723027">
        <ele>38.5901</ele>
        <time>2012-09-20T17:48:43Z</time>
      </trkpt>
      <trkpt lat="59.9525728" lon="17.7230782">
        <ele>38.5901</ele>
        <time>2012-09-20T17:48:44Z</time>
      </trkpt>
      <trkpt lat="59.9525822" lon="17.7231266">
        <ele>39.5513</ele>
        <time>2012-09-20T17:48:45Z</time>
      </trkpt>
      <trkpt lat="59.9525953" lon="17.72318">
        <ele>40.5128</ele>
        <time>2012-09-20T17:48:46Z</time>
      </trkpt>
      <trkpt lat="59.952601" lon="17.7232291">
        <ele>40.5128</ele>
        <time>2012-09-20T17:48:47Z</time>
      </trkpt>
      <trkpt lat="59.9526036" lon="17.7232775">
        <ele>40.5128</ele>
        <time>2012-09-20T17:48:48Z</time>
      </trkpt>
      <trkpt lat="59.9526098" lon="17.7233284">
        <ele>40.9934</ele>
        <time>2012-09-20T17:48:49Z</time>
      </trkpt>
      <trkpt lat="59.952618" lon="17.7233789">
        <ele>40.9934</ele>
        <time>2012-09-20T17:48:50Z</time>
      </trkpt>
      <trkpt lat="59.9526238" lon="17.72343">
        <ele>41.474</ele>
        <time>2012-09-20T17:48:51Z</time>
      </trkpt>
      <trkpt lat="59.9526277" lon="17.723482">
        <ele>40.9934</ele>
        <time>2012-09-20T17:48:52Z</time>
      </trkpt>
      <trkpt lat="59.9526315" lon="17.7235348">
        <ele>40.5128</ele>
        <time>2012-09-20T17:48:53Z</time>
      </trkpt>
      <trkpt lat="59.952641" lon="17.7235892">
        <ele>40.5128</ele>
        <time>2012-09-20T17:48:54Z</time>
      </trkpt>
      <trkpt lat="59.9526544" lon="17.723633">
        <ele>40.5128</ele>
        <time>2012-09-20T17:48:55Z</time>
      </trkpt>
      <trkpt lat="59.9526725" lon="17.7236726">
        <ele>40.5128</ele>
        <time>2012-09-20T17:48:56Z</time>
      </trkpt>
      <trkpt lat="59.9526884" lon="17.7237183">
        <ele>40.5128</ele>
        <time>2012-09-20T17:48:57Z</time>
      </trkpt>
      <trkpt lat="59.9527036" lon="17.7237677">
        <ele>41.474</ele>
        <time>2012-09-20T17:48:58Z</time>
      </trkpt>
      <trkpt lat="59.9527166" lon="17.7238139">
        <ele>41.9547</ele>
        <time>2012-09-20T17:48:59Z</time>
      </trkpt>
      <trkpt lat="59.9527282" lon="17.7238633">
        <ele>42.4354</ele>
        <time>2012-09-20T17:49:00Z</time>
      </trkpt>
      <trkpt lat="59.9527377" lon="17.7239145">
        <ele>43.3966</ele>
        <time>2012-09-20T17:49:01Z</time>
      </trkpt>
      <trkpt lat="59.9527396" lon="17.7239685">
        <ele>42.916</ele>
        <time>2012-09-20T17:49:02Z</time>
      </trkpt>
      <trkpt lat="59.9527393" lon="17.7240304">
        <ele>42.916</ele>
        <time>2012-09-20T17:49:03Z</time>
      </trkpt>
      <trkpt lat="59.9527254" lon="17.7240875">
        <ele>42.916</ele>
        <time>2012-09-20T17:49:04Z</time>
      </trkpt>
      <trkpt lat="59.952705" lon="17.7241402">
        <ele>42.4354</ele>
        <time>2012-09-20T17:49:05Z</time>
      </trkpt>
      <trkpt lat="59.9526875" lon="17.7241951">
        <ele>42.4354</ele>
        <time>2012-09-20T17:49:06Z</time>
      </trkpt>
      <trkpt lat="59.952666" lon="17.7242476">
        <ele>41.9547</ele>
        <time>2012-09-20T17:49:07Z</time>
      </trkpt>
      <trkpt lat="59.9526501" lon="17.7242916">
        <ele>42.4354</ele>
        <time>2012-09-20T17:49:08Z</time>
      </trkpt>
      <trkpt lat="59.9526304" lon="17.724338">
        <ele>41.9547</ele>
        <time>2012-09-20T17:49:09Z</time>
      </trkpt>
      <trkpt lat="59.9526088" lon="17.7243758">
        <ele>41.9547</ele>
        <time>2012-09-20T17:49:10Z</time>
      </trkpt>
      <trkpt lat="59.9525901" lon="17.7244161">
        <ele>40.9934</ele>
        <time>2012-09-20T17:49:11Z</time>
      </trkpt>
      <trkpt lat="59.9525708" lon="17.7244625">
        <ele>40.5128</ele>
        <time>2012-09-20T17:49:12Z</time>
      </trkpt>
      <trkpt lat="59.952547" lon="17.7245066">
        <ele>40.5128</ele>
        <time>2012-09-20T17:49:13Z</time>
      </trkpt>
      <trkpt lat="59.9525263" lon="17.7245439">
        <ele>39.5513</ele>
        <time>2012-09-20T17:49:14Z</time>
      </trkpt>
      <trkpt lat="59.9525031" lon="17.7245818">
        <ele>39.0707</ele>
        <time>2012-09-20T17:49:15Z</time>
      </trkpt>
      <trkpt lat="59.9524762" lon="17.7246157">
        <ele>38.5901</ele>
        <time>2012-09-20T17:49:16Z</time>
      </trkpt>
      <trkpt lat="59.9524461" lon="17.7246413">
        <ele>38.1094</ele>
        <time>2012-09-20T17:49:17Z</time>
      </trkpt>
      <trkpt lat="59.9524146" lon="17.7246718">
        <ele>37.1481</ele>
        <time>2012-09-20T17:49:18Z</time>
      </trkpt>
      <trkpt lat="59.9523855" lon="17.724702">
        <ele>37.1481</ele>
        <time>2012-09-20T17:49:19Z</time>
      </trkpt>
      <trkpt lat="59.9523542" lon="17.7247302">
        <ele>36.1868</ele>
        <time>2012-09-20T17:49:20Z</time>
      </trkpt>
      <trkpt lat="59.9523274" lon="17.7247656">
        <ele>36.1868</ele>
        <time>2012-09-20T17:49:21Z</time>
      </trkpt>
      <trkpt lat="59.9523019" lon="17.7248017">
        <ele>36.1868</ele>
        <time>2012-09-20T17:49:22Z</time>
      </trkpt>
      <trkpt lat="59.9522761" lon="17.7248462">
        <ele>36.1868</ele>
        <time>2012-09-20T17:49:23Z</time>
      </trkpt>
      <trkpt lat="59.9522539" lon="17.7248857">
        <ele>36.1868</ele>
        <time>2012-09-20T17:49:24Z</time>
      </trkpt>
      <trkpt lat="59.9522305" lon="17.7249251">
        <ele>36.1868</ele>
        <time>2012-09-20T17:49:25Z</time>
      </trkpt>
      <trkpt lat="59.9522095" lon="17.7249622">
        <ele>36.6675</ele>
        <time>2012-09-20T17:49:26Z</time>
      </trkpt>
      <trkpt lat="59.9521881" lon="17.7250002">
        <ele>36.6675</ele>
        <time>2012-09-20T17:49:27Z</time>
      </trkpt>
      <trkpt lat="59.9521689" lon="17.7250337">
        <ele>36.1868</ele>
        <time>2012-09-20T17:49:28Z</time>
      </trkpt>
      <trkpt lat="59.9521514" lon="17.7250675">
        <ele>36.1868</ele>
        <time>2012-09-20T17:49:29Z</time>
      </trkpt>
      <trkpt lat="59.9521352" lon="17.7251032">
        <ele>35.7061</ele>
        <time>2012-09-20T17:49:30Z</time>
      </trkpt>
      <trkpt lat="59.9521197" lon="17.725133">
        <ele>35.7061</ele>
        <time>2012-09-20T17:49:31Z</time>
      </trkpt>
      <trkpt lat="59.9521021" lon="17.7251668">
        <ele>35.2255</ele>
        <time>2012-09-20T17:49:32Z</time>
      </trkpt>
      <trkpt lat="59.9520831" lon="17.7252023">
        <ele>34.7449</ele>
        <time>2012-09-20T17:49:33Z</time>
      </trkpt>
      <trkpt lat="59.9520625" lon="17.7252334">
        <ele>34.7449</ele>
        <time>2012-09-20T17:49:34Z</time>
      </trkpt>
      <trkpt lat="59.9520451" lon="17.7252639">
        <ele>34.7449</ele>
        <time>2012-09-20T17:49:35Z</time>
      </trkpt>
      <trkpt lat="59.9520313" lon="17.7252967">
        <ele>35.2255</ele>
        <time>2012-09-20T17:49:36Z</time>
      </trkpt>
      <trkpt lat="59.9520142" lon="17.7253343">
        <ele>35.7061</ele>
        <time>2012-09-20T17:49:37Z</time>
      </trkpt>
      <trkpt lat="59.9520006" lon="17.7253704">
        <ele>35.2255</ele>
        <time>2012-09-20T17:49:38Z</time>
      </trkpt>
      <trkpt lat="59.9519877" lon="17.7254075">
        <ele>35.7061</ele>
        <time>2012-09-20T17:49:39Z</time>
      </trkpt>
      <trkpt lat="59.9519684" lon="17.7254432">
        <ele>35.2255</ele>
        <time>2012-09-20T17:49:40Z</time>
      </trkpt>
      <trkpt lat="59.9519497" lon="17.7254759">
        <ele>35.2255</ele>
        <time>2012-09-20T17:49:41Z</time>
      </trkpt>
      <trkpt lat="59.9519325" lon="17.7255118">
        <ele>34.7449</ele>
        <time>2012-09-20T17:49:42Z</time>
      </trkpt>
      <trkpt lat="59.9519154" lon="17.7255504">
        <ele>35.2255</ele>
        <time>2012-09-20T17:49:43Z</time>
      </trkpt>
      <trkpt lat="59.9518937" lon="17.7255912">
        <ele>35.2255</ele>
        <time>2012-09-20T17:49:44Z</time>
      </trkpt>
      <trkpt lat="59.9518706" lon="17.7256306">
        <ele>34.7449</ele>
        <time>2012-09-20T17:49:45Z</time>
      </trkpt>
      <trkpt lat="59.9518488" lon="17.7256702">
        <ele>35.2255</ele>
        <time>2012-09-20T17:49:46Z</time>
      </trkpt>
      <trkpt lat="59.9518296" lon="17.7257114">
        <ele>35.7061</ele>
        <time>2012-09-20T17:49:47Z</time>
      </trkpt>
      <trkpt lat="59.9518094" lon="17.7257506">
        <ele>35.7061</ele>
        <time>2012-09-20T17:49:48Z</time>
      </trkpt>
      <trkpt lat="59.9517872" lon="17.725789">
        <ele>35.7061</ele>
        <time>2012-09-20T17:49:49Z</time>
      </trkpt>
      <trkpt lat="59.9517618" lon="17.7258318">
        <ele>36.1868</ele>
        <time>2012-09-20T17:49:50Z</time>
      </trkpt>
      <trkpt lat="59.9517374" lon="17.7258674">
        <ele>36.6675</ele>
        <time>2012-09-20T17:49:51Z</time>
      </trkpt>
      <trkpt lat="59.9517157" lon="17.7259005">
        <ele>37.1481</ele>
        <time>2012-09-20T17:49:52Z</time>
      </trkpt>
      <trkpt lat="59.9516949" lon="17.725941">
        <ele>37.1481</ele>
        <time>2012-09-20T17:49:53Z</time>
      </trkpt>
      <trkpt lat="59.9516751" lon="17.7259673">
        <ele>37.1481</ele>
        <time>2012-09-20T17:49:54Z</time>
      </trkpt>
      <trkpt lat="59.951654" lon="17.7259912">
        <ele>37.6287</ele>
        <time>2012-09-20T17:49:55Z</time>
      </trkpt>
      <trkpt lat="59.9516291" lon="17.7260186">
        <ele>37.6287</ele>
        <time>2012-09-20T17:49:56Z</time>
      </trkpt>
      <trkpt lat="59.9516023" lon="17.7260435">
        <ele>37.1481</ele>
        <time>2012-09-20T17:49:57Z</time>
      </trkpt>
      <trkpt lat="59.9515821" lon="17.7260785">
        <ele>36.6675</ele>
        <time>2012-09-20T17:49:58Z</time>
      </trkpt>
      <trkpt lat="59.9515656" lon="17.7261223">
        <ele>36.1868</ele>
        <time>2012-09-20T17:49:59Z</time>
      </trkpt>
      <trkpt lat="59.9515535" lon="17.7261586">
        <ele>36.1868</ele>
        <time>2012-09-20T17:50:00Z</time>
      </trkpt>
      <trkpt lat="59.9515414" lon="17.726201">
        <ele>35.7061</ele>
        <time>2012-09-20T17:50:01Z</time>
      </trkpt>
      <trkpt lat="59.9515363" lon="17.7262512">
        <ele>35.7061</ele>
        <time>2012-09-20T17:50:02Z</time>
      </trkpt>
      <trkpt lat="59.9515338" lon="17.7262985">
        <ele>36.1868</ele>
        <time>2012-09-20T17:50:03Z</time>
      </trkpt>
      <trkpt lat="59.9515359" lon="17.7263519">
        <ele>36.1868</ele>
        <time>2012-09-20T17:50:04Z</time>
      </trkpt>
      <trkpt lat="59.9515359" lon="17.7263897">
        <ele>36.1868</ele>
        <time>2012-09-20T17:50:05Z</time>
      </trkpt>
      <trkpt lat="59.9515308" lon="17.72643">
        <ele>35.7061</ele>
        <time>2012-09-20T17:50:06Z</time>
      </trkpt>
      <trkpt lat="59.95152" lon="17.726475">
        <ele>36.1868</ele>
        <time>2012-09-20T17:50:07Z</time>
      </trkpt>
      <trkpt lat="59.9515095" lon="17.7265192">
        <ele>36.1868</ele>
        <time>2012-09-20T17:50:08Z</time>
      </trkpt>
      <trkpt lat="59.9514958" lon="17.7265536">
        <ele>36.1868</ele>
        <time>2012-09-20T17:50:09Z</time>
      </trkpt>
      <trkpt lat="59.9514794" lon="17.726589">
        <ele>36.6675</ele>
        <time>2012-09-20T17:50:10Z</time>
      </trkpt>
      <trkpt lat="59.951466" lon="17.7266283">
        <ele>36.6675</ele>
        <time>2012-09-20T17:50:11Z</time>
      </trkpt>
      <trkpt lat="59.9514521" lon="17.7266687">
        <ele>37.6287</ele>
        <time>2012-09-20T17:50:12Z</time>
      </trkpt>
      <trkpt lat="59.9514449" lon="17.7267004">
        <ele>38.1094</ele>
        <time>2012-09-20T17:50:13Z</time>
      </trkpt>
      <trkpt lat="59.9514392" lon="17.7267413">
        <ele>38.1094</ele>
        <time>2012-09-20T17:50:14Z</time>
      </trkpt>
      <trkpt lat="59.9514369" lon="17.7267889">
        <ele>37.6287</ele>
        <time>2012-09-20T17:50:15Z</time>
      </trkpt>
      <trkpt lat="59.9514355" lon="17.7268387">
        <ele>37.6287</ele>
        <time>2012-09-20T17:50:16Z</time>
      </trkpt>
      <trkpt lat="59.9514396" lon="17.7268913">
        <ele>37.6287</ele>
        <time>2012-09-20T17:50:17Z</time>
      </trkpt>
      <trkpt lat="59.9514499" lon="17.7269397">
        <ele>38.1094</ele>
        <time>2012-09-20T17:50:18Z</time>
      </trkpt>
      <trkpt lat="59.9514608" lon="17.7269919">
        <ele>38.1094</ele>
        <time>2012-09-20T17:50:19Z</time>
      </trkpt>
      <trkpt lat="59.9514725" lon="17.7270469">
        <ele>39.0707</ele>
        <time>2012-09-20T17:50:20Z</time>
      </trkpt>
      <trkpt lat="59.9514845" lon="17.7270998">
        <ele>39.0707</ele>
        <time>2012-09-20T17:50:21Z</time>
      </trkpt>
      <trkpt lat="59.9514972" lon="17.7271505">
        <ele>39.0707</ele>
        <time>2012-09-20T17:50:22Z</time>
      </trkpt>
      <trkpt lat="59.9515042" lon="17.7272106">
        <ele>39.5513</ele>
        <time>2012-09-20T17:50:23Z</time>
      </trkpt>
      <trkpt lat="59.9515114" lon="17.7272697">
        <ele>39.5513</ele>
        <time>2012-09-20T17:50:24Z</time>
      </trkpt>
      <trkpt lat="59.9515183" lon="17.7273168">
        <ele>40.0321</ele>
        <time>2012-09-20T17:50:25Z</time>
      </trkpt>
      <trkpt lat="59.95152" lon="17.7273582">
        <ele>40.0321</ele>
        <time>2012-09-20T17:50:26Z</time>
      </trkpt>
      <trkpt lat="59.9515218" lon="17.7274146">
        <ele>40.0321</ele>
        <time>2012-09-20T17:50:27Z</time>
      </trkpt>
      <trkpt lat="59.951522" lon="17.7274738">
        <ele>39.5513</ele>
        <time>2012-09-20T17:50:28Z</time>
      </trkpt>
      <trkpt lat="59.9515321" lon="17.7275213">
        <ele>39.0707</ele>
        <time>2012-09-20T17:50:29Z</time>
      </trkpt>
      <trkpt lat="59.951542" lon="17.7275689">
        <ele>39.0707</ele>
        <time>2012-09-20T17:50:30Z</time>
      </trkpt>
      <trkpt lat="59.9515515" lon="17.7276131">
        <ele>39.0707</ele>
        <time>2012-09-20T17:50:31Z</time>
      </trkpt>
      <trkpt lat="59.9515617" lon="17.7276571">
        <ele>39.5513</ele>
        <time>2012-09-20T17:50:32Z</time>
      </trkpt>
      <trkpt lat="59.9515707" lon="17.7277007">
        <ele>39.5513</ele>
        <time>2012-09-20T17:50:33Z</time>
      </trkpt>
      <trkpt lat="59.9515784" lon="17.7277453">
        <ele>39.0707</ele>
        <time>2012-09-20T17:50:34Z</time>
      </trkpt>
      <trkpt lat="59.9515901" lon="17.7277999">
        <ele>39.5513</ele>
        <time>2012-09-20T17:50:35Z</time>
      </trkpt>
      <trkpt lat="59.9516038" lon="17.7278472">
        <ele>39.5513</ele>
        <time>2012-09-20T17:50:36Z</time>
      </trkpt>
      <trkpt lat="59.9516271" lon="17.7278788">
        <ele>40.0321</ele>
        <time>2012-09-20T17:50:37Z</time>
      </trkpt>
      <trkpt lat="59.9516481" lon="17.7279062">
        <ele>40.0321</ele>
        <time>2012-09-20T17:50:38Z</time>
      </trkpt>
      <trkpt lat="59.9516736" lon="17.727924">
        <ele>40.0321</ele>
        <time>2012-09-20T17:50:39Z</time>
      </trkpt>
      <trkpt lat="59.9516996" lon="17.7279312">
        <ele>40.0321</ele>
        <time>2012-09-20T17:50:40Z</time>
      </trkpt>
      <trkpt lat="59.9517276" lon="17.7279384">
        <ele>40.0321</ele>
        <time>2012-09-20T17:50:41Z</time>
      </trkpt>
      <trkpt lat="59.9517533" lon="17.7279425">
        <ele>40.5128</ele>
        <time>2012-09-20T17:50:42Z</time>
      </trkpt>
      <trkpt lat="59.9517813" lon="17.7279378">
        <ele>40.9934</ele>
        <time>2012-09-20T17:50:43Z</time>
      </trkpt>
      <trkpt lat="59.9518078" lon="17.7279327">
        <ele>41.474</ele>
        <time>2012-09-20T17:50:44Z</time>
      </trkpt>
      <trkpt lat="59.9518341" lon="17.7279268">
        <ele>41.474</ele>
        <time>2012-09-20T17:50:45Z</time>
      </trkpt>
      <trkpt lat="59.951856" lon="17.727913">
        <ele>41.474</ele>
        <time>2012-09-20T17:50:46Z</time>
      </trkpt>
      <trkpt lat="59.9518747" lon="17.7278981">
        <ele>41.474</ele>
        <time>2012-09-20T17:50:47Z</time>
      </trkpt>
      <trkpt lat="59.9518958" lon="17.7278786">
        <ele>41.474</ele>
        <time>2012-09-20T17:50:48Z</time>
      </trkpt>
      <trkpt lat="59.9519105" lon="17.7278482">
        <ele>40.5128</ele>
        <time>2012-09-20T17:50:49Z</time>
      </trkpt>
      <trkpt lat="59.9519299" lon="17.7278162">
        <ele>40.0321</ele>
        <time>2012-09-20T17:50:50Z</time>
      </trkpt>
      <trkpt lat="59.9519478" lon="17.7277903">
        <ele>40.5128</ele>
        <time>2012-09-20T17:50:51Z</time>
      </trkpt>
      <trkpt lat="59.9519669" lon="17.7277562">
        <ele>40.5128</ele>
        <time>2012-09-20T17:50:52Z</time>
      </trkpt>
      <trkpt lat="59.9519788" lon="17.7277187">
        <ele>39.5513</ele>
        <time>2012-09-20T17:50:53Z</time>
      </trkpt>
      <trkpt lat="59.951995" lon="17.7276819">
        <ele>39.5513</ele>
        <time>2012-09-20T17:50:54Z</time>
      </trkpt>
      <trkpt lat="59.9520123" lon="17.7276464">
        <ele>39.0707</ele>
        <time>2012-09-20T17:50:55Z</time>
      </trkpt>
      <trkpt lat="59.9520291" lon="17.7276161">
        <ele>38.5901</ele>
        <time>2012-09-20T17:50:56Z</time>
      </trkpt>
      <trkpt lat="59.9520446" lon="17.727582">
        <ele>38.1094</ele>
        <time>2012-09-20T17:50:57Z</time>
      </trkpt>
      <trkpt lat="59.9520487" lon="17.7275466">
        <ele>37.1481</ele>
        <time>2012-09-20T17:50:58Z</time>
      </trkpt>
      <trkpt lat="59.9520564" lon="17.7275064">
        <ele>36.6675</ele>
        <time>2012-09-20T17:50:59Z</time>
      </trkpt>
      <trkpt lat="59.952068" lon="17.7274629">
        <ele>36.1868</ele>
        <time>2012-09-20T17:51:00Z</time>
      </trkpt>
      <trkpt lat="59.9520797" lon="17.7274245">
        <ele>36.1868</ele>
        <time>2012-09-20T17:51:01Z</time>
      </trkpt>
      <trkpt lat="59.9520866" lon="17.727393">
        <ele>35.7061</ele>
        <time>2012-09-20T17:51:02Z</time>
      </trkpt>
      <trkpt lat="59.9520917" lon="17.7273518">
        <ele>35.2255</ele>
        <time>2012-09-20T17:51:03Z</time>
      </trkpt>
      <trkpt lat="59.9520978" lon="17.7272948">
        <ele>34.7449</ele>
        <time>2012-09-20T17:51:04Z</time>
      </trkpt>
      <trkpt lat="59.9521038" lon="17.7272427">
        <ele>34.2642</ele>
        <time>2012-09-20T17:51:05Z</time>
      </trkpt>
      <trkpt lat="59.9521135" lon="17.7271909">
        <ele>34.2642</ele>
        <time>2012-09-20T17:51:06Z</time>
      </trkpt>
      <trkpt lat="59.9521229" lon="17.727136">
        <ele>33.7834</ele>
        <time>2012-09-20T17:51:07Z</time>
      </trkpt>
      <trkpt lat="59.9521274" lon="17.7270863">
        <ele>33.3029</ele>
        <time>2012-09-20T17:51:08Z</time>
      </trkpt>
      <trkpt lat="59.9521302" lon="17.7270384">
        <ele>33.3029</ele>
        <time>2012-09-20T17:51:09Z</time>
      </trkpt>
      <trkpt lat="59.9521337" lon="17.7269851">
        <ele>33.7834</ele>
        <time>2012-09-20T17:51:10Z</time>
      </trkpt>
      <trkpt lat="59.9521343" lon="17.7269194">
        <ele>33.7834</ele>
        <time>2012-09-20T17:51:11Z</time>
      </trkpt>
      <trkpt lat="59.9521405" lon="17.7268676">
        <ele>33.7834</ele>
        <time>2012-09-20T17:51:12Z</time>
      </trkpt>
      <trkpt lat="59.9521529" lon="17.7268245">
        <ele>33.7834</ele>
        <time>2012-09-20T17:51:13Z</time>
      </trkpt>
      <trkpt lat="59.9521677" lon="17.7267864">
        <ele>33.7834</ele>
        <time>2012-09-20T17:51:14Z</time>
      </trkpt>
      <trkpt lat="59.9521813" lon="17.7267527">
        <ele>33.7834</ele>
        <time>2012-09-20T17:51:15Z</time>
      </trkpt>
      <trkpt lat="59.9521955" lon="17.7267219">
        <ele>33.7834</ele>
        <time>2012-09-20T17:51:16Z</time>
      </trkpt>
      <trkpt lat="59.9522063" lon="17.72668">
        <ele>34.2642</ele>
        <time>2012-09-20T17:51:17Z</time>
      </trkpt>
      <trkpt lat="59.9522148" lon="17.7266319">
        <ele>35.2255</ele>
        <time>2012-09-20T17:51:18Z</time>
      </trkpt>
      <trkpt lat="59.9522296" lon="17.7265937">
        <ele>35.2255</ele>
        <time>2012-09-20T17:51:19Z</time>
      </trkpt>
      <trkpt lat="59.9522493" lon="17.7265596">
        <ele>35.7061</ele>
        <time>2012-09-20T17:51:20Z</time>
      </trkpt>
      <trkpt lat="59.9522654" lon="17.7265284">
        <ele>35.7061</ele>
        <time>2012-09-20T17:51:21Z</time>
      </trkpt>
      <trkpt lat="59.9522791" lon="17.7264916">
        <ele>36.1868</ele>
        <time>2012-09-20T17:51:22Z</time>
      </trkpt>
      <trkpt lat="59.9522958" lon="17.7264544">
        <ele>36.1868</ele>
        <time>2012-09-20T17:51:23Z</time>
      </trkpt>
      <trkpt lat="59.9523135" lon="17.7264175">
        <ele>36.1868</ele>
        <time>2012-09-20T17:51:24Z</time>
      </trkpt>
      <trkpt lat="59.9523273" lon="17.7263849">
        <ele>36.1868</ele>
        <time>2012-09-20T17:51:25Z</time>
      </trkpt>
      <trkpt lat="59.9523457" lon="17.726348">
        <ele>36.1868</ele>
        <time>2012-09-20T17:51:26Z</time>
      </trkpt>
      <trkpt lat="59.9523632" lon="17.7263052">
        <ele>36.6675</ele>
        <time>2012-09-20T17:51:27Z</time>
      </trkpt>
      <trkpt lat="59.9523881" lon="17.7262735">
        <ele>36.6675</ele>
        <time>2012-09-20T17:51:28Z</time>
      </trkpt>
      <trkpt lat="59.9524089" lon="17.7262424">
        <ele>36.6675</ele>
        <time>2012-09-20T17:51:29Z</time>
      </trkpt>
      <trkpt lat="59.952432" lon="17.7262057">
        <ele>36.1868</ele>
        <time>2012-09-20T17:51:30Z</time>
      </trkpt>
      <trkpt lat="59.9524528" lon="17.7261673">
        <ele>36.1868</ele>
        <time>2012-09-20T17:51:31Z</time>
      </trkpt>
      <trkpt lat="59.9524735" lon="17.7261244">
        <ele>35.2255</ele>
        <time>2012-09-20T17:51:32Z</time>
      </trkpt>
      <trkpt lat="59.9524983" lon="17.7260783">
        <ele>35.2255</ele>
        <time>2012-09-20T17:51:33Z</time>
      </trkpt>
      <trkpt lat="59.9525274" lon="17.7260387">
        <ele>34.7449</ele>
        <time>2012-09-20T17:51:34Z</time>
      </trkpt>
      <trkpt lat="59.9525542" lon="17.7260066">
        <ele>34.2642</ele>
        <time>2012-09-20T17:51:35Z</time>
      </trkpt>
      <trkpt lat="59.9525719" lon="17.7259744">
        <ele>34.2642</ele>
        <time>2012-09-20T17:51:36Z</time>
      </trkpt>
      <trkpt lat="59.9525865" lon="17.7259403">
        <ele>34.2642</ele>
        <time>2012-09-20T17:51:37Z</time>
      </trkpt>
      <trkpt lat="59.9526035" lon="17.7259038">
        <ele>33.7834</ele>
        <time>2012-09-20T17:51:38Z</time>
      </trkpt>
      <trkpt lat="59.9526252" lon="17.7258618">
        <ele>33.7834</ele>
        <time>2012-09-20T17:51:39Z</time>
      </trkpt>
      <trkpt lat="59.9526448" lon="17.725827">
        <ele>33.7834</ele>
        <time>2012-09-20T17:51:40Z</time>
      </trkpt>
      <trkpt lat="59.9526634" lon="17.7257942">
        <ele>33.3029</ele>
        <time>2012-09-20T17:51:41Z</time>
      </trkpt>
      <trkpt lat="59.9526779" lon="17.725738">
        <ele>33.3029</ele>
        <time>2012-09-20T17:51:42Z</time>
      </trkpt>
      <trkpt lat="59.952691" lon="17.7256954">
        <ele>33.3029</ele>
        <time>2012-09-20T17:51:43Z</time>
      </trkpt>
      <trkpt lat="59.9527035" lon="17.7256564">
        <ele>33.3029</ele>
        <time>2012-09-20T17:51:44Z</time>
      </trkpt>
      <trkpt lat="59.9527232" lon="17.7256256">
        <ele>33.3029</ele>
        <time>2012-09-20T17:51:45Z</time>
      </trkpt>
      <trkpt lat="59.952746" lon="17.7255974">
        <ele>33.3029</ele>
        <time>2012-09-20T17:51:46Z</time>
      </trkpt>
      <trkpt lat="59.9527696" lon="17.7255673">
        <ele>33.3029</ele>
        <time>2012-09-20T17:51:47Z</time>
      </trkpt>
      <trkpt lat="59.9527931" lon="17.7255458">
        <ele>32.8223</ele>
        <time>2012-09-20T17:51:48Z</time>
      </trkpt>
      <trkpt lat="59.952814" lon="17.7255181">
        <ele>33.3029</ele>
        <time>2012-09-20T17:51:49Z</time>
      </trkpt>
      <trkpt lat="59.9528345" lon="17.7254835">
        <ele>32.8223</ele>
        <time>2012-09-20T17:51:50Z</time>
      </trkpt>
      <trkpt lat="59.9528413" lon="17.7254276">
        <ele>33.3029</ele>
        <time>2012-09-20T17:51:51Z</time>
      </trkpt>
      <trkpt lat="59.9528635" lon="17.7254011">
        <ele>33.3029</ele>
        <time>2012-09-20T17:51:52Z</time>
      </trkpt>
      <trkpt lat="59.9528903" lon="17.7253753">
        <ele>33.3029</ele>
        <time>2012-09-20T17:51:53Z</time>
      </trkpt>
      <trkpt lat="59.9529158" lon="17.7253458">
        <ele>33.7834</ele>
        <time>2012-09-20T17:51:54Z</time>
      </trkpt>
      <trkpt lat="59.9529357" lon="17.7253183">
        <ele>33.7834</ele>
        <time>2012-09-20T17:51:55Z</time>
      </trkpt>
      <trkpt lat="59.9529473" lon="17.7252659">
        <ele>33.7834</ele>
        <time>2012-09-20T17:51:56Z</time>
      </trkpt>
      <trkpt lat="59.9529563" lon="17.7252119">
        <ele>33.7834</ele>
        <time>2012-09-20T17:51:57Z</time>
      </trkpt>
      <trkpt lat="59.9529635" lon="17.7251682">
        <ele>34.2642</ele>
        <time>2012-09-20T17:51:58Z</time>
      </trkpt>
      <trkpt lat="59.952976" lon="17.725136">
        <ele>34.2642</ele>
        <time>2012-09-20T17:51:59Z</time>
      </trkpt>
      <trkpt lat="59.9529852" lon="17.7250888">
        <ele>34.2642</ele>
        <time>2012-09-20T17:52:00Z</time>
      </trkpt>
      <trkpt lat="59.9529961" lon="17.7250491">
        <ele>34.7449</ele>
        <time>2012-09-20T17:52:01Z</time>
      </trkpt>
      <trkpt lat="59.9530087" lon="17.7250111">
        <ele>34.7449</ele>
        <time>2012-09-20T17:52:02Z</time>
      </trkpt>
      <trkpt lat="59.9530245" lon="17.7249711">
        <ele>35.2255</ele>
        <time>2012-09-20T17:52:03Z</time>
      </trkpt>
      <trkpt lat="59.9530378" lon="17.7249301">
        <ele>35.7061</ele>
        <time>2012-09-20T17:52:04Z</time>
      </trkpt>
      <trkpt lat="59.9530523" lon="17.7249013">
        <ele>35.7061</ele>
        <time>2012-09-20T17:52:05Z</time>
      </trkpt>
      <trkpt lat="59.9530665" lon="17.72487">
        <ele>35.7061</ele>
        <time>2012-09-20T17:52:06Z</time>
      </trkpt>
      <trkpt lat="59.9530786" lon="17.7248346">
        <ele>36.1868</ele>
        <time>2012-09-20T17:52:07Z</time>
      </trkpt>
      <trkpt lat="59.9530931" lon="17.7248018">
        <ele>36.6675</ele>
        <time>2012-09-20T17:52:08Z</time>
      </trkpt>
      <trkpt lat="59.9531039" lon="17.7247673">
        <ele>36.1868</ele>
        <time>2012-09-20T17:52:09Z</time>
      </trkpt>
      <trkpt lat="59.9531266" lon="17.7247391">
        <ele>36.1868</ele>
        <time>2012-09-20T17:52:10Z</time>
      </trkpt>
      <trkpt lat="59.9531505" lon="17.7247162">
        <ele>35.7061</ele>
        <time>2012-09-20T17:52:11Z</time>
      </trkpt>
      <trkpt lat="59.9531726" lon="17.7246962">
        <ele>35.7061</ele>
        <time>2012-09-20T17:52:12Z</time>
      </trkpt>
      <trkpt lat="59.9531915" lon="17.7246523">
        <ele>36.1868</ele>
        <time>2012-09-20T17:52:13Z</time>
      </trkpt>
      <trkpt lat="59.953213" lon="17.7246191">
        <ele>35.7061</ele>
        <time>2012-09-20T17:52:14Z</time>
      </trkpt>
      <trkpt lat="59.9532231" lon="17.7245774">
        <ele>36.1868</ele>
        <time>2012-09-20T17:52:15Z</time>
      </trkpt>
      <trkpt lat="59.9532299" lon="17.724534">
        <ele>36.1868</ele>
        <time>2012-09-20T17:52:16Z</time>
      </trkpt>
      <trkpt lat="59.9532402" lon="17.7244869">
        <ele>36.1868</ele>
        <time>2012-09-20T17:52:17Z</time>
      </trkpt>
      <trkpt lat="59.9532578" lon="17.7244582">
        <ele>36.1868</ele>
        <time>2012-09-20T17:52:18Z</time>
      </trkpt>
      <trkpt lat="59.9532802" lon="17.7244402">
        <ele>35.7061</ele>
        <time>2012-09-20T17:52:19Z</time>
      </trkpt>
      <trkpt lat="59.9532961" lon="17.7244111">
        <ele>35.2255</ele>
        <time>2012-09-20T17:52:20Z</time>
      </trkpt>
      <trkpt lat="59.9533123" lon="17.7243843">
        <ele>35.7061</ele>
        <time>2012-09-20T17:52:21Z</time>
      </trkpt>
      <trkpt lat="59.9533237" lon="17.7243515">
        <ele>36.1868</ele>
        <time>2012-09-20T17:52:22Z</time>
      </trkpt>
      <trkpt lat="59.9533395" lon="17.7243171">
        <ele>35.7061</ele>
        <time>2012-09-20T17:52:23Z</time>
      </trkpt>
      <trkpt lat="59.9533509" lon="17.7242726">
        <ele>36.1868</ele>
        <time>2012-09-20T17:52:24Z</time>
      </trkpt>
      <trkpt lat="59.9533655" lon="17.7242257">
        <ele>36.6675</ele>
        <time>2012-09-20T17:52:25Z</time>
      </trkpt>
      <trkpt lat="59.9533811" lon="17.7241813">
        <ele>37.1481</ele>
        <time>2012-09-20T17:52:26Z</time>
      </trkpt>
      <trkpt lat="59.9534001" lon="17.7241379">
        <ele>37.6287</ele>
        <time>2012-09-20T17:52:27Z</time>
      </trkpt>
      <trkpt lat="59.9534205" lon="17.7240961">
        <ele>38.1094</ele>
        <time>2012-09-20T17:52:28Z</time>
      </trkpt>
      <trkpt lat="59.9534421" lon="17.7240539">
        <ele>38.5901</ele>
        <time>2012-09-20T17:52:29Z</time>
      </trkpt>
      <trkpt lat="59.9534599" lon="17.7240286">
        <ele>39.0707</ele>
        <time>2012-09-20T17:52:30Z</time>
      </trkpt>
      <trkpt lat="59.9534738" lon="17.7239953">
        <ele>40.0321</ele>
        <time>2012-09-20T17:52:31Z</time>
      </trkpt>
      <trkpt lat="59.9534867" lon="17.7239631">
        <ele>40.5128</ele>
        <time>2012-09-20T17:52:32Z</time>
      </trkpt>
      <trkpt lat="59.9535028" lon="17.7239373">
        <ele>40.9934</ele>
        <time>2012-09-20T17:52:33Z</time>
      </trkpt>
      <trkpt lat="59.9535228" lon="17.7239113">
        <ele>41.474</ele>
        <time>2012-09-20T17:52:34Z</time>
      </trkpt>
      <trkpt lat="59.9535382" lon="17.7238802">
        <ele>41.9547</ele>
        <time>2012-09-20T17:52:35Z</time>
      </trkpt>
      <trkpt lat="59.9535541" lon="17.7238371">
        <ele>42.4354</ele>
        <time>2012-09-20T17:52:36Z</time>
      </trkpt>
      <trkpt lat="59.9535737" lon="17.7237984">
        <ele>42.4354</ele>
        <time>2012-09-20T17:52:37Z</time>
      </trkpt>
      <trkpt lat="59.9535896" lon="17.7237642">
        <ele>42.916</ele>
        <time>2012-09-20T17:52:38Z</time>
      </trkpt>
      <trkpt lat="59.9536028" lon="17.7237226">
        <ele>43.8773</ele>
        <time>2012-09-20T17:52:39Z</time>
      </trkpt>
      <trkpt lat="59.9536214" lon="17.7237">
        <ele>43.8773</ele>
        <time>2012-09-20T17:52:40Z</time>
      </trkpt>
      <trkpt lat="59.9536423" lon="17.7236907">
        <ele>43.8773</ele>
        <time>2012-09-20T17:52:41Z</time>
      </trkpt>
      <trkpt lat="59.9536633" lon="17.7236819">
        <ele>44.358</ele>
        <time>2012-09-20T17:52:42Z</time>
      </trkpt>
      <trkpt lat="59.9536872" lon="17.7236684">
        <ele>44.8386</ele>
        <time>2012-09-20T17:52:43Z</time>
      </trkpt>
      <trkpt lat="59.9537069" lon="17.7236406">
        <ele>45.3192</ele>
        <time>2012-09-20T17:52:44Z</time>
      </trkpt>
      <trkpt lat="59.9537219" lon="17.723608">
        <ele>46.7612</ele>
        <time>2012-09-20T17:52:45Z</time>
      </trkpt>
      <trkpt lat="59.9537406" lon="17.7235866">
        <ele>47.2418</ele>
        <time>2012-09-20T17:52:46Z</time>
      </trkpt>
      <trkpt lat="59.9537554" lon="17.7235571">
        <ele>48.2034</ele>
        <time>2012-09-20T17:52:47Z</time>
      </trkpt>
      <trkpt lat="59.9537758" lon="17.7235364">
        <ele>49.1646</ele>
        <time>2012-09-20T17:52:48Z</time>
      </trkpt>
      <trkpt lat="59.9537992" lon="17.7235141">
        <ele>50.126</ele>
        <time>2012-09-20T17:52:49Z</time>
      </trkpt>
      <trkpt lat="59.9538156" lon="17.7234862">
        <ele>50.6066</ele>
        <time>2012-09-20T17:52:50Z</time>
      </trkpt>
      <trkpt lat="59.9538311" lon="17.7234612">
        <ele>50.6066</ele>
        <time>2012-09-20T17:52:51Z</time>
      </trkpt>
      <trkpt lat="59.9538517" lon="17.7234395">
        <ele>50.6066</ele>
        <time>2012-09-20T17:52:52Z</time>
      </trkpt>
      <trkpt lat="59.9538735" lon="17.723412">
        <ele>51.5679</ele>
        <time>2012-09-20T17:52:53Z</time>
      </trkpt>
      <trkpt lat="59.953901" lon="17.7233943">
        <ele>51.5679</ele>
        <time>2012-09-20T17:52:54Z</time>
      </trkpt>
      <trkpt lat="59.9539249" lon="17.7233763">
        <ele>52.0486</ele>
        <time>2012-09-20T17:52:55Z</time>
      </trkpt>
      <trkpt lat="59.953951" lon="17.7233597">
        <ele>52.5292</ele>
        <time>2012-09-20T17:52:56Z</time>
      </trkpt>
      <trkpt lat="59.9539788" lon="17.7233431">
        <ele>52.5292</ele>
        <time>2012-09-20T17:52:57Z</time>
      </trkpt>
      <trkpt lat="59.9540042" lon="17.7233342">
        <ele>53.0098</ele>
        <time>2012-09-20T17:52:58Z</time>
      </trkpt>
      <trkpt lat="59.9540269" lon="17.7233317">
        <ele>53.0098</ele>
        <time>2012-09-20T17:52:59Z</time>
      </trkpt>
      <trkpt lat="59.954046" lon="17.7233243">
        <ele>52.0486</ele>
        <time>2012-09-20T17:53:00Z</time>
      </trkpt>
      <trkpt lat="59.9540676" lon="17.7233132">
        <ele>52.5292</ele>
        <time>2012-09-20T17:53:01Z</time>
      </trkpt>
      <trkpt lat="59.9540926" lon="17.7233183">
        <ele>52.5292</ele>
        <time>2012-09-20T17:53:02Z</time>
      </trkpt>
      <trkpt lat="59.9541198" lon="17.7233239">
        <ele>52.5292</ele>
        <time>2012-09-20T17:53:03Z</time>
      </trkpt>
      <trkpt lat="59.9541462" lon="17.7233281">
        <ele>52.5292</ele>
        <time>2012-09-20T17:53:04Z</time>
      </trkpt>
      <trkpt lat="59.9541706" lon="17.7233275">
        <ele>52.0486</ele>
        <time>2012-09-20T17:53:05Z</time>
      </trkpt>
      <trkpt lat="59.9541981" lon="17.7233306">
        <ele>53.0098</ele>
        <time>2012-09-20T17:53:06Z</time>
      </trkpt>
      <trkpt lat="59.9542235" lon="17.7233364">
        <ele>53.0098</ele>
        <time>2012-09-20T17:53:07Z</time>
      </trkpt>
      <trkpt lat="59.9542524" lon="17.723342">
        <ele>52.5292</ele>
        <time>2012-09-20T17:53:08Z</time>
      </trkpt>
      <trkpt lat="59.954274" lon="17.7233421">
        <ele>51.5679</ele>
        <time>2012-09-20T17:53:09Z</time>
      </trkpt>
      <trkpt lat="59.9542964" lon="17.7233472">
        <ele>50.6066</ele>
        <time>2012-09-20T17:53:10Z</time>
      </trkpt>
      <trkpt lat="59.9543222" lon="17.723356">
        <ele>50.126</ele>
        <time>2012-09-20T17:53:11Z</time>
      </trkpt>
      <trkpt lat="59.9543507" lon="17.7233712">
        <ele>49.6453</ele>
        <time>2012-09-20T17:53:12Z</time>
      </trkpt>
      <trkpt lat="59.9543788" lon="17.7233892">
        <ele>48.684</ele>
        <time>2012-09-20T17:53:13Z</time>
      </trkpt>
      <trkpt lat="59.9544352" lon="17.7234228">
        <ele>50.126</ele>
        <time>2012-09-20T17:53:15Z</time>
      </trkpt>
      <trkpt lat="59.9544642" lon="17.7234355">
        <ele>49.6453</ele>
        <time>2012-09-20T17:53:16Z</time>
      </trkpt>
      <trkpt lat="59.9544943" lon="17.7234479">
        <ele>49.6453</ele>
        <time>2012-09-20T17:53:17Z</time>
      </trkpt>
      <trkpt lat="59.9545189" lon="17.7234531">
        <ele>49.6453</ele>
        <time>2012-09-20T17:53:18Z</time>
      </trkpt>
      <trkpt lat="59.954546" lon="17.7234478">
        <ele>49.6453</ele>
        <time>2012-09-20T17:53:19Z</time>
      </trkpt>
      <trkpt lat="59.9545773" lon="17.7234531">
        <ele>50.126</ele>
        <time>2012-09-20T17:53:20Z</time>
      </trkpt>
      <trkpt lat="59.9545996" lon="17.723472">
        <ele>49.6453</ele>
        <time>2012-09-20T17:53:21Z</time>
      </trkpt>
      <trkpt lat="59.9546252" lon="17.7234887">
        <ele>50.6066</ele>
        <time>2012-09-20T17:53:22Z</time>
      </trkpt>
      <trkpt lat="59.9546547" lon="17.7235082">
        <ele>52.0486</ele>
        <time>2012-09-20T17:53:23Z</time>
      </trkpt>
      <trkpt lat="59.9546777" lon="17.7235265">
        <ele>52.0486</ele>
        <time>2012-09-20T17:53:24Z</time>
      </trkpt>
      <trkpt lat="59.9546957" lon="17.7235447">
        <ele>51.5679</ele>
        <time>2012-09-20T17:53:25Z</time>
      </trkpt>
      <trkpt lat="59.9547199" lon="17.7235627">
        <ele>52.5292</ele>
        <time>2012-09-20T17:53:26Z</time>
      </trkpt>
      <trkpt lat="59.9547546" lon="17.7235803">
        <ele>54.4518</ele>
        <time>2012-09-20T17:53:27Z</time>
      </trkpt>
      <trkpt lat="59.9547875" lon="17.7236037">
        <ele>55.8938</ele>
        <time>2012-09-20T17:53:28Z</time>
      </trkpt>
      <trkpt lat="59.9548055" lon="17.7236168">
        <ele>55.4131</ele>
        <time>2012-09-20T17:53:29Z</time>
      </trkpt>
      <trkpt lat="59.9548273" lon="17.7236271">
        <ele>55.8938</ele>
        <time>2012-09-20T17:53:30Z</time>
      </trkpt>
      <trkpt lat="59.9548549" lon="17.7236478">
        <ele>56.3745</ele>
        <time>2012-09-20T17:53:31Z</time>
      </trkpt>
      <trkpt lat="59.9548801" lon="17.7236651">
        <ele>56.8551</ele>
        <time>2012-09-20T17:53:32Z</time>
      </trkpt>
      <trkpt lat="59.9548967" lon="17.7236797">
        <ele>56.3745</ele>
        <time>2012-09-20T17:53:33Z</time>
      </trkpt>
      <trkpt lat="59.9549189" lon="17.7236902">
        <ele>55.8938</ele>
        <time>2012-09-20T17:53:34Z</time>
      </trkpt>
      <trkpt lat="59.9549476" lon="17.7236986">
        <ele>56.3745</ele>
        <time>2012-09-20T17:53:35Z</time>
      </trkpt>
      <trkpt lat="59.9549734" lon="17.7236939">
        <ele>54.9324</ele>
        <time>2012-09-20T17:53:36Z</time>
      </trkpt>
      <trkpt lat="59.9549932" lon="17.7236884">
        <ele>54.4518</ele>
        <time>2012-09-20T17:53:37Z</time>
      </trkpt>
      <trkpt lat="59.9550114" lon="17.7236701">
        <ele>53.0098</ele>
        <time>2012-09-20T17:53:38Z</time>
      </trkpt>
      <trkpt lat="59.9550288" lon="17.7236625">
        <ele>53.0098</ele>
        <time>2012-09-20T17:53:39Z</time>
      </trkpt>
      <trkpt lat="59.955044" lon="17.7236539">
        <ele>53.0098</ele>
        <time>2012-09-20T17:53:40Z</time>
      </trkpt>
      <trkpt lat="59.9550629" lon="17.7236367">
        <ele>51.5679</ele>
        <time>2012-09-20T17:53:41Z</time>
      </trkpt>
      <trkpt lat="59.9550862" lon="17.7236173">
        <ele>50.6066</ele>
        <time>2012-09-20T17:53:42Z</time>
      </trkpt>
      <trkpt lat="59.955107" lon="17.7236043">
        <ele>50.6066</ele>
        <time>2012-09-20T17:53:43Z</time>
      </trkpt>
      <trkpt lat="59.955134" lon="17.7235866">
        <ele>50.6066</ele>
        <time>2012-09-20T17:53:44Z</time>
      </trkpt>
      <trkpt lat="59.9551547" lon="17.723569">
        <ele>51.0872</ele>
        <time>2012-09-20T17:53:45Z</time>
      </trkpt>
      <trkpt lat="59.9551718" lon="17.7235579">
        <ele>51.0872</ele>
        <time>2012-09-20T17:53:46Z</time>
      </trkpt>
      <trkpt lat="59.9551957" lon="17.7235343">
        <ele>49.6453</ele>
        <time>2012-09-20T17:53:47Z</time>
      </trkpt>
      <trkpt lat="59.9552236" lon="17.7235182">
        <ele>50.6066</ele>
        <time>2012-09-20T17:53:48Z</time>
      </trkpt>
      <trkpt lat="59.9552448" lon="17.7235011">
        <ele>50.6066</ele>
        <time>2012-09-20T17:53:49Z</time>
      </trkpt>
      <trkpt lat="59.9552717" lon="17.7234813">
        <ele>50.6066</ele>
        <time>2012-09-20T17:53:50Z</time>
      </trkpt>
      <trkpt lat="59.9552981" lon="17.7234616">
        <ele>50.6066</ele>
        <time>2012-09-20T17:53:51Z</time>
      </trkpt>
      <trkpt lat="59.9553267" lon="17.7234491">
        <ele>51.5679</ele>
        <time>2012-09-20T17:53:52Z</time>
      </trkpt>
      <trkpt lat="59.9553564" lon="17.7234427">
        <ele>52.5292</ele>
        <time>2012-09-20T17:53:53Z</time>
      </trkpt>
      <trkpt lat="59.9553845" lon="17.7234369">
        <ele>52.5292</ele>
        <time>2012-09-20T17:53:54Z</time>
      </trkpt>
      <trkpt lat="59.9554148" lon="17.7234405">
        <ele>52.5292</ele>
        <time>2012-09-20T17:53:55Z</time>
      </trkpt>
      <trkpt lat="59.9554424" lon="17.7234424">
        <ele>52.0486</ele>
        <time>2012-09-20T17:53:56Z</time>
      </trkpt>
      <trkpt lat="59.9554675" lon="17.7234452">
        <ele>52.5292</ele>
        <time>2012-09-20T17:53:57Z</time>
      </trkpt>
      <trkpt lat="59.9554923" lon="17.7234508">
        <ele>52.5292</ele>
        <time>2012-09-20T17:53:58Z</time>
      </trkpt>
      <trkpt lat="59.9555168" lon="17.7234607">
        <ele>52.5292</ele>
        <time>2012-09-20T17:53:59Z</time>
      </trkpt>
      <trkpt lat="59.9555436" lon="17.7234709">
        <ele>52.5292</ele>
        <time>2012-09-20T17:54:00Z</time>
      </trkpt>
      <trkpt lat="59.9555701" lon="17.7234849">
        <ele>52.5292</ele>
        <time>2012-09-20T17:54:01Z</time>
      </trkpt>
      <trkpt lat="59.9555895" lon="17.7235035">
        <ele>51.5679</ele>
        <time>2012-09-20T17:54:02Z</time>
      </trkpt>
      <trkpt lat="59.9556127" lon="17.7235186">
        <ele>51.5679</ele>
        <time>2012-09-20T17:54:03Z</time>
      </trkpt>
      <trkpt lat="59.9556333" lon="17.7235396">
        <ele>51.0872</ele>
        <time>2012-09-20T17:54:04Z</time>
      </trkpt>
      <trkpt lat="59.9556634" lon="17.7235658">
        <ele>51.5679</ele>
        <time>2012-09-20T17:54:05Z</time>
      </trkpt>
      <trkpt lat="59.9556903" lon="17.7235869">
        <ele>51.0872</ele>
        <time>2012-09-20T17:54:06Z</time>
      </trkpt>
      <trkpt lat="59.9557111" lon="17.7236104">
        <ele>52.0486</ele>
        <time>2012-09-20T17:54:07Z</time>
      </trkpt>
      <trkpt lat="59.9557278" lon="17.7236228">
        <ele>52.0486</ele>
        <time>2012-09-20T17:54:08Z</time>
      </trkpt>
      <trkpt lat="59.9557406" lon="17.7236332">
        <ele>51.0872</ele>
        <time>2012-09-20T17:54:09Z</time>
      </trkpt>
      <trkpt lat="59.9557546" lon="17.7236523">
        <ele>51.0872</ele>
        <time>2012-09-20T17:54:10Z</time>
      </trkpt>
      <trkpt lat="59.9557675" lon="17.7236782">
        <ele>51.0872</ele>
        <time>2012-09-20T17:54:11Z</time>
      </trkpt>
      <trkpt lat="59.9557879" lon="17.7237051">
        <ele>51.0872</ele>
        <time>2012-09-20T17:54:12Z</time>
      </trkpt>
      <trkpt lat="59.95581" lon="17.7237234">
        <ele>50.6066</ele>
        <time>2012-09-20T17:54:13Z</time>
      </trkpt>
      <trkpt lat="59.95583" lon="17.7237247">
        <ele>50.6066</ele>
        <time>2012-09-20T17:54:14Z</time>
      </trkpt>
      <trkpt lat="59.9558484" lon="17.7237139">
        <ele>49.6453</ele>
        <time>2012-09-20T17:54:15Z</time>
      </trkpt>
      <trkpt lat="59.9558721" lon="17.7236932">
        <ele>49.1646</ele>
        <time>2012-09-20T17:54:16Z</time>
      </trkpt>
      <trkpt lat="59.9558969" lon="17.7236678">
        <ele>49.1646</ele>
        <time>2012-09-20T17:54:17Z</time>
      </trkpt>
      <trkpt lat="59.9559169" lon="17.7236357">
        <ele>49.1646</ele>
        <time>2012-09-20T17:54:18Z</time>
      </trkpt>
      <trkpt lat="59.9559333" lon="17.7236027">
        <ele>49.1646</ele>
        <time>2012-09-20T17:54:19Z</time>
      </trkpt>
      <trkpt lat="59.9559528" lon="17.7235776">
        <ele>48.2034</ele>
        <time>2012-09-20T17:54:20Z</time>
      </trkpt>
      <trkpt lat="59.9559668" lon="17.7235478">
        <ele>47.7225</ele>
        <time>2012-09-20T17:54:21Z</time>
      </trkpt>
      <trkpt lat="59.9559824" lon="17.7235084">
        <ele>47.2418</ele>
        <time>2012-09-20T17:54:22Z</time>
      </trkpt>
      <trkpt lat="59.955999" lon="17.7234732">
        <ele>47.2418</ele>
        <time>2012-09-20T17:54:23Z</time>
      </trkpt>
      <trkpt lat="59.95601" lon="17.7234322">
        <ele>46.2806</ele>
        <time>2012-09-20T17:54:24Z</time>
      </trkpt>
      <trkpt lat="59.9560239" lon="17.7233864">
        <ele>46.2806</ele>
        <time>2012-09-20T17:54:25Z</time>
      </trkpt>
      <trkpt lat="59.9560328" lon="17.7233348">
        <ele>45.7999</ele>
        <time>2012-09-20T17:54:26Z</time>
      </trkpt>
      <trkpt lat="59.9560409" lon="17.723282">
        <ele>45.3192</ele>
        <time>2012-09-20T17:54:27Z</time>
      </trkpt>
      <trkpt lat="59.9560492" lon="17.7232359">
        <ele>44.8386</ele>
        <time>2012-09-20T17:54:28Z</time>
      </trkpt>
      <trkpt lat="59.9560565" lon="17.7231935">
        <ele>43.8773</ele>
        <time>2012-09-20T17:54:29Z</time>
      </trkpt>
      <trkpt lat="59.9560634" lon="17.7231566">
        <ele>43.8773</ele>
        <time>2012-09-20T17:54:30Z</time>
      </trkpt>
      <trkpt lat="59.9560705" lon="17.7231163">
        <ele>43.8773</ele>
        <time>2012-09-20T17:54:31Z</time>
      </trkpt>
      <trkpt lat="59.9560654" lon="17.7230624">
        <ele>43.8773</ele>
        <time>2012-09-20T17:54:32Z</time>
      </trkpt>
      <trkpt lat="59.9560655" lon="17.723026">
        <ele>43.3966</ele>
        <time>2012-09-20T17:54:33Z</time>
      </trkpt>
      <trkpt lat="59.9560628" lon="17.7229858">
        <ele>42.916</ele>
        <time>2012-09-20T17:54:34Z</time>
      </trkpt>
      <trkpt lat="59.9560593" lon="17.7229542">
        <ele>43.3966</ele>
        <time>2012-09-20T17:54:35Z</time>
      </trkpt>
      <trkpt lat="59.9560548" lon="17.7229112">
        <ele>43.3966</ele>
        <time>2012-09-20T17:54:36Z</time>
      </trkpt>
      <trkpt lat="59.956053" lon="17.7228715">
        <ele>42.4354</ele>
        <time>2012-09-20T17:54:37Z</time>
      </trkpt>
      <trkpt lat="59.9560447" lon="17.7228107">
        <ele>42.4354</ele>
        <time>2012-09-20T17:54:38Z</time>
      </trkpt>
      <trkpt lat="59.9560352" lon="17.7227508">
        <ele>42.4354</ele>
        <time>2012-09-20T17:54:39Z</time>
      </trkpt>
      <trkpt lat="59.9560271" lon="17.7226963">
        <ele>41.9547</ele>
        <time>2012-09-20T17:54:40Z</time>
      </trkpt>
      <trkpt lat="59.9560165" lon="17.722634">
        <ele>42.4354</ele>
        <time>2012-09-20T17:54:41Z</time>
      </trkpt>
      <trkpt lat="59.9560094" lon="17.7225785">
        <ele>41.9547</ele>
        <time>2012-09-20T17:54:42Z</time>
      </trkpt>
      <trkpt lat="59.9560006" lon="17.72252">
        <ele>41.9547</ele>
        <time>2012-09-20T17:54:43Z</time>
      </trkpt>
      <trkpt lat="59.9559903" lon="17.7224589">
        <ele>41.474</ele>
        <time>2012-09-20T17:54:44Z</time>
      </trkpt>
      <trkpt lat="59.9559808" lon="17.722397">
        <ele>41.474</ele>
        <time>2012-09-20T17:54:45Z</time>
      </trkpt>
      <trkpt lat="59.9559711" lon="17.7223428">
        <ele>40.9934</ele>
        <time>2012-09-20T17:54:46Z</time>
      </trkpt>
      <trkpt lat="59.9559674" lon="17.7222969">
        <ele>41.474</ele>
        <time>2012-09-20T17:54:47Z</time>
      </trkpt>
      <trkpt lat="59.9559635" lon="17.722245">
        <ele>40.9934</ele>
        <time>2012-09-20T17:54:48Z</time>
      </trkpt>
      <trkpt lat="59.9559516" lon="17.7221793">
        <ele>40.9934</ele>
        <time>2012-09-20T17:54:49Z</time>
      </trkpt>
      <trkpt lat="59.9559443" lon="17.7221196">
        <ele>40.9934</ele>
        <time>2012-09-20T17:54:50Z</time>
      </trkpt>
      <trkpt lat="59.9559365" lon="17.7220584">
        <ele>40.9934</ele>
        <time>2012-09-20T17:54:51Z</time>
      </trkpt>
      <trkpt lat="59.955928" lon="17.7219937">
        <ele>41.474</ele>
        <time>2012-09-20T17:54:52Z</time>
      </trkpt>
      <trkpt lat="59.9559267" lon="17.721929">
        <ele>41.9547</ele>
        <time>2012-09-20T17:54:53Z</time>
      </trkpt>
      <trkpt lat="59.9559209" lon="17.7218548">
        <ele>41.474</ele>
        <time>2012-09-20T17:54:54Z</time>
      </trkpt>
      <trkpt lat="59.9559162" lon="17.7217949">
        <ele>41.474</ele>
        <time>2012-09-20T17:54:55Z</time>
      </trkpt>
      <trkpt lat="59.9559202" lon="17.7217488">
        <ele>41.9547</ele>
        <time>2012-09-20T17:54:56Z</time>
      </trkpt>
      <trkpt lat="59.9559283" lon="17.721697">
        <ele>42.4354</ele>
        <time>2012-09-20T17:54:57Z</time>
      </trkpt>
      <trkpt lat="59.95594" lon="17.7216513">
        <ele>42.4354</ele>
        <time>2012-09-20T17:54:58Z</time>
      </trkpt>
      <trkpt lat="59.9559561" lon="17.7216093">
        <ele>42.916</ele>
        <time>2012-09-20T17:54:59Z</time>
      </trkpt>
      <trkpt lat="59.9559666" lon="17.7215717">
        <ele>42.4354</ele>
        <time>2012-09-20T17:55:00Z</time>
      </trkpt>
      <trkpt lat="59.9559788" lon="17.7215261">
        <ele>42.916</ele>
        <time>2012-09-20T17:55:01Z</time>
      </trkpt>
      <trkpt lat="59.9559892" lon="17.7214776">
        <ele>42.916</ele>
        <time>2012-09-20T17:55:02Z</time>
      </trkpt>
      <trkpt lat="59.9559928" lon="17.7214358">
        <ele>43.3966</ele>
        <time>2012-09-20T17:55:03Z</time>
      </trkpt>
      <trkpt lat="59.955988" lon="17.7214031">
        <ele>42.916</ele>
        <time>2012-09-20T17:55:04Z</time>
      </trkpt>
      <trkpt lat="59.955967" lon="17.7213476">
        <ele>42.4354</ele>
        <time>2012-09-20T17:55:05Z</time>
      </trkpt>
      <trkpt lat="59.9559513" lon="17.7213036">
        <ele>42.4354</ele>
        <time>2012-09-20T17:55:06Z</time>
      </trkpt>
      <trkpt lat="59.95593" lon="17.7212602">
        <ele>41.9547</ele>
        <time>2012-09-20T17:55:07Z</time>
      </trkpt>
      <trkpt lat="59.9559038" lon="17.7212219">
        <ele>40.9934</ele>
        <time>2012-09-20T17:55:08Z</time>
      </trkpt>
      <trkpt lat="59.9558783" lon="17.7211955">
        <ele>40.5128</ele>
        <time>2012-09-20T17:55:09Z</time>
      </trkpt>
      <trkpt lat="59.9558505" lon="17.7211675">
        <ele>39.5513</ele>
        <time>2012-09-20T17:55:10Z</time>
      </trkpt>
      <trkpt lat="59.9558234" lon="17.721154">
        <ele>39.0707</ele>
        <time>2012-09-20T17:55:11Z</time>
      </trkpt>
      <trkpt lat="59.9557933" lon="17.7211614">
        <ele>38.1094</ele>
        <time>2012-09-20T17:55:12Z</time>
      </trkpt>
      <trkpt lat="59.9557691" lon="17.7211489">
        <ele>37.6287</ele>
        <time>2012-09-20T17:55:13Z</time>
      </trkpt>
      <trkpt lat="59.9557417" lon="17.7211395">
        <ele>37.6287</ele>
        <time>2012-09-20T17:55:14Z</time>
      </trkpt>
      <trkpt lat="59.9557202" lon="17.7211518">
        <ele>38.1094</ele>
        <time>2012-09-20T17:55:15Z</time>
      </trkpt>
      <trkpt lat="59.9557038" lon="17.7211634">
        <ele>37.6287</ele>
        <time>2012-09-20T17:55:16Z</time>
      </trkpt>
      <trkpt lat="59.9556838" lon="17.7211778">
        <ele>37.1481</ele>
        <time>2012-09-20T17:55:17Z</time>
      </trkpt>
      <trkpt lat="59.9556576" lon="17.7212004">
        <ele>36.1868</ele>
        <time>2012-09-20T17:55:18Z</time>
      </trkpt>
      <trkpt lat="59.9556304" lon="17.7212364">
        <ele>35.7061</ele>
        <time>2012-09-20T17:55:19Z</time>
      </trkpt>
      <trkpt lat="59.9556038" lon="17.7212621">
        <ele>33.7834</ele>
        <time>2012-09-20T17:55:20Z</time>
      </trkpt>
      <trkpt lat="59.9555752" lon="17.721298">
        <ele>32.3416</ele>
        <time>2012-09-20T17:55:21Z</time>
      </trkpt>
      <trkpt lat="59.9555436" lon="17.721336">
        <ele>32.3416</ele>
        <time>2012-09-20T17:55:22Z</time>
      </trkpt>
      <trkpt lat="59.9555164" lon="17.7213502">
        <ele>31.8607</ele>
        <time>2012-09-20T17:55:23Z</time>
      </trkpt>
      <trkpt lat="59.9554925" lon="17.7213524">
        <ele>31.3801</ele>
        <time>2012-09-20T17:55:24Z</time>
      </trkpt>
      <trkpt lat="59.9554683" lon="17.7213642">
        <ele>32.8223</ele>
        <time>2012-09-20T17:55:25Z</time>
      </trkpt>
      <trkpt lat="59.9554374" lon="17.7213726">
        <ele>33.3029</ele>
        <time>2012-09-20T17:55:26Z</time>
      </trkpt>
      <trkpt lat="59.9554075" lon="17.7213851">
        <ele>34.2642</ele>
        <time>2012-09-20T17:55:27Z</time>
      </trkpt>
      <trkpt lat="59.955391" lon="17.7213789">
        <ele>34.2642</ele>
        <time>2012-09-20T17:55:28Z</time>
      </trkpt>
      <trkpt lat="59.9553754" lon="17.7213561">
        <ele>33.7834</ele>
        <time>2012-09-20T17:55:29Z</time>
      </trkpt>
      <trkpt lat="59.9553509" lon="17.7213396">
        <ele>33.3029</ele>
        <time>2012-09-20T17:55:30Z</time>
      </trkpt>
      <trkpt lat="59.9553268" lon="17.7213296">
        <ele>34.2642</ele>
        <time>2012-09-20T17:55:31Z</time>
      </trkpt>
      <trkpt lat="59.9553013" lon="17.7213157">
        <ele>34.7449</ele>
        <time>2012-09-20T17:55:32Z</time>
      </trkpt>
      <trkpt lat="59.9552737" lon="17.7212996">
        <ele>34.7449</ele>
        <time>2012-09-20T17:55:33Z</time>
      </trkpt>
      <trkpt lat="59.9552494" lon="17.7212925">
        <ele>35.2255</ele>
        <time>2012-09-20T17:55:34Z</time>
      </trkpt>
      <trkpt lat="59.9552268" lon="17.7212992">
        <ele>34.7449</ele>
        <time>2012-09-20T17:55:35Z</time>
      </trkpt>
      <trkpt lat="59.9552007" lon="17.721303">
        <ele>34.2642</ele>
        <time>2012-09-20T17:55:36Z</time>
      </trkpt>
      <trkpt lat="59.9551765" lon="17.7212942">
        <ele>34.2642</ele>
        <time>2012-09-20T17:55:37Z</time>
      </trkpt>
      <trkpt lat="59.9551571" lon="17.7212792">
        <ele>33.7834</ele>
        <time>2012-09-20T17:55:38Z</time>
      </trkpt>
      <trkpt lat="59.9551403" lon="17.7212642">
        <ele>33.3029</ele>
        <time>2012-09-20T17:55:39Z</time>
      </trkpt>
      <trkpt lat="59.9551216" lon="17.7212571">
        <ele>32.8223</ele>
        <time>2012-09-20T17:55:40Z</time>
      </trkpt>
      <trkpt lat="59.9551049" lon="17.7212611">
        <ele>34.2642</ele>
        <time>2012-09-20T17:55:41Z</time>
      </trkpt>
      <trkpt lat="59.9550829" lon="17.721269">
        <ele>36.1868</ele>
        <time>2012-09-20T17:55:42Z</time>
      </trkpt>
      <trkpt lat="59.9550603" lon="17.721267">
        <ele>36.1868</ele>
        <time>2012-09-20T17:55:43Z</time>
      </trkpt>
      <trkpt lat="59.9550305" lon="17.7212618">
        <ele>35.7061</ele>
        <time>2012-09-20T17:55:44Z</time>
      </trkpt>
      <trkpt lat="59.9550059" lon="17.7212534">
        <ele>35.7061</ele>
        <time>2012-09-20T17:55:45Z</time>
      </trkpt>
      <trkpt lat="59.9549813" lon="17.7212465">
        <ele>35.2255</ele>
        <time>2012-09-20T17:55:46Z</time>
      </trkpt>
      <trkpt lat="59.9549507" lon="17.7212528">
        <ele>37.1481</ele>
        <time>2012-09-20T17:55:47Z</time>
      </trkpt>
      <trkpt lat="59.9549206" lon="17.7212447">
        <ele>38.1094</ele>
        <time>2012-09-20T17:55:48Z</time>
      </trkpt>
      <trkpt lat="59.9548901" lon="17.7212373">
        <ele>38.5901</ele>
        <time>2012-09-20T17:55:49Z</time>
      </trkpt>
      <trkpt lat="59.9548615" lon="17.7212197">
        <ele>39.5513</ele>
        <time>2012-09-20T17:55:50Z</time>
      </trkpt>
      <trkpt lat="59.9548355" lon="17.7211992">
        <ele>39.5513</ele>
        <time>2012-09-20T17:55:51Z</time>
      </trkpt>
      <trkpt lat="59.9548101" lon="17.7211743">
        <ele>39.5513</ele>
        <time>2012-09-20T17:55:52Z</time>
      </trkpt>
      <trkpt lat="59.9547886" lon="17.7211414">
        <ele>40.5128</ele>
        <time>2012-09-20T17:55:53Z</time>
      </trkpt>
      <trkpt lat="59.9547695" lon="17.7210939">
        <ele>40.5128</ele>
        <time>2012-09-20T17:55:54Z</time>
      </trkpt>
      <trkpt lat="59.9547604" lon="17.721034">
        <ele>40.5128</ele>
        <time>2012-09-20T17:55:55Z</time>
      </trkpt>
      <trkpt lat="59.9547565" lon="17.7209707">
        <ele>40.5128</ele>
        <time>2012-09-20T17:55:56Z</time>
      </trkpt>
      <trkpt lat="59.9547572" lon="17.720913">
        <ele>41.474</ele>
        <time>2012-09-20T17:55:57Z</time>
      </trkpt>
      <trkpt lat="59.9547617" lon="17.7208651">
        <ele>41.9547</ele>
        <time>2012-09-20T17:55:58Z</time>
      </trkpt>
      <trkpt lat="59.9547682" lon="17.7208147">
        <ele>42.4354</ele>
        <time>2012-09-20T17:55:59Z</time>
      </trkpt>
      <trkpt lat="59.9547709" lon="17.7207635">
        <ele>43.3966</ele>
        <time>2012-09-20T17:56:00Z</time>
      </trkpt>
      <trkpt lat="59.9547791" lon="17.7207106">
        <ele>43.8773</ele>
        <time>2012-09-20T17:56:01Z</time>
      </trkpt>
      <trkpt lat="59.9547928" lon="17.7206681">
        <ele>43.8773</ele>
        <time>2012-09-20T17:56:02Z</time>
      </trkpt>
      <trkpt lat="59.9548061" lon="17.7206337">
        <ele>44.358</ele>
        <time>2012-09-20T17:56:03Z</time>
      </trkpt>
      <trkpt lat="59.9548201" lon="17.7205957">
        <ele>45.3192</ele>
        <time>2012-09-20T17:56:04Z</time>
      </trkpt>
      <trkpt lat="59.9548372" lon="17.7205608">
        <ele>45.3192</ele>
        <time>2012-09-20T17:56:05Z</time>
      </trkpt>
      <trkpt lat="59.9548538" lon="17.7205282">
        <ele>46.2806</ele>
        <time>2012-09-20T17:56:06Z</time>
      </trkpt>
      <trkpt lat="59.9548704" lon="17.7205044">
        <ele>46.7612</ele>
        <time>2012-09-20T17:56:07Z</time>
      </trkpt>
      <trkpt lat="59.9548826" lon="17.7204758">
        <ele>47.7225</ele>
        <time>2012-09-20T17:56:08Z</time>
      </trkpt>
      <trkpt lat="59.9548947" lon="17.7204494">
        <ele>48.684</ele>
        <time>2012-09-20T17:56:09Z</time>
      </trkpt>
      <trkpt lat="59.9549117" lon="17.7204344">
        <ele>48.684</ele>
        <time>2012-09-20T17:56:10Z</time>
      </trkpt>
      <trkpt lat="59.9549306" lon="17.7204154">
        <ele>48.684</ele>
        <time>2012-09-20T17:56:11Z</time>
      </trkpt>
      <trkpt lat="59.954959" lon="17.7203955">
        <ele>49.6453</ele>
        <time>2012-09-20T17:56:12Z</time>
      </trkpt>
      <trkpt lat="59.954992" lon="17.7203734">
        <ele>50.6066</ele>
        <time>2012-09-20T17:56:13Z</time>
      </trkpt>
      <trkpt lat="59.9550154" lon="17.720348">
        <ele>51.0872</ele>
        <time>2012-09-20T17:56:14Z</time>
      </trkpt>
      <trkpt lat="59.955037" lon="17.7203252">
        <ele>51.5679</ele>
        <time>2012-09-20T17:56:15Z</time>
      </trkpt>
      <trkpt lat="59.9550616" lon="17.7203071">
        <ele>51.5679</ele>
        <time>2012-09-20T17:56:16Z</time>
      </trkpt>
      <trkpt lat="59.9550865" lon="17.7202837">
        <ele>51.0872</ele>
        <time>2012-09-20T17:56:17Z</time>
      </trkpt>
      <trkpt lat="59.9551071" lon="17.7202557">
        <ele>51.5679</ele>
        <time>2012-09-20T17:56:18Z</time>
      </trkpt>
      <trkpt lat="59.9551262" lon="17.7202257">
        <ele>52.0486</ele>
        <time>2012-09-20T17:56:19Z</time>
      </trkpt>
      <trkpt lat="59.9551437" lon="17.720202">
        <ele>52.0486</ele>
        <time>2012-09-20T17:56:20Z</time>
      </trkpt>
      <trkpt lat="59.955163" lon="17.720176">
        <ele>52.0486</ele>
        <time>2012-09-20T17:56:21Z</time>
      </trkpt>
      <trkpt lat="59.9551791" lon="17.720147">
        <ele>52.5292</ele>
        <time>2012-09-20T17:56:22Z</time>
      </trkpt>
      <trkpt lat="59.9551882" lon="17.7201263">
        <ele>52.0486</ele>
        <time>2012-09-20T17:56:23Z</time>
      </trkpt>
      <trkpt lat="59.9552024" lon="17.7201062">
        <ele>52.5292</ele>
        <time>2012-09-20T17:56:24Z</time>
      </trkpt>
      <trkpt lat="59.9552224" lon="17.7200858">
        <ele>53.0098</ele>
        <time>2012-09-20T17:56:25Z</time>
      </trkpt>
      <trkpt lat="59.9552444" lon="17.7200582">
        <ele>53.4905</ele>
        <time>2012-09-20T17:56:26Z</time>
      </trkpt>
      <trkpt lat="59.9552659" lon="17.7200332">
        <ele>53.9712</ele>
        <time>2012-09-20T17:56:27Z</time>
      </trkpt>
      <trkpt lat="59.9552874" lon="17.7200097">
        <ele>53.9712</ele>
        <time>2012-09-20T17:56:28Z</time>
      </trkpt>
      <trkpt lat="59.9553112" lon="17.719986">
        <ele>54.9324</ele>
        <time>2012-09-20T17:56:29Z</time>
      </trkpt>
      <trkpt lat="59.9553298" lon="17.7199624">
        <ele>55.4131</ele>
        <time>2012-09-20T17:56:30Z</time>
      </trkpt>
      <trkpt lat="59.9553467" lon="17.7199383">
        <ele>55.4131</ele>
        <time>2012-09-20T17:56:31Z</time>
      </trkpt>
      <trkpt lat="59.9553635" lon="17.7199151">
        <ele>55.8938</ele>
        <time>2012-09-20T17:56:32Z</time>
      </trkpt>
      <trkpt lat="59.9553866" lon="17.7198963">
        <ele>56.3745</ele>
        <time>2012-09-20T17:56:33Z</time>
      </trkpt>
      <trkpt lat="59.9554064" lon="17.7198857">
        <ele>55.4131</ele>
        <time>2012-09-20T17:56:34Z</time>
      </trkpt>
      <trkpt lat="59.9554288" lon="17.7198756">
        <ele>55.4131</ele>
        <time>2012-09-20T17:56:35Z</time>
      </trkpt>
      <trkpt lat="59.9554536" lon="17.7198674">
        <ele>55.8938</ele>
        <time>2012-09-20T17:56:36Z</time>
      </trkpt>
      <trkpt lat="59.9554789" lon="17.7198585">
        <ele>55.8938</ele>
        <time>2012-09-20T17:56:37Z</time>
      </trkpt>
      <trkpt lat="59.9555039" lon="17.7198539">
        <ele>55.8938</ele>
        <time>2012-09-20T17:56:38Z</time>
      </trkpt>
      <trkpt lat="59.9555299" lon="17.7198484">
        <ele>55.8938</ele>
        <time>2012-09-20T17:56:39Z</time>
      </trkpt>
      <trkpt lat="59.9555568" lon="17.7198282">
        <ele>55.8938</ele>
        <time>2012-09-20T17:56:40Z</time>
      </trkpt>
      <trkpt lat="59.9555867" lon="17.7198097">
        <ele>56.3745</ele>
        <time>2012-09-20T17:56:41Z</time>
      </trkpt>
      <trkpt lat="59.9556184" lon="17.7197829">
        <ele>55.8938</ele>
        <time>2012-09-20T17:56:42Z</time>
      </trkpt>
      <trkpt lat="59.9556443" lon="17.719755">
        <ele>55.4131</ele>
        <time>2012-09-20T17:56:43Z</time>
      </trkpt>
      <trkpt lat="59.9556705" lon="17.7197248">
        <ele>54.9324</ele>
        <time>2012-09-20T17:56:44Z</time>
      </trkpt>
      <trkpt lat="59.9556977" lon="17.7196964">
        <ele>54.4518</ele>
        <time>2012-09-20T17:56:45Z</time>
      </trkpt>
      <trkpt lat="59.9557242" lon="17.7196685">
        <ele>54.4518</ele>
        <time>2012-09-20T17:56:46Z</time>
      </trkpt>
      <trkpt lat="59.9557485" lon="17.7196485">
        <ele>53.9712</ele>
        <time>2012-09-20T17:56:47Z</time>
      </trkpt>
      <trkpt lat="59.9557696" lon="17.7196293">
        <ele>53.9712</ele>
        <time>2012-09-20T17:56:48Z</time>
      </trkpt>
      <trkpt lat="59.9557861" lon="17.719612">
        <ele>53.4905</ele>
        <time>2012-09-20T17:56:49Z</time>
      </trkpt>
      <trkpt lat="59.9558053" lon="17.7195869">
        <ele>53.9712</ele>
        <time>2012-09-20T17:56:50Z</time>
      </trkpt>
      <trkpt lat="59.9558311" lon="17.7195565">
        <ele>54.9324</ele>
        <time>2012-09-20T17:56:51Z</time>
      </trkpt>
      <trkpt lat="59.9558533" lon="17.7195262">
        <ele>54.4518</ele>
        <time>2012-09-20T17:56:52Z</time>
      </trkpt>
      <trkpt lat="59.9558779" lon="17.7194967">
        <ele>54.4518</ele>
        <time>2012-09-20T17:56:53Z</time>
      </trkpt>
      <trkpt lat="59.9559042" lon="17.7194746">
        <ele>54.4518</ele>
        <time>2012-09-20T17:56:54Z</time>
      </trkpt>
      <trkpt lat="59.955926" lon="17.7194553">
        <ele>53.0098</ele>
        <time>2012-09-20T17:56:55Z</time>
      </trkpt>
      <trkpt lat="59.9559483" lon="17.7194292">
        <ele>52.5292</ele>
        <time>2012-09-20T17:56:56Z</time>
      </trkpt>
      <trkpt lat="59.9559714" lon="17.7194113">
        <ele>52.5292</ele>
        <time>2012-09-20T17:56:57Z</time>
      </trkpt>
      <trkpt lat="59.9559965" lon="17.7193849">
        <ele>53.0098</ele>
        <time>2012-09-20T17:56:58Z</time>
      </trkpt>
      <trkpt lat="59.9560207" lon="17.7193539">
        <ele>52.5292</ele>
        <time>2012-09-20T17:56:59Z</time>
      </trkpt>
      <trkpt lat="59.9560467" lon="17.7193265">
        <ele>52.5292</ele>
        <time>2012-09-20T17:57:00Z</time>
      </trkpt>
      <trkpt lat="59.9560691" lon="17.7193011">
        <ele>52.0486</ele>
        <time>2012-09-20T17:57:01Z</time>
      </trkpt>
      <trkpt lat="59.9560906" lon="17.7192735">
        <ele>52.0486</ele>
        <time>2012-09-20T17:57:02Z</time>
      </trkpt>
      <trkpt lat="59.9561115" lon="17.7192523">
        <ele>52.5292</ele>
        <time>2012-09-20T17:57:03Z</time>
      </trkpt>
      <trkpt lat="59.956137" lon="17.7192275">
        <ele>52.5292</ele>
        <time>2012-09-20T17:57:04Z</time>
      </trkpt>
      <trkpt lat="59.9561565" lon="17.7192051">
        <ele>51.5679</ele>
        <time>2012-09-20T17:57:05Z</time>
      </trkpt>
      <trkpt lat="59.9561736" lon="17.7191794">
        <ele>51.0872</ele>
        <time>2012-09-20T17:57:06Z</time>
      </trkpt>
      <trkpt lat="59.9561892" lon="17.7191492">
        <ele>50.6066</ele>
        <time>2012-09-20T17:57:07Z</time>
      </trkpt>
      <trkpt lat="59.956202" lon="17.7191168">
        <ele>50.126</ele>
        <time>2012-09-20T17:57:08Z</time>
      </trkpt>
      <trkpt lat="59.9562084" lon="17.7190798">
        <ele>50.126</ele>
        <time>2012-09-20T17:57:09Z</time>
      </trkpt>
      <trkpt lat="59.9562156" lon="17.7190385">
        <ele>50.126</ele>
        <time>2012-09-20T17:57:10Z</time>
      </trkpt>
      <trkpt lat="59.9562227" lon="17.7189892">
        <ele>50.126</ele>
        <time>2012-09-20T17:57:11Z</time>
      </trkpt>
      <trkpt lat="59.9562307" lon="17.7189404">
        <ele>49.6453</ele>
        <time>2012-09-20T17:57:12Z</time>
      </trkpt>
      <trkpt lat="59.95624" lon="17.7189027">
        <ele>49.1646</ele>
        <time>2012-09-20T17:57:13Z</time>
      </trkpt>
      <trkpt lat="59.9562473" lon="17.7188614">
        <ele>49.1646</ele>
        <time>2012-09-20T17:57:14Z</time>
      </trkpt>
      <trkpt lat="59.9562524" lon="17.7188091">
        <ele>48.684</ele>
        <time>2012-09-20T17:57:15Z</time>
      </trkpt>
      <trkpt lat="59.9562571" lon="17.7187541">
        <ele>48.684</ele>
        <time>2012-09-20T17:57:16Z</time>
      </trkpt>
      <trkpt lat="59.9562519" lon="17.7186924">
        <ele>47.7225</ele>
        <time>2012-09-20T17:57:17Z</time>
      </trkpt>
      <trkpt lat="59.9562467" lon="17.7186495">
        <ele>47.2418</ele>
        <time>2012-09-20T17:57:18Z</time>
      </trkpt>
      <trkpt lat="59.9562312" lon="17.7185863">
        <ele>47.2418</ele>
        <time>2012-09-20T17:57:19Z</time>
      </trkpt>
      <trkpt lat="59.9562137" lon="17.7185193">
        <ele>47.7225</ele>
        <time>2012-09-20T17:57:20Z</time>
      </trkpt>
      <trkpt lat="59.956193" lon="17.71845">
        <ele>47.2418</ele>
        <time>2012-09-20T17:57:21Z</time>
      </trkpt>
      <trkpt lat="59.9561711" lon="17.7183841">
        <ele>47.2418</ele>
        <time>2012-09-20T17:57:22Z</time>
      </trkpt>
      <trkpt lat="59.9561484" lon="17.7183198">
        <ele>47.2418</ele>
        <time>2012-09-20T17:57:23Z</time>
      </trkpt>
      <trkpt lat="59.9561302" lon="17.7182573">
        <ele>47.2418</ele>
        <time>2012-09-20T17:57:24Z</time>
      </trkpt>
      <trkpt lat="59.9561088" lon="17.7182024">
        <ele>46.7612</ele>
        <time>2012-09-20T17:57:25Z</time>
      </trkpt>
      <trkpt lat="59.9560928" lon="17.7181559">
        <ele>46.7612</ele>
        <time>2012-09-20T17:57:26Z</time>
      </trkpt>
      <trkpt lat="59.9560727" lon="17.7181061">
        <ele>46.2806</ele>
        <time>2012-09-20T17:57:27Z</time>
      </trkpt>
      <trkpt lat="59.9560474" lon="17.7180531">
        <ele>46.2806</ele>
        <time>2012-09-20T17:57:28Z</time>
      </trkpt>
      <trkpt lat="59.9560295" lon="17.7180092">
        <ele>46.7612</ele>
        <time>2012-09-20T17:57:29Z</time>
      </trkpt>
      <trkpt lat="59.9560167" lon="17.7179709">
        <ele>46.7612</ele>
        <time>2012-09-20T17:57:30Z</time>
      </trkpt>
      <trkpt lat="59.9559963" lon="17.7179232">
        <ele>46.7612</ele>
        <time>2012-09-20T17:57:31Z</time>
      </trkpt>
      <trkpt lat="59.9559816" lon="17.7178951">
        <ele>47.2418</ele>
        <time>2012-09-20T17:57:32Z</time>
      </trkpt>
      <trkpt lat="59.9559628" lon="17.7178572">
        <ele>47.7225</ele>
        <time>2012-09-20T17:57:33Z</time>
      </trkpt>
      <trkpt lat="59.9559432" lon="17.7178127">
        <ele>47.2418</ele>
        <time>2012-09-20T17:57:34Z</time>
      </trkpt>
      <trkpt lat="59.9559204" lon="17.7177586">
        <ele>46.7612</ele>
        <time>2012-09-20T17:57:35Z</time>
      </trkpt>
      <trkpt lat="59.9558989" lon="17.7177096">
        <ele>47.2418</ele>
        <time>2012-09-20T17:57:36Z</time>
      </trkpt>
      <trkpt lat="59.9558779" lon="17.717669">
        <ele>47.7225</ele>
        <time>2012-09-20T17:57:37Z</time>
      </trkpt>
      <trkpt lat="59.9558582" lon="17.7176363">
        <ele>48.2034</ele>
        <time>2012-09-20T17:57:38Z</time>
      </trkpt>
      <trkpt lat="59.9558426" lon="17.7176013">
        <ele>47.7225</ele>
        <time>2012-09-20T17:57:39Z</time>
      </trkpt>
      <trkpt lat="59.9558278" lon="17.7175633">
        <ele>47.7225</ele>
        <time>2012-09-20T17:57:40Z</time>
      </trkpt>
      <trkpt lat="59.9558152" lon="17.7175311">
        <ele>47.7225</ele>
        <time>2012-09-20T17:57:41Z</time>
      </trkpt>
      <trkpt lat="59.9558043" lon="17.7174902">
        <ele>48.2034</ele>
        <time>2012-09-20T17:57:42Z</time>
      </trkpt>
      <trkpt lat="59.9557962" lon="17.7174508">
        <ele>48.2034</ele>
        <time>2012-09-20T17:57:43Z</time>
      </trkpt>
      <trkpt lat="59.9557826" lon="17.717415">
        <ele>47.7225</ele>
        <time>2012-09-20T17:57:44Z</time>
      </trkpt>
      <trkpt lat="59.9557733" lon="17.7173802">
        <ele>47.7225</ele>
        <time>2012-09-20T17:57:45Z</time>
      </trkpt>
      <trkpt lat="59.9557593" lon="17.7173527">
        <ele>47.7225</ele>
        <time>2012-09-20T17:57:46Z</time>
      </trkpt>
      <trkpt lat="59.9557407" lon="17.7173161">
        <ele>47.2418</ele>
        <time>2012-09-20T17:57:47Z</time>
      </trkpt>
      <trkpt lat="59.9557224" lon="17.717275">
        <ele>47.2418</ele>
        <time>2012-09-20T17:57:48Z</time>
      </trkpt>
      <trkpt lat="59.9557017" lon="17.7172307">
        <ele>47.7225</ele>
        <time>2012-09-20T17:57:49Z</time>
      </trkpt>
      <trkpt lat="59.9556848" lon="17.71718">
        <ele>48.2034</ele>
        <time>2012-09-20T17:57:50Z</time>
      </trkpt>
      <trkpt lat="59.9556733" lon="17.7171301">
        <ele>48.684</ele>
        <time>2012-09-20T17:57:51Z</time>
      </trkpt>
      <trkpt lat="59.9556645" lon="17.7170835">
        <ele>48.684</ele>
        <time>2012-09-20T17:57:52Z</time>
      </trkpt>
      <trkpt lat="59.9556573" lon="17.7170369">
        <ele>48.2034</ele>
        <time>2012-09-20T17:57:53Z</time>
      </trkpt>
      <trkpt lat="59.9556484" lon="17.7169836">
        <ele>48.2034</ele>
        <time>2012-09-20T17:57:54Z</time>
      </trkpt>
      <trkpt lat="59.9556361" lon="17.7169342">
        <ele>48.684</ele>
        <time>2012-09-20T17:57:55Z</time>
      </trkpt>
      <trkpt lat="59.9556251" lon="17.7168816">
        <ele>48.684</ele>
        <time>2012-09-20T17:57:56Z</time>
      </trkpt>
      <trkpt lat="59.9556168" lon="17.7168266">
        <ele>48.684</ele>
        <time>2012-09-20T17:57:57Z</time>
      </trkpt>
      <trkpt lat="59.9556065" lon="17.7167763">
        <ele>48.2034</ele>
        <time>2012-09-20T17:57:58Z</time>
      </trkpt>
      <trkpt lat="59.9555938" lon="17.7167307">
        <ele>48.2034</ele>
        <time>2012-09-20T17:57:59Z</time>
      </trkpt>
      <trkpt lat="59.9555832" lon="17.7166808">
        <ele>48.684</ele>
        <time>2012-09-20T17:58:00Z</time>
      </trkpt>
      <trkpt lat="59.955579" lon="17.7166304">
        <ele>48.684</ele>
        <time>2012-09-20T17:58:01Z</time>
      </trkpt>
      <trkpt lat="59.9555747" lon="17.7165805">
        <ele>48.684</ele>
        <time>2012-09-20T17:58:02Z</time>
      </trkpt>
      <trkpt lat="59.9555712" lon="17.7165159">
        <ele>48.2034</ele>
        <time>2012-09-20T17:58:03Z</time>
      </trkpt>
      <trkpt lat="59.9555653" lon="17.7164505">
        <ele>48.2034</ele>
        <time>2012-09-20T17:58:04Z</time>
      </trkpt>
      <trkpt lat="59.9555582" lon="17.716385">
        <ele>47.2418</ele>
        <time>2012-09-20T17:58:05Z</time>
      </trkpt>
      <trkpt lat="59.9555539" lon="17.7163209">
        <ele>47.2418</ele>
        <time>2012-09-20T17:58:06Z</time>
      </trkpt>
      <trkpt lat="59.9555526" lon="17.7162589">
        <ele>47.2418</ele>
        <time>2012-09-20T17:58:07Z</time>
      </trkpt>
      <trkpt lat="59.9555457" lon="17.716188">
        <ele>47.2418</ele>
        <time>2012-09-20T17:58:08Z</time>
      </trkpt>
      <trkpt lat="59.9555361" lon="17.7161075">
        <ele>47.2418</ele>
        <time>2012-09-20T17:58:09Z</time>
      </trkpt>
      <trkpt lat="59.955525" lon="17.7160248">
        <ele>46.2806</ele>
        <time>2012-09-20T17:58:10Z</time>
      </trkpt>
      <trkpt lat="59.9555127" lon="17.7159382">
        <ele>45.3192</ele>
        <time>2012-09-20T17:58:11Z</time>
      </trkpt>
      <trkpt lat="59.9555109" lon="17.7158595">
        <ele>45.3192</ele>
        <time>2012-09-20T17:58:12Z</time>
      </trkpt>
      <trkpt lat="59.9555089" lon="17.7157941">
        <ele>44.8386</ele>
        <time>2012-09-20T17:58:13Z</time>
      </trkpt>
      <trkpt lat="59.9554997" lon="17.7157289">
        <ele>44.358</ele>
        <time>2012-09-20T17:58:14Z</time>
      </trkpt>
      <trkpt lat="59.9554942" lon="17.7156683">
        <ele>43.8773</ele>
        <time>2012-09-20T17:58:15Z</time>
      </trkpt>
      <trkpt lat="59.9554863" lon="17.7156217">
        <ele>43.3966</ele>
        <time>2012-09-20T17:58:16Z</time>
      </trkpt>
      <trkpt lat="59.955479" lon="17.7155787">
        <ele>42.4354</ele>
        <time>2012-09-20T17:58:17Z</time>
      </trkpt>
      <trkpt lat="59.9554728" lon="17.7155341">
        <ele>41.9547</ele>
        <time>2012-09-20T17:58:18Z</time>
      </trkpt>
      <trkpt lat="59.955465" lon="17.7154855">
        <ele>41.474</ele>
        <time>2012-09-20T17:58:19Z</time>
      </trkpt>
      <trkpt lat="59.9554557" lon="17.7154274">
        <ele>41.474</ele>
        <time>2012-09-20T17:58:20Z</time>
      </trkpt>
      <trkpt lat="59.9554537" lon="17.715372">
        <ele>40.9934</ele>
        <time>2012-09-20T17:58:21Z</time>
      </trkpt>
      <trkpt lat="59.9554542" lon="17.7153359">
        <ele>41.9547</ele>
        <time>2012-09-20T17:58:22Z</time>
      </trkpt>
      <trkpt lat="59.9554527" lon="17.7153035">
        <ele>40.5128</ele>
        <time>2012-09-20T17:58:23Z</time>
      </trkpt>
      <trkpt lat="59.9554594" lon="17.7152498">
        <ele>40.0321</ele>
        <time>2012-09-20T17:58:24Z</time>
      </trkpt>
      <trkpt lat="59.9554571" lon="17.7152098">
        <ele>40.0321</ele>
        <time>2012-09-20T17:58:25Z</time>
      </trkpt>
      <trkpt lat="59.9554526" lon="17.7151815">
        <ele>40.0321</ele>
        <time>2012-09-20T17:58:26Z</time>
      </trkpt>
      <trkpt lat="59.9554429" lon="17.7151346">
        <ele>40.5128</ele>
        <time>2012-09-20T17:58:27Z</time>
      </trkpt>
      <trkpt lat="59.9554323" lon="17.7150959">
        <ele>39.0707</ele>
        <time>2012-09-20T17:58:28Z</time>
      </trkpt>
      <trkpt lat="59.9554215" lon="17.7150618">
        <ele>39.0707</ele>
        <time>2012-09-20T17:58:29Z</time>
      </trkpt>
      <trkpt lat="59.9554117" lon="17.7150245">
        <ele>39.5513</ele>
        <time>2012-09-20T17:58:30Z</time>
      </trkpt>
      <trkpt lat="59.9554013" lon="17.7149761">
        <ele>39.5513</ele>
        <time>2012-09-20T17:58:31Z</time>
      </trkpt>
      <trkpt lat="59.9553918" lon="17.7149242">
        <ele>40.0321</ele>
        <time>2012-09-20T17:58:32Z</time>
      </trkpt>
      <trkpt lat="59.9553826" lon="17.7148732">
        <ele>40.5128</ele>
        <time>2012-09-20T17:58:33Z</time>
      </trkpt>
      <trkpt lat="59.9553791" lon="17.7148212">
        <ele>40.5128</ele>
        <time>2012-09-20T17:58:34Z</time>
      </trkpt>
      <trkpt lat="59.9553749" lon="17.7147666">
        <ele>40.9934</ele>
        <time>2012-09-20T17:58:35Z</time>
      </trkpt>
      <trkpt lat="59.9553584" lon="17.7147152">
        <ele>40.0321</ele>
        <time>2012-09-20T17:58:36Z</time>
      </trkpt>
      <trkpt lat="59.9553403" lon="17.7146701">
        <ele>40.5128</ele>
        <time>2012-09-20T17:58:37Z</time>
      </trkpt>
      <trkpt lat="59.9553111" lon="17.7146345">
        <ele>40.5128</ele>
        <time>2012-09-20T17:58:38Z</time>
      </trkpt>
      <trkpt lat="59.9552909" lon="17.714596">
        <ele>40.5128</ele>
        <time>2012-09-20T17:58:39Z</time>
      </trkpt>
      <trkpt lat="59.955281" lon="17.7145463">
        <ele>40.5128</ele>
        <time>2012-09-20T17:58:40Z</time>
      </trkpt>
      <trkpt lat="59.955275" lon="17.7144943">
        <ele>40.9934</ele>
        <time>2012-09-20T17:58:41Z</time>
      </trkpt>
      <trkpt lat="59.9552725" lon="17.7144463">
        <ele>40.9934</ele>
        <time>2012-09-20T17:58:42Z</time>
      </trkpt>
      <trkpt lat="59.9552672" lon="17.7143941">
        <ele>40.9934</ele>
        <time>2012-09-20T17:58:43Z</time>
      </trkpt>
      <trkpt lat="59.9552588" lon="17.7143422">
        <ele>40.5128</ele>
        <time>2012-09-20T17:58:44Z</time>
      </trkpt>
      <trkpt lat="59.9552542" lon="17.7142905">
        <ele>40.5128</ele>
        <time>2012-09-20T17:58:45Z</time>
      </trkpt>
      <trkpt lat="59.9552563" lon="17.7142369">
        <ele>40.0321</ele>
        <time>2012-09-20T17:58:46Z</time>
      </trkpt>
      <trkpt lat="59.9552566" lon="17.7141832">
        <ele>39.5513</ele>
        <time>2012-09-20T17:58:47Z</time>
      </trkpt>
      <trkpt lat="59.9552488" lon="17.71415">
        <ele>39.0707</ele>
        <time>2012-09-20T17:58:48Z</time>
      </trkpt>
      <trkpt lat="59.9552333" lon="17.7141338">
        <ele>39.0707</ele>
        <time>2012-09-20T17:58:49Z</time>
      </trkpt>
      <trkpt lat="59.9552121" lon="17.7141298">
        <ele>37.6287</ele>
        <time>2012-09-20T17:58:50Z</time>
      </trkpt>
      <trkpt lat="59.9551915" lon="17.7141386">
        <ele>37.1481</ele>
        <time>2012-09-20T17:58:51Z</time>
      </trkpt>
      <trkpt lat="59.9551739" lon="17.7141598">
        <ele>36.1868</ele>
        <time>2012-09-20T17:58:52Z</time>
      </trkpt>
      <trkpt lat="59.9551579" lon="17.7141873">
        <ele>35.2255</ele>
        <time>2012-09-20T17:58:53Z</time>
      </trkpt>
      <trkpt lat="59.9551459" lon="17.7142092">
        <ele>34.2642</ele>
        <time>2012-09-20T17:58:54Z</time>
      </trkpt>
      <trkpt lat="59.9551315" lon="17.7142273">
        <ele>33.3029</ele>
        <time>2012-09-20T17:58:55Z</time>
      </trkpt>
      <trkpt lat="59.9551123" lon="17.7142422">
        <ele>32.3416</ele>
        <time>2012-09-20T17:58:56Z</time>
      </trkpt>
      <trkpt lat="59.9550885" lon="17.7142558">
        <ele>31.3801</ele>
        <time>2012-09-20T17:58:57Z</time>
      </trkpt>
      <trkpt lat="59.955064" lon="17.7142788">
        <ele>29.9381</ele>
        <time>2012-09-20T17:58:58Z</time>
      </trkpt>
      <trkpt lat="59.9550373" lon="17.7143065">
        <ele>28.4962</ele>
        <time>2012-09-20T17:58:59Z</time>
      </trkpt>
      <trkpt lat="59.9550112" lon="17.7143344">
        <ele>27.5349</ele>
        <time>2012-09-20T17:59:00Z</time>
      </trkpt>
      <trkpt lat="59.9549916" lon="17.7143666">
        <ele>26.5736</ele>
        <time>2012-09-20T17:59:01Z</time>
      </trkpt>
      <trkpt lat="59.9549724" lon="17.7143971">
        <ele>25.6123</ele>
        <time>2012-09-20T17:59:02Z</time>
      </trkpt>
      <trkpt lat="59.9549517" lon="17.714428">
        <ele>25.1317</ele>
        <time>2012-09-20T17:59:03Z</time>
      </trkpt>
      <trkpt lat="59.9549365" lon="17.7144664">
        <ele>25.1317</ele>
        <time>2012-09-20T17:59:04Z</time>
      </trkpt>
      <trkpt lat="59.9549227" lon="17.7145161">
        <ele>24.1703</ele>
        <time>2012-09-20T17:59:05Z</time>
      </trkpt>
      <trkpt lat="59.9549082" lon="17.7145603">
        <ele>23.6896</ele>
        <time>2012-09-20T17:59:06Z</time>
      </trkpt>
      <trkpt lat="59.9548941" lon="17.714595">
        <ele>23.209</ele>
        <time>2012-09-20T17:59:07Z</time>
      </trkpt>
      <trkpt lat="59.9548736" lon="17.7146254">
        <ele>23.209</ele>
        <time>2012-09-20T17:59:08Z</time>
      </trkpt>
      <trkpt lat="59.9548494" lon="17.7146489">
        <ele>22.2476</ele>
        <time>2012-09-20T17:59:09Z</time>
      </trkpt>
      <trkpt lat="59.9548213" lon="17.7146514">
        <ele>22.7283</ele>
        <time>2012-09-20T17:59:10Z</time>
      </trkpt>
      <trkpt lat="59.9547936" lon="17.7146617">
        <ele>22.2476</ele>
        <time>2012-09-20T17:59:11Z</time>
      </trkpt>
      <trkpt lat="59.9547723" lon="17.7146654">
        <ele>22.7283</ele>
        <time>2012-09-20T17:59:12Z</time>
      </trkpt>
      <trkpt lat="59.9547501" lon="17.7146606">
        <ele>22.2476</ele>
        <time>2012-09-20T17:59:13Z</time>
      </trkpt>
      <trkpt lat="59.9547231" lon="17.7146598">
        <ele>22.7283</ele>
        <time>2012-09-20T17:59:14Z</time>
      </trkpt>
      <trkpt lat="59.9546984" lon="17.7146633">
        <ele>22.7283</ele>
        <time>2012-09-20T17:59:15Z</time>
      </trkpt>
      <trkpt lat="59.9546725" lon="17.7146679">
        <ele>22.7283</ele>
        <time>2012-09-20T17:59:16Z</time>
      </trkpt>
      <trkpt lat="59.9546366" lon="17.7147059">
        <ele>25.1317</ele>
        <time>2012-09-20T17:59:17Z</time>
      </trkpt>
      <trkpt lat="59.9546036" lon="17.7147354">
        <ele>28.0155</ele>
        <time>2012-09-20T17:59:18Z</time>
      </trkpt>
      <trkpt lat="59.9545745" lon="17.7147464">
        <ele>28.9769</ele>
        <time>2012-09-20T17:59:19Z</time>
      </trkpt>
      <trkpt lat="59.9545434" lon="17.71475">
        <ele>29.9381</ele>
        <time>2012-09-20T17:59:20Z</time>
      </trkpt>
      <trkpt lat="59.9545129" lon="17.7147552">
        <ele>30.8995</ele>
        <time>2012-09-20T17:59:21Z</time>
      </trkpt>
      <trkpt lat="59.9544787" lon="17.7147543">
        <ele>32.3416</ele>
        <time>2012-09-20T17:59:22Z</time>
      </trkpt>
      <trkpt lat="59.9544496" lon="17.7147711">
        <ele>33.7834</ele>
        <time>2012-09-20T17:59:23Z</time>
      </trkpt>
      <trkpt lat="59.9544259" lon="17.7147762">
        <ele>33.7834</ele>
        <time>2012-09-20T17:59:24Z</time>
      </trkpt>
      <trkpt lat="59.9543985" lon="17.7147737">
        <ele>33.7834</ele>
        <time>2012-09-20T17:59:25Z</time>
      </trkpt>
      <trkpt lat="59.9543677" lon="17.7147803">
        <ele>34.7449</ele>
        <time>2012-09-20T17:59:26Z</time>
      </trkpt>
      <trkpt lat="59.954341" lon="17.7147821">
        <ele>35.7061</ele>
        <time>2012-09-20T17:59:27Z</time>
      </trkpt>
      <trkpt lat="59.9543208" lon="17.7147913">
        <ele>36.1868</ele>
        <time>2012-09-20T17:59:28Z</time>
      </trkpt>
      <trkpt lat="59.9543051" lon="17.7148043">
        <ele>36.6675</ele>
        <time>2012-09-20T17:59:29Z</time>
      </trkpt>
      <trkpt lat="59.9542844" lon="17.7147949">
        <ele>37.1481</ele>
        <time>2012-09-20T17:59:30Z</time>
      </trkpt>
      <trkpt lat="59.9542634" lon="17.7147959">
        <ele>36.6675</ele>
        <time>2012-09-20T17:59:31Z</time>
      </trkpt>
      <trkpt lat="59.9542397" lon="17.7148151">
        <ele>35.7061</ele>
        <time>2012-09-20T17:59:32Z</time>
      </trkpt>
      <trkpt lat="59.9542161" lon="17.7148271">
        <ele>35.2255</ele>
        <time>2012-09-20T17:59:33Z</time>
      </trkpt>
      <trkpt lat="59.9541949" lon="17.714839">
        <ele>34.7449</ele>
        <time>2012-09-20T17:59:34Z</time>
      </trkpt>
      <trkpt lat="59.9541758" lon="17.714853">
        <ele>34.2642</ele>
        <time>2012-09-20T17:59:35Z</time>
      </trkpt>
      <trkpt lat="59.9541597" lon="17.7148492">
        <ele>34.2642</ele>
        <time>2012-09-20T17:59:36Z</time>
      </trkpt>
      <trkpt lat="59.9541419" lon="17.7148348">
        <ele>33.7834</ele>
        <time>2012-09-20T17:59:37Z</time>
      </trkpt>
      <trkpt lat="59.954122" lon="17.7148405">
        <ele>33.3029</ele>
        <time>2012-09-20T17:59:38Z</time>
      </trkpt>
      <trkpt lat="59.9541011" lon="17.7148619">
        <ele>32.8223</ele>
        <time>2012-09-20T17:59:39Z</time>
      </trkpt>
      <trkpt lat="59.954081" lon="17.714887">
        <ele>33.3029</ele>
        <time>2012-09-20T17:59:40Z</time>
      </trkpt>
      <trkpt lat="59.9540566" lon="17.7149006">
        <ele>31.3801</ele>
        <time>2012-09-20T17:59:41Z</time>
      </trkpt>
      <trkpt lat="59.9540333" lon="17.7149088">
        <ele>31.8607</ele>
        <time>2012-09-20T17:59:42Z</time>
      </trkpt>
      <trkpt lat="59.9540136" lon="17.7149023">
        <ele>31.8607</ele>
        <time>2012-09-20T17:59:43Z</time>
      </trkpt>
      <trkpt lat="59.9539906" lon="17.7149002">
        <ele>31.8607</ele>
        <time>2012-09-20T17:59:44Z</time>
      </trkpt>
      <trkpt lat="59.9539633" lon="17.7149201">
        <ele>33.3029</ele>
        <time>2012-09-20T17:59:45Z</time>
      </trkpt>
      <trkpt lat="59.9539372" lon="17.7149347">
        <ele>35.2255</ele>
        <time>2012-09-20T17:59:46Z</time>
      </trkpt>
      <trkpt lat="59.9539126" lon="17.714939">
        <ele>35.2255</ele>
        <time>2012-09-20T17:59:47Z</time>
      </trkpt>
      <trkpt lat="59.9538891" lon="17.7149373">
        <ele>34.7449</ele>
        <time>2012-09-20T17:59:48Z</time>
      </trkpt>
      <trkpt lat="59.9538673" lon="17.7149444">
        <ele>34.2642</ele>
        <time>2012-09-20T17:59:49Z</time>
      </trkpt>
      <trkpt lat="59.953838" lon="17.7149562">
        <ele>34.7449</ele>
        <time>2012-09-20T17:59:50Z</time>
      </trkpt>
      <trkpt lat="59.9538121" lon="17.7149501">
        <ele>34.2642</ele>
        <time>2012-09-20T17:59:51Z</time>
      </trkpt>
      <trkpt lat="59.9537891" lon="17.7149482">
        <ele>34.2642</ele>
        <time>2012-09-20T17:59:52Z</time>
      </trkpt>
      <trkpt lat="59.9537644" lon="17.7149543">
        <ele>33.7834</ele>
        <time>2012-09-20T17:59:53Z</time>
      </trkpt>
      <trkpt lat="59.9537409" lon="17.7149586">
        <ele>33.3029</ele>
        <time>2012-09-20T17:59:54Z</time>
      </trkpt>
      <trkpt lat="59.9537198" lon="17.7149675">
        <ele>33.3029</ele>
        <time>2012-09-20T17:59:55Z</time>
      </trkpt>
      <trkpt lat="59.9536995" lon="17.7149836">
        <ele>32.8223</ele>
        <time>2012-09-20T17:59:56Z</time>
      </trkpt>
      <trkpt lat="59.9536777" lon="17.7149913">
        <ele>32.8223</ele>
        <time>2012-09-20T17:59:57Z</time>
      </trkpt>
      <trkpt lat="59.9536561" lon="17.7149943">
        <ele>32.8223</ele>
        <time>2012-09-20T17:59:58Z</time>
      </trkpt>
      <trkpt lat="59.9536379" lon="17.7149932">
        <ele>32.8223</ele>
        <time>2012-09-20T17:59:59Z</time>
      </trkpt>
      <trkpt lat="59.9536186" lon="17.714999">
        <ele>32.3416</ele>
        <time>2012-09-20T18:00:00Z</time>
      </trkpt>
      <trkpt lat="59.9535997" lon="17.7150114">
        <ele>31.3801</ele>
        <time>2012-09-20T18:00:01Z</time>
      </trkpt>
      <trkpt lat="59.953579" lon="17.7150271">
        <ele>31.3801</ele>
        <time>2012-09-20T18:00:02Z</time>
      </trkpt>
      <trkpt lat="59.9535546" lon="17.7150534">
        <ele>30.8995</ele>
        <time>2012-09-20T18:00:03Z</time>
      </trkpt>
      <trkpt lat="59.9535313" lon="17.7150739">
        <ele>30.8995</ele>
        <time>2012-09-20T18:00:04Z</time>
      </trkpt>
      <trkpt lat="59.9535093" lon="17.7150964">
        <ele>29.9381</ele>
        <time>2012-09-20T18:00:05Z</time>
      </trkpt>
      <trkpt lat="59.9534832" lon="17.715114">
        <ele>29.9381</ele>
        <time>2012-09-20T18:00:06Z</time>
      </trkpt>
      <trkpt lat="59.9534609" lon="17.715131">
        <ele>29.4575</ele>
        <time>2012-09-20T18:00:07Z</time>
      </trkpt>
      <trkpt lat="59.9534465" lon="17.715152">
        <ele>28.9769</ele>
        <time>2012-09-20T18:00:08Z</time>
      </trkpt>
      <trkpt lat="59.9534324" lon="17.7151783">
        <ele>28.9769</ele>
        <time>2012-09-20T18:00:09Z</time>
      </trkpt>
      <trkpt lat="59.9534215" lon="17.7152093">
        <ele>28.9769</ele>
        <time>2012-09-20T18:00:10Z</time>
      </trkpt>
      <trkpt lat="59.9534112" lon="17.7152368">
        <ele>28.4962</ele>
        <time>2012-09-20T18:00:11Z</time>
      </trkpt>
      <trkpt lat="59.953392" lon="17.71527">
        <ele>28.0155</ele>
        <time>2012-09-20T18:00:12Z</time>
      </trkpt>
      <trkpt lat="59.9533732" lon="17.7153055">
        <ele>27.5349</ele>
        <time>2012-09-20T18:00:13Z</time>
      </trkpt>
      <trkpt lat="59.9533552" lon="17.7153326">
        <ele>27.0543</ele>
        <time>2012-09-20T18:00:14Z</time>
      </trkpt>
      <trkpt lat="59.9533358" lon="17.7153632">
        <ele>27.0543</ele>
        <time>2012-09-20T18:00:15Z</time>
      </trkpt>
      <trkpt lat="59.9533215" lon="17.7154008">
        <ele>27.0543</ele>
        <time>2012-09-20T18:00:16Z</time>
      </trkpt>
      <trkpt lat="59.9533074" lon="17.7154377">
        <ele>27.0543</ele>
        <time>2012-09-20T18:00:17Z</time>
      </trkpt>
      <trkpt lat="59.9532902" lon="17.7154616">
        <ele>26.5736</ele>
        <time>2012-09-20T18:00:18Z</time>
      </trkpt>
      <trkpt lat="59.9532745" lon="17.7154762">
        <ele>26.0929</ele>
        <time>2012-09-20T18:00:19Z</time>
      </trkpt>
      <trkpt lat="59.9532542" lon="17.7155">
        <ele>26.0929</ele>
        <time>2012-09-20T18:00:20Z</time>
      </trkpt>
      <trkpt lat="59.9532325" lon="17.7155256">
        <ele>26.0929</ele>
        <time>2012-09-20T18:00:21Z</time>
      </trkpt>
      <trkpt lat="59.953211" lon="17.7155547">
        <ele>26.0929</ele>
        <time>2012-09-20T18:00:22Z</time>
      </trkpt>
      <trkpt lat="59.953193" lon="17.7155814">
        <ele>26.0929</ele>
        <time>2012-09-20T18:00:23Z</time>
      </trkpt>
      <trkpt lat="59.9531695" lon="17.7156041">
        <ele>26.0929</ele>
        <time>2012-09-20T18:00:24Z</time>
      </trkpt>
      <trkpt lat="59.9531475" lon="17.7156283">
        <ele>26.5736</ele>
        <time>2012-09-20T18:00:25Z</time>
      </trkpt>
      <trkpt lat="59.9531315" lon="17.7156634">
        <ele>26.0929</ele>
        <time>2012-09-20T18:00:26Z</time>
      </trkpt>
      <trkpt lat="59.9531148" lon="17.7157035">
        <ele>26.0929</ele>
        <time>2012-09-20T18:00:27Z</time>
      </trkpt>
      <trkpt lat="59.953098" lon="17.7157409">
        <ele>26.0929</ele>
        <time>2012-09-20T18:00:28Z</time>
      </trkpt>
      <trkpt lat="59.9530859" lon="17.7157714">
        <ele>26.5736</ele>
        <time>2012-09-20T18:00:29Z</time>
      </trkpt>
      <trkpt lat="59.9530724" lon="17.7158168">
        <ele>26.5736</ele>
        <time>2012-09-20T18:00:30Z</time>
      </trkpt>
      <trkpt lat="59.9530559" lon="17.7158631">
        <ele>27.0543</ele>
        <time>2012-09-20T18:00:31Z</time>
      </trkpt>
      <trkpt lat="59.953046" lon="17.7159081">
        <ele>27.0543</ele>
        <time>2012-09-20T18:00:32Z</time>
      </trkpt>
      <trkpt lat="59.9530356" lon="17.7159571">
        <ele>26.5736</ele>
        <time>2012-09-20T18:00:33Z</time>
      </trkpt>
      <trkpt lat="59.9530303" lon="17.7159972">
        <ele>27.0543</ele>
        <time>2012-09-20T18:00:34Z</time>
      </trkpt>
      <trkpt lat="59.9530221" lon="17.7160453">
        <ele>27.5349</ele>
        <time>2012-09-20T18:00:35Z</time>
      </trkpt>
      <trkpt lat="59.9530154" lon="17.7160905">
        <ele>28.0155</ele>
        <time>2012-09-20T18:00:36Z</time>
      </trkpt>
      <trkpt lat="59.9530087" lon="17.7161255">
        <ele>28.0155</ele>
        <time>2012-09-20T18:00:37Z</time>
      </trkpt>
      <trkpt lat="59.9529962" lon="17.7161669">
        <ele>28.4962</ele>
        <time>2012-09-20T18:00:38Z</time>
      </trkpt>
      <trkpt lat="59.9529875" lon="17.7162131">
        <ele>28.9769</ele>
        <time>2012-09-20T18:00:39Z</time>
      </trkpt>
      <trkpt lat="59.9529799" lon="17.7162592">
        <ele>29.4575</ele>
        <time>2012-09-20T18:00:40Z</time>
      </trkpt>
      <trkpt lat="59.9529745" lon="17.7162925">
        <ele>29.4575</ele>
        <time>2012-09-20T18:00:41Z</time>
      </trkpt>
      <trkpt lat="59.9529694" lon="17.7163355">
        <ele>29.4575</ele>
        <time>2012-09-20T18:00:42Z</time>
      </trkpt>
      <trkpt lat="59.9529671" lon="17.716384">
        <ele>29.9381</ele>
        <time>2012-09-20T18:00:43Z</time>
      </trkpt>
      <trkpt lat="59.9529698" lon="17.7164359">
        <ele>29.9381</ele>
        <time>2012-09-20T18:00:44Z</time>
      </trkpt>
      <trkpt lat="59.9529753" lon="17.7164835">
        <ele>29.9381</ele>
        <time>2012-09-20T18:00:45Z</time>
      </trkpt>
      <trkpt lat="59.9529779" lon="17.7165374">
        <ele>29.4575</ele>
        <time>2012-09-20T18:00:46Z</time>
      </trkpt>
      <trkpt lat="59.9529856" lon="17.7165867">
        <ele>29.4575</ele>
        <time>2012-09-20T18:00:47Z</time>
      </trkpt>
      <trkpt lat="59.9529889" lon="17.7166357">
        <ele>30.4188</ele>
        <time>2012-09-20T18:00:48Z</time>
      </trkpt>
      <trkpt lat="59.9529837" lon="17.7166809">
        <ele>29.9381</ele>
        <time>2012-09-20T18:00:49Z</time>
      </trkpt>
      <trkpt lat="59.9529821" lon="17.7167203">
        <ele>30.8995</ele>
        <time>2012-09-20T18:00:50Z</time>
      </trkpt>
      <trkpt lat="59.9529787" lon="17.7167679">
        <ele>29.9381</ele>
        <time>2012-09-20T18:00:51Z</time>
      </trkpt>
      <trkpt lat="59.9529777" lon="17.7168173">
        <ele>30.4188</ele>
        <time>2012-09-20T18:00:52Z</time>
      </trkpt>
      <trkpt lat="59.9529782" lon="17.7168696">
        <ele>29.9381</ele>
        <time>2012-09-20T18:00:53Z</time>
      </trkpt>
      <trkpt lat="59.9529771" lon="17.7169213">
        <ele>29.9381</ele>
        <time>2012-09-20T18:00:54Z</time>
      </trkpt>
      <trkpt lat="59.952978" lon="17.7169658">
        <ele>29.4575</ele>
        <time>2012-09-20T18:00:55Z</time>
      </trkpt>
      <trkpt lat="59.9529699" lon="17.7170197">
        <ele>28.4962</ele>
        <time>2012-09-20T18:00:56Z</time>
      </trkpt>
      <trkpt lat="59.9529594" lon="17.7170643">
        <ele>28.4962</ele>
        <time>2012-09-20T18:00:57Z</time>
      </trkpt>
      <trkpt lat="59.9529445" lon="17.7171041">
        <ele>28.0155</ele>
        <time>2012-09-20T18:00:58Z</time>
      </trkpt>
      <trkpt lat="59.9529281" lon="17.7171452">
        <ele>28.0155</ele>
        <time>2012-09-20T18:00:59Z</time>
      </trkpt>
      <trkpt lat="59.9529117" lon="17.7171856">
        <ele>27.5349</ele>
        <time>2012-09-20T18:01:00Z</time>
      </trkpt>
      <trkpt lat="59.9528993" lon="17.7172278">
        <ele>27.5349</ele>
        <time>2012-09-20T18:01:01Z</time>
      </trkpt>
      <trkpt lat="59.9528898" lon="17.7172734">
        <ele>27.5349</ele>
        <time>2012-09-20T18:01:02Z</time>
      </trkpt>
      <trkpt lat="59.9528743" lon="17.7173231">
        <ele>27.0543</ele>
        <time>2012-09-20T18:01:03Z</time>
      </trkpt>
      <trkpt lat="59.9528619" lon="17.7173591">
        <ele>27.0543</ele>
        <time>2012-09-20T18:01:04Z</time>
      </trkpt>
      <trkpt lat="59.9528512" lon="17.7173934">
        <ele>26.5736</ele>
        <time>2012-09-20T18:01:05Z</time>
      </trkpt>
      <trkpt lat="59.9528443" lon="17.7174211">
        <ele>26.5736</ele>
        <time>2012-09-20T18:01:06Z</time>
      </trkpt>
      <trkpt lat="59.9528306" lon="17.7174549">
        <ele>25.6123</ele>
        <time>2012-09-20T18:01:07Z</time>
      </trkpt>
      <trkpt lat="59.9528086" lon="17.717499">
        <ele>24.651</ele>
        <time>2012-09-20T18:01:08Z</time>
      </trkpt>
      <trkpt lat="59.9527862" lon="17.7175379">
        <ele>24.1703</ele>
        <time>2012-09-20T18:01:09Z</time>
      </trkpt>
      <trkpt lat="59.952765" lon="17.7175844">
        <ele>23.6896</ele>
        <time>2012-09-20T18:01:10Z</time>
      </trkpt>
      <trkpt lat="59.9527489" lon="17.7176289">
        <ele>22.7283</ele>
        <time>2012-09-20T18:01:11Z</time>
      </trkpt>
      <trkpt lat="59.9527363" lon="17.717664">
        <ele>22.2476</ele>
        <time>2012-09-20T18:01:12Z</time>
      </trkpt>
      <trkpt lat="59.9527242" lon="17.717707">
        <ele>22.2476</ele>
        <time>2012-09-20T18:01:13Z</time>
      </trkpt>
      <trkpt lat="59.9527123" lon="17.7177481">
        <ele>22.2476</ele>
        <time>2012-09-20T18:01:14Z</time>
      </trkpt>
      <trkpt lat="59.952703" lon="17.7178025">
        <ele>22.7283</ele>
        <time>2012-09-20T18:01:15Z</time>
      </trkpt>
      <trkpt lat="59.9526893" lon="17.7178498">
        <ele>22.2476</ele>
        <time>2012-09-20T18:01:16Z</time>
      </trkpt>
      <trkpt lat="59.9526678" lon="17.7179002">
        <ele>21.767</ele>
        <time>2012-09-20T18:01:17Z</time>
      </trkpt>
      <trkpt lat="59.9526507" lon="17.7179398">
        <ele>21.2864</ele>
        <time>2012-09-20T18:01:18Z</time>
      </trkpt>
      <trkpt lat="59.9526397" lon="17.7179755">
        <ele>21.2864</ele>
        <time>2012-09-20T18:01:19Z</time>
      </trkpt>
      <trkpt lat="59.952631" lon="17.7180138">
        <ele>21.767</ele>
        <time>2012-09-20T18:01:20Z</time>
      </trkpt>
      <trkpt lat="59.9526181" lon="17.7180525">
        <ele>20.8057</ele>
        <time>2012-09-20T18:01:21Z</time>
      </trkpt>
      <trkpt lat="59.9526118" lon="17.7180853">
        <ele>20.325</ele>
        <time>2012-09-20T18:01:22Z</time>
      </trkpt>
      <trkpt lat="59.9526083" lon="17.7181201">
        <ele>20.8057</ele>
        <time>2012-09-20T18:01:23Z</time>
      </trkpt>
      <trkpt lat="59.9526037" lon="17.7181568">
        <ele>21.2864</ele>
        <time>2012-09-20T18:01:24Z</time>
      </trkpt>
      <trkpt lat="59.9525993" lon="17.7182003">
        <ele>21.2864</ele>
        <time>2012-09-20T18:01:25Z</time>
      </trkpt>
      <trkpt lat="59.9525888" lon="17.7182497">
        <ele>21.2864</ele>
        <time>2012-09-20T18:01:26Z</time>
      </trkpt>
      <trkpt lat="59.95257" lon="17.7182982">
        <ele>21.2864</ele>
        <time>2012-09-20T18:01:27Z</time>
      </trkpt>
      <trkpt lat="59.9525585" lon="17.7183408">
        <ele>21.2864</ele>
        <time>2012-09-20T18:01:28Z</time>
      </trkpt>
      <trkpt lat="59.9525455" lon="17.7183934">
        <ele>21.767</ele>
        <time>2012-09-20T18:01:29Z</time>
      </trkpt>
      <trkpt lat="59.9525404" lon="17.7184366">
        <ele>22.2476</ele>
        <time>2012-09-20T18:01:30Z</time>
      </trkpt>
      <trkpt lat="59.9525357" lon="17.7184825">
        <ele>22.7283</ele>
        <time>2012-09-20T18:01:31Z</time>
      </trkpt>
      <trkpt lat="59.9525206" lon="17.7185366">
        <ele>23.209</ele>
        <time>2012-09-20T18:01:32Z</time>
      </trkpt>
      <trkpt lat="59.9525021" lon="17.7186023">
        <ele>23.209</ele>
        <time>2012-09-20T18:01:33Z</time>
      </trkpt>
      <trkpt lat="59.9524969" lon="17.7186567">
        <ele>24.1703</ele>
        <time>2012-09-20T18:01:34Z</time>
      </trkpt>
      <trkpt lat="59.9524911" lon="17.7187147">
        <ele>25.1317</ele>
        <time>2012-09-20T18:01:35Z</time>
      </trkpt>
      <trkpt lat="59.9524845" lon="17.7187692">
        <ele>26.0929</ele>
        <time>2012-09-20T18:01:36Z</time>
      </trkpt>
      <trkpt lat="59.9524777" lon="17.7188199">
        <ele>26.5736</ele>
        <time>2012-09-20T18:01:37Z</time>
      </trkpt>
      <trkpt lat="59.9524674" lon="17.718863">
        <ele>27.0543</ele>
        <time>2012-09-20T18:01:38Z</time>
      </trkpt>
      <trkpt lat="59.9524528" lon="17.7189083">
        <ele>26.0929</ele>
        <time>2012-09-20T18:01:39Z</time>
      </trkpt>
      <trkpt lat="59.9524373" lon="17.7189613">
        <ele>26.0929</ele>
        <time>2012-09-20T18:01:40Z</time>
      </trkpt>
      <trkpt lat="59.9524243" lon="17.7190095">
        <ele>26.5736</ele>
        <time>2012-09-20T18:01:41Z</time>
      </trkpt>
      <trkpt lat="59.952416" lon="17.7190613">
        <ele>28.0155</ele>
        <time>2012-09-20T18:01:42Z</time>
      </trkpt>
      <trkpt lat="59.9524082" lon="17.7191132">
        <ele>28.0155</ele>
        <time>2012-09-20T18:01:43Z</time>
      </trkpt>
      <trkpt lat="59.9524039" lon="17.7191669">
        <ele>28.4962</ele>
        <time>2012-09-20T18:01:44Z</time>
      </trkpt>
      <trkpt lat="59.9524014" lon="17.7192224">
        <ele>28.9769</ele>
        <time>2012-09-20T18:01:45Z</time>
      </trkpt>
      <trkpt lat="59.9524016" lon="17.7192706">
        <ele>28.9769</ele>
        <time>2012-09-20T18:01:46Z</time>
      </trkpt>
      <trkpt lat="59.9524068" lon="17.7193255">
        <ele>29.4575</ele>
        <time>2012-09-20T18:01:47Z</time>
      </trkpt>
      <trkpt lat="59.9524093" lon="17.7193757">
        <ele>30.8995</ele>
        <time>2012-09-20T18:01:48Z</time>
      </trkpt>
      <trkpt lat="59.952414" lon="17.7194301">
        <ele>33.3029</ele>
        <time>2012-09-20T18:01:49Z</time>
      </trkpt>
      <trkpt lat="59.9524253" lon="17.7194763">
        <ele>34.7449</ele>
        <time>2012-09-20T18:01:50Z</time>
      </trkpt>
      <trkpt lat="59.9524392" lon="17.7195309">
        <ele>37.1481</ele>
        <time>2012-09-20T18:01:51Z</time>
      </trkpt>
      <trkpt lat="59.9524459" lon="17.7195861">
        <ele>38.1094</ele>
        <time>2012-09-20T18:01:52Z</time>
      </trkpt>
      <trkpt lat="59.9524548" lon="17.7196462">
        <ele>39.0707</ele>
        <time>2012-09-20T18:01:53Z</time>
      </trkpt>
      <trkpt lat="59.9524697" lon="17.7197166">
        <ele>41.474</ele>
        <time>2012-09-20T18:01:54Z</time>
      </trkpt>
      <trkpt lat="59.9524849" lon="17.7197704">
        <ele>42.916</ele>
        <time>2012-09-20T18:01:55Z</time>
      </trkpt>
      <trkpt lat="59.9524923" lon="17.7198253">
        <ele>42.916</ele>
        <time>2012-09-20T18:01:56Z</time>
      </trkpt>
      <trkpt lat="59.9525023" lon="17.7198827">
        <ele>44.358</ele>
        <time>2012-09-20T18:01:57Z</time>
      </trkpt>
      <trkpt lat="59.9525146" lon="17.7199336">
        <ele>45.3192</ele>
        <time>2012-09-20T18:01:58Z</time>
      </trkpt>
      <trkpt lat="59.9525326" lon="17.7199828">
        <ele>47.7225</ele>
        <time>2012-09-20T18:01:59Z</time>
      </trkpt>
      <trkpt lat="59.9525465" lon="17.7200323">
        <ele>48.684</ele>
        <time>2012-09-20T18:02:00Z</time>
      </trkpt>
      <trkpt lat="59.9525569" lon="17.7200615">
        <ele>48.684</ele>
        <time>2012-09-20T18:02:01Z</time>
      </trkpt>
      <trkpt lat="59.9525635" lon="17.7201095">
        <ele>50.126</ele>
        <time>2012-09-20T18:02:02Z</time>
      </trkpt>
      <trkpt lat="59.9525593" lon="17.7201618">
        <ele>50.126</ele>
        <time>2012-09-20T18:02:03Z</time>
      </trkpt>
      <trkpt lat="59.9525533" lon="17.7202157">
        <ele>50.126</ele>
        <time>2012-09-20T18:02:04Z</time>
      </trkpt>
      <trkpt lat="59.9525594" lon="17.7202694">
        <ele>51.0872</ele>
        <time>2012-09-20T18:02:05Z</time>
      </trkpt>
      <trkpt lat="59.9525522" lon="17.7203102">
        <ele>50.126</ele>
        <time>2012-09-20T18:02:06Z</time>
      </trkpt>
      <trkpt lat="59.952544" lon="17.7203525">
        <ele>49.1646</ele>
        <time>2012-09-20T18:02:07Z</time>
      </trkpt>
      <trkpt lat="59.9525415" lon="17.7203983">
        <ele>48.684</ele>
        <time>2012-09-20T18:02:08Z</time>
      </trkpt>
      <trkpt lat="59.9525407" lon="17.7204411">
        <ele>48.684</ele>
        <time>2012-09-20T18:02:09Z</time>
      </trkpt>
      <trkpt lat="59.9525378" lon="17.7204754">
        <ele>47.7225</ele>
        <time>2012-09-20T18:02:10Z</time>
      </trkpt>
      <trkpt lat="59.9525344" lon="17.7205164">
        <ele>46.7612</ele>
        <time>2012-09-20T18:02:11Z</time>
      </trkpt>
      <trkpt lat="59.9525332" lon="17.720563">
        <ele>47.2418</ele>
        <time>2012-09-20T18:02:12Z</time>
      </trkpt>
      <trkpt lat="59.9525363" lon="17.7206051">
        <ele>47.2418</ele>
        <time>2012-09-20T18:02:13Z</time>
      </trkpt>
      <trkpt lat="59.9525383" lon="17.720649">
        <ele>46.7612</ele>
        <time>2012-09-20T18:02:14Z</time>
      </trkpt>
      <trkpt lat="59.9525366" lon="17.7206987">
        <ele>47.2418</ele>
        <time>2012-09-20T18:02:15Z</time>
      </trkpt>
      <trkpt lat="59.9525321" lon="17.7207587">
        <ele>47.2418</ele>
        <time>2012-09-20T18:02:16Z</time>
      </trkpt>
      <trkpt lat="59.952537" lon="17.7208038">
        <ele>47.7225</ele>
        <time>2012-09-20T18:02:17Z</time>
      </trkpt>
      <trkpt lat="59.9525352" lon="17.7208545">
        <ele>48.2034</ele>
        <time>2012-09-20T18:02:18Z</time>
      </trkpt>
      <trkpt lat="59.9525347" lon="17.7209027">
        <ele>48.684</ele>
        <time>2012-09-20T18:02:19Z</time>
      </trkpt>
      <trkpt lat="59.9525347" lon="17.7209494">
        <ele>49.1646</ele>
        <time>2012-09-20T18:02:20Z</time>
      </trkpt>
      <trkpt lat="59.9525387" lon="17.7210033">
        <ele>49.6453</ele>
        <time>2012-09-20T18:02:21Z</time>
      </trkpt>
      <trkpt lat="59.9525309" lon="17.7210748">
        <ele>50.6066</ele>
        <time>2012-09-20T18:02:22Z</time>
      </trkpt>
      <trkpt lat="59.9525237" lon="17.721124">
        <ele>49.1646</ele>
        <time>2012-09-20T18:02:23Z</time>
      </trkpt>
      <trkpt lat="59.9525231" lon="17.721169">
        <ele>49.6453</ele>
        <time>2012-09-20T18:02:24Z</time>
      </trkpt>
      <trkpt lat="59.9525161" lon="17.7212166">
        <ele>49.6453</ele>
        <time>2012-09-20T18:02:25Z</time>
      </trkpt>
      <trkpt lat="59.9525137" lon="17.7212601">
        <ele>49.1646</ele>
        <time>2012-09-20T18:02:26Z</time>
      </trkpt>
      <trkpt lat="59.952516" lon="17.7213125">
        <ele>48.2034</ele>
        <time>2012-09-20T18:02:27Z</time>
      </trkpt>
      <trkpt lat="59.952516" lon="17.7213654">
        <ele>48.2034</ele>
        <time>2012-09-20T18:02:28Z</time>
      </trkpt>
      <trkpt lat="59.9525155" lon="17.7214115">
        <ele>47.7225</ele>
        <time>2012-09-20T18:02:29Z</time>
      </trkpt>
      <trkpt lat="59.9525179" lon="17.7214496">
        <ele>47.2418</ele>
        <time>2012-09-20T18:02:30Z</time>
      </trkpt>
      <trkpt lat="59.9525207" lon="17.721487">
        <ele>46.7612</ele>
        <time>2012-09-20T18:02:31Z</time>
      </trkpt>
      <trkpt lat="59.9525277" lon="17.7215322">
        <ele>47.2418</ele>
        <time>2012-09-20T18:02:32Z</time>
      </trkpt>
      <trkpt lat="59.9525347" lon="17.7215747">
        <ele>47.2418</ele>
        <time>2012-09-20T18:02:33Z</time>
      </trkpt>
      <trkpt lat="59.952543" lon="17.7216165">
        <ele>47.2418</ele>
        <time>2012-09-20T18:02:34Z</time>
      </trkpt>
      <trkpt lat="59.9525476" lon="17.7216737">
        <ele>47.7225</ele>
        <time>2012-09-20T18:02:35Z</time>
      </trkpt>
      <trkpt lat="59.9525524" lon="17.7217367">
        <ele>48.2034</ele>
        <time>2012-09-20T18:02:36Z</time>
      </trkpt>
      <trkpt lat="59.9525605" lon="17.7217964">
        <ele>49.1646</ele>
        <time>2012-09-20T18:02:37Z</time>
      </trkpt>
      <trkpt lat="59.95256" lon="17.7218485">
        <ele>49.1646</ele>
        <time>2012-09-20T18:02:38Z</time>
      </trkpt>
      <trkpt lat="59.9525694" lon="17.7218901">
        <ele>49.6453</ele>
        <time>2012-09-20T18:02:39Z</time>
      </trkpt>
      <trkpt lat="59.9525808" lon="17.72194">
        <ele>49.6453</ele>
        <time>2012-09-20T18:02:40Z</time>
      </trkpt>
      <trkpt lat="59.9525901" lon="17.721993">
        <ele>50.126</ele>
        <time>2012-09-20T18:02:41Z</time>
      </trkpt>
      <trkpt lat="59.9525912" lon="17.7220511">
        <ele>51.0872</ele>
        <time>2012-09-20T18:02:42Z</time>
      </trkpt>
      <trkpt lat="59.9525911" lon="17.7221035">
        <ele>50.6066</ele>
        <time>2012-09-20T18:02:43Z</time>
      </trkpt>
      <trkpt lat="59.9525894" lon="17.722151">
        <ele>49.1646</ele>
        <time>2012-09-20T18:02:44Z</time>
      </trkpt>
      <trkpt lat="59.9525849" lon="17.7221942">
        <ele>48.2034</ele>
        <time>2012-09-20T18:02:45Z</time>
      </trkpt>
      <trkpt lat="59.9525807" lon="17.7222302">
        <ele>47.2418</ele>
        <time>2012-09-20T18:02:46Z</time>
      </trkpt>
      <trkpt lat="59.9525786" lon="17.7222646">
        <ele>46.2806</ele>
        <time>2012-09-20T18:02:47Z</time>
      </trkpt>
      <trkpt lat="59.9525668" lon="17.7223071">
        <ele>45.3192</ele>
        <time>2012-09-20T18:02:48Z</time>
      </trkpt>
      <trkpt lat="59.9525512" lon="17.7223589">
        <ele>44.8386</ele>
        <time>2012-09-20T18:02:49Z</time>
      </trkpt>
      <trkpt lat="59.9525337" lon="17.7224066">
        <ele>43.8773</ele>
        <time>2012-09-20T18:02:50Z</time>
      </trkpt>
      <trkpt lat="59.9525146" lon="17.7224543">
        <ele>42.916</ele>
        <time>2012-09-20T18:02:51Z</time>
      </trkpt>
      <trkpt lat="59.9525" lon="17.7224973">
        <ele>41.9547</ele>
        <time>2012-09-20T18:02:52Z</time>
      </trkpt>
      <trkpt lat="59.9524917" lon="17.7225319">
        <ele>41.474</ele>
        <time>2012-09-20T18:02:53Z</time>
      </trkpt>
      <trkpt lat="59.9524803" lon="17.7225911">
        <ele>41.9547</ele>
        <time>2012-09-20T18:02:54Z</time>
      </trkpt>
      <trkpt lat="59.952471" lon="17.7226455">
        <ele>41.9547</ele>
        <time>2012-09-20T18:02:55Z</time>
      </trkpt>
      <trkpt lat="59.9524628" lon="17.7226982">
        <ele>41.9547</ele>
        <time>2012-09-20T18:02:56Z</time>
      </trkpt>
      <trkpt lat="59.952462" lon="17.7227434">
        <ele>41.474</ele>
        <time>2012-09-20T18:02:57Z</time>
      </trkpt>
      <trkpt lat="59.9524676" lon="17.7227885">
        <ele>40.9934</ele>
        <time>2012-09-20T18:02:58Z</time>
      </trkpt>
      <trkpt lat="59.9524808" lon="17.7228413">
        <ele>41.474</ele>
        <time>2012-09-20T18:02:59Z</time>
      </trkpt>
      <trkpt lat="59.9524813" lon="17.7228965">
        <ele>40.9934</ele>
        <time>2012-09-20T18:03:00Z</time>
      </trkpt>
      <trkpt lat="59.9524849" lon="17.7229435">
        <ele>40.9934</ele>
        <time>2012-09-20T18:03:01Z</time>
      </trkpt>
      <trkpt lat="59.9524889" lon="17.7230028">
        <ele>40.9934</ele>
        <time>2012-09-20T18:03:02Z</time>
      </trkpt>
      <trkpt lat="59.9524957" lon="17.723064">
        <ele>40.9934</ele>
        <time>2012-09-20T18:03:03Z</time>
      </trkpt>
      <trkpt lat="59.9525056" lon="17.7231114">
        <ele>40.5128</ele>
        <time>2012-09-20T18:03:04Z</time>
      </trkpt>
      <trkpt lat="59.9525196" lon="17.7231587">
        <ele>40.5128</ele>
        <time>2012-09-20T18:03:05Z</time>
      </trkpt>
      <trkpt lat="59.9525306" lon="17.7232007">
        <ele>39.5513</ele>
        <time>2012-09-20T18:03:06Z</time>
      </trkpt>
      <trkpt lat="59.952542" lon="17.7232472">
        <ele>40.9934</ele>
        <time>2012-09-20T18:03:07Z</time>
      </trkpt>
      <trkpt lat="59.9525528" lon="17.7232908">
        <ele>40.5128</ele>
        <time>2012-09-20T18:03:08Z</time>
      </trkpt>
      <trkpt lat="59.9525714" lon="17.7233374">
        <ele>40.9934</ele>
        <time>2012-09-20T18:03:09Z</time>
      </trkpt>
      <trkpt lat="59.9525814" lon="17.7233857">
        <ele>40.9934</ele>
        <time>2012-09-20T18:03:10Z</time>
      </trkpt>
      <trkpt lat="59.9525912" lon="17.7234346">
        <ele>41.474</ele>
        <time>2012-09-20T18:03:11Z</time>
      </trkpt>
      <trkpt lat="59.9526057" lon="17.7234768">
        <ele>42.4354</ele>
        <time>2012-09-20T18:03:12Z</time>
      </trkpt>
      <trkpt lat="59.9526176" lon="17.7235296">
        <ele>43.3966</ele>
        <time>2012-09-20T18:03:13Z</time>
      </trkpt>
      <trkpt lat="59.9526315" lon="17.7235659">
        <ele>42.916</ele>
        <time>2012-09-20T18:03:14Z</time>
      </trkpt>
      <trkpt lat="59.9526458" lon="17.7236071">
        <ele>42.4354</ele>
        <time>2012-09-20T18:03:15Z</time>
      </trkpt>
      <trkpt lat="59.9526606" lon="17.723657">
        <ele>42.916</ele>
        <time>2012-09-20T18:03:16Z</time>
      </trkpt>
      <trkpt lat="59.9526798" lon="17.7236947">
        <ele>42.4354</ele>
        <time>2012-09-20T18:03:17Z</time>
      </trkpt>
      <trkpt lat="59.952706" lon="17.7237408">
        <ele>42.916</ele>
        <time>2012-09-20T18:03:18Z</time>
      </trkpt>
      <trkpt lat="59.9527272" lon="17.7237829">
        <ele>42.916</ele>
        <time>2012-09-20T18:03:19Z</time>
      </trkpt>
      <trkpt lat="59.9527401" lon="17.7238358">
        <ele>44.358</ele>
        <time>2012-09-20T18:03:20Z</time>
      </trkpt>
      <trkpt lat="59.9527445" lon="17.7238797">
        <ele>42.916</ele>
        <time>2012-09-20T18:03:21Z</time>
      </trkpt>
      <trkpt lat="59.9527507" lon="17.7239162">
        <ele>41.9547</ele>
        <time>2012-09-20T18:03:22Z</time>
      </trkpt>
      <trkpt lat="59.9527456" lon="17.7239557">
        <ele>40.9934</ele>
        <time>2012-09-20T18:03:23Z</time>
      </trkpt>
      <trkpt lat="59.9527445" lon="17.7239961">
        <ele>40.0321</ele>
        <time>2012-09-20T18:03:24Z</time>
      </trkpt>
      <trkpt lat="59.9527419" lon="17.7240316">
        <ele>40.0321</ele>
        <time>2012-09-20T18:03:25Z</time>
      </trkpt>
      <trkpt lat="59.9527294" lon="17.7240642">
        <ele>39.5513</ele>
        <time>2012-09-20T18:03:26Z</time>
      </trkpt>
      <trkpt lat="59.952706" lon="17.7240966">
        <ele>38.1094</ele>
        <time>2012-09-20T18:03:27Z</time>
      </trkpt>
      <trkpt lat="59.952684" lon="17.7241341">
        <ele>37.6287</ele>
        <time>2012-09-20T18:03:28Z</time>
      </trkpt>
      <trkpt lat="59.9526673" lon="17.7241735">
        <ele>37.6287</ele>
        <time>2012-09-20T18:03:29Z</time>
      </trkpt>
      <trkpt lat="59.9526482" lon="17.7242149">
        <ele>37.1481</ele>
        <time>2012-09-20T18:03:30Z</time>
      </trkpt>
      <trkpt lat="59.9526339" lon="17.7242605">
        <ele>36.6675</ele>
        <time>2012-09-20T18:03:31Z</time>
      </trkpt>
      <trkpt lat="59.9526154" lon="17.7243217">
        <ele>37.6287</ele>
        <time>2012-09-20T18:03:32Z</time>
      </trkpt>
      <trkpt lat="59.9525974" lon="17.7243536">
        <ele>36.6675</ele>
        <time>2012-09-20T18:03:33Z</time>
      </trkpt>
      <trkpt lat="59.9525828" lon="17.7243896">
        <ele>37.6287</ele>
        <time>2012-09-20T18:03:34Z</time>
      </trkpt>
      <trkpt lat="59.9525631" lon="17.7244458">
        <ele>37.6287</ele>
        <time>2012-09-20T18:03:35Z</time>
      </trkpt>
      <trkpt lat="59.9525454" lon="17.7244924">
        <ele>38.5901</ele>
        <time>2012-09-20T18:03:36Z</time>
      </trkpt>
      <trkpt lat="59.9525252" lon="17.7245336">
        <ele>38.5901</ele>
        <time>2012-09-20T18:03:37Z</time>
      </trkpt>
      <trkpt lat="59.9525072" lon="17.7245608">
        <ele>39.5513</ele>
        <time>2012-09-20T18:03:38Z</time>
      </trkpt>
      <trkpt lat="59.952486" lon="17.7245955">
        <ele>40.0321</ele>
        <time>2012-09-20T18:03:39Z</time>
      </trkpt>
      <trkpt lat="59.95246" lon="17.7246458">
        <ele>40.0321</ele>
        <time>2012-09-20T18:03:40Z</time>
      </trkpt>
      <trkpt lat="59.9524351" lon="17.7246839">
        <ele>40.5128</ele>
        <time>2012-09-20T18:03:41Z</time>
      </trkpt>
      <trkpt lat="59.9524078" lon="17.7247304">
        <ele>40.5128</ele>
        <time>2012-09-20T18:03:42Z</time>
      </trkpt>
      <trkpt lat="59.9523882" lon="17.7247728">
        <ele>40.9934</ele>
        <time>2012-09-20T18:03:43Z</time>
      </trkpt>
      <trkpt lat="59.9523688" lon="17.7248148">
        <ele>41.474</ele>
        <time>2012-09-20T18:03:44Z</time>
      </trkpt>
      <trkpt lat="59.9523414" lon="17.724849">
        <ele>40.9934</ele>
        <time>2012-09-20T18:03:45Z</time>
      </trkpt>
      <trkpt lat="59.9523155" lon="17.7248946">
        <ele>41.474</ele>
        <time>2012-09-20T18:03:46Z</time>
      </trkpt>
      <trkpt lat="59.9522903" lon="17.7249448">
        <ele>41.9547</ele>
        <time>2012-09-20T18:03:47Z</time>
      </trkpt>
      <trkpt lat="59.9522672" lon="17.7249892">
        <ele>42.4354</ele>
        <time>2012-09-20T18:03:48Z</time>
      </trkpt>
      <trkpt lat="59.9522456" lon="17.7250316">
        <ele>42.4354</ele>
        <time>2012-09-20T18:03:49Z</time>
      </trkpt>
      <trkpt lat="59.9522275" lon="17.7250733">
        <ele>42.916</ele>
        <time>2012-09-20T18:03:50Z</time>
      </trkpt>
      <trkpt lat="59.9522098" lon="17.7251112">
        <ele>43.3966</ele>
        <time>2012-09-20T18:03:51Z</time>
      </trkpt>
      <trkpt lat="59.9521902" lon="17.7251474">
        <ele>43.8773</ele>
        <time>2012-09-20T18:03:52Z</time>
      </trkpt>
      <trkpt lat="59.9521736" lon="17.7251774">
        <ele>44.8386</ele>
        <time>2012-09-20T18:03:53Z</time>
      </trkpt>
      <trkpt lat="59.9521595" lon="17.7252148">
        <ele>45.7999</ele>
        <time>2012-09-20T18:03:54Z</time>
      </trkpt>
      <trkpt lat="59.9521452" lon="17.7252539">
        <ele>46.7612</ele>
        <time>2012-09-20T18:03:55Z</time>
      </trkpt>
      <trkpt lat="59.9521274" lon="17.7252967">
        <ele>47.2418</ele>
        <time>2012-09-20T18:03:56Z</time>
      </trkpt>
      <trkpt lat="59.9521066" lon="17.7253448">
        <ele>47.7225</ele>
        <time>2012-09-20T18:03:57Z</time>
      </trkpt>
      <trkpt lat="59.9520869" lon="17.7253841">
        <ele>47.7225</ele>
        <time>2012-09-20T18:03:58Z</time>
      </trkpt>
      <trkpt lat="59.9520662" lon="17.7254184">
        <ele>47.7225</ele>
        <time>2012-09-20T18:03:59Z</time>
      </trkpt>
      <trkpt lat="59.9520488" lon="17.7254469">
        <ele>47.7225</ele>
        <time>2012-09-20T18:04:00Z</time>
      </trkpt>
      <trkpt lat="59.9520311" lon="17.7254811">
        <ele>47.7225</ele>
        <time>2012-09-20T18:04:01Z</time>
      </trkpt>
      <trkpt lat="59.9520085" lon="17.7255183">
        <ele>47.7225</ele>
        <time>2012-09-20T18:04:02Z</time>
      </trkpt>
      <trkpt lat="59.9519883" lon="17.7255555">
        <ele>47.7225</ele>
        <time>2012-09-20T18:04:03Z</time>
      </trkpt>
      <trkpt lat="59.9519729" lon="17.7255963">
        <ele>47.7225</ele>
        <time>2012-09-20T18:04:04Z</time>
      </trkpt>
      <trkpt lat="59.9519574" lon="17.7256311">
        <ele>47.7225</ele>
        <time>2012-09-20T18:04:05Z</time>
      </trkpt>
      <trkpt lat="59.951941" lon="17.7256507">
        <ele>47.2418</ele>
        <time>2012-09-20T18:04:06Z</time>
      </trkpt>
      <trkpt lat="59.9519245" lon="17.7256829">
        <ele>47.7225</ele>
        <time>2012-09-20T18:04:07Z</time>
      </trkpt>
      <trkpt lat="59.9519028" lon="17.7257255">
        <ele>47.7225</ele>
        <time>2012-09-20T18:04:08Z</time>
      </trkpt>
      <trkpt lat="59.9518756" lon="17.7257714">
        <ele>47.7225</ele>
        <time>2012-09-20T18:04:09Z</time>
      </trkpt>
      <trkpt lat="59.9518477" lon="17.725812">
        <ele>47.7225</ele>
        <time>2012-09-20T18:04:10Z</time>
      </trkpt>
      <trkpt lat="59.9518214" lon="17.725841">
        <ele>47.7225</ele>
        <time>2012-09-20T18:04:11Z</time>
      </trkpt>
      <trkpt lat="59.9517984" lon="17.7258616">
        <ele>47.2418</ele>
        <time>2012-09-20T18:04:12Z</time>
      </trkpt>
      <trkpt lat="59.9517747" lon="17.7258913">
        <ele>47.2418</ele>
        <time>2012-09-20T18:04:13Z</time>
      </trkpt>
      <trkpt lat="59.9517541" lon="17.7259112">
        <ele>46.7612</ele>
        <time>2012-09-20T18:04:14Z</time>
      </trkpt>
      <trkpt lat="59.9517348" lon="17.7259327">
        <ele>46.2806</ele>
        <time>2012-09-20T18:04:15Z</time>
      </trkpt>
      <trkpt lat="59.9517114" lon="17.7259581">
        <ele>45.7999</ele>
        <time>2012-09-20T18:04:16Z</time>
      </trkpt>
      <trkpt lat="59.9516859" lon="17.7259835">
        <ele>45.3192</ele>
        <time>2012-09-20T18:04:17Z</time>
      </trkpt>
      <trkpt lat="59.9516621" lon="17.7260134">
        <ele>45.3192</ele>
        <time>2012-09-20T18:04:18Z</time>
      </trkpt>
      <trkpt lat="59.9516389" lon="17.7260575">
        <ele>45.3192</ele>
        <time>2012-09-20T18:04:19Z</time>
      </trkpt>
      <trkpt lat="59.9516199" lon="17.7260922">
        <ele>45.3192</ele>
        <time>2012-09-20T18:04:20Z</time>
      </trkpt>
      <trkpt lat="59.9516021" lon="17.7261288">
        <ele>44.8386</ele>
        <time>2012-09-20T18:04:21Z</time>
      </trkpt>
      <trkpt lat="59.951586" lon="17.7261662">
        <ele>44.8386</ele>
        <time>2012-09-20T18:04:22Z</time>
      </trkpt>
      <trkpt lat="59.9515748" lon="17.7261941">
        <ele>44.358</ele>
        <time>2012-09-20T18:04:23Z</time>
      </trkpt>
      <trkpt lat="59.9515622" lon="17.7262265">
        <ele>43.8773</ele>
        <time>2012-09-20T18:04:24Z</time>
      </trkpt>
      <trkpt lat="59.9515474" lon="17.7262673">
        <ele>43.3966</ele>
        <time>2012-09-20T18:04:25Z</time>
      </trkpt>
      <trkpt lat="59.9515324" lon="17.7263112">
        <ele>43.8773</ele>
        <time>2012-09-20T18:04:26Z</time>
      </trkpt>
      <trkpt lat="59.9515137" lon="17.7263651">
        <ele>44.8386</ele>
        <time>2012-09-20T18:04:27Z</time>
      </trkpt>
      <trkpt lat="59.9515011" lon="17.7263998">
        <ele>44.8386</ele>
        <time>2012-09-20T18:04:28Z</time>
      </trkpt>
      <trkpt lat="59.9514923" lon="17.726432">
        <ele>45.3192</ele>
        <time>2012-09-20T18:04:29Z</time>
      </trkpt>
      <trkpt lat="59.9514836" lon="17.7264629">
        <ele>44.8386</ele>
        <time>2012-09-20T18:04:30Z</time>
      </trkpt>
      <trkpt lat="59.9514717" lon="17.7265066">
        <ele>44.8386</ele>
        <time>2012-09-20T18:04:31Z</time>
      </trkpt>
      <trkpt lat="59.9514651" lon="17.7265419">
        <ele>44.8386</ele>
        <time>2012-09-20T18:04:32Z</time>
      </trkpt>
      <trkpt lat="59.9514596" lon="17.726576">
        <ele>45.7999</ele>
        <time>2012-09-20T18:04:33Z</time>
      </trkpt>
      <trkpt lat="59.9514484" lon="17.7266118">
        <ele>46.2806</ele>
        <time>2012-09-20T18:04:34Z</time>
      </trkpt>
      <trkpt lat="59.9514379" lon="17.7266417">
        <ele>46.7612</ele>
        <time>2012-09-20T18:04:35Z</time>
      </trkpt>
      <trkpt lat="59.9514272" lon="17.7266725">
        <ele>46.7612</ele>
        <time>2012-09-20T18:04:36Z</time>
      </trkpt>
      <trkpt lat="59.9514174" lon="17.7267114">
        <ele>46.7612</ele>
        <time>2012-09-20T18:04:37Z</time>
      </trkpt>
      <trkpt lat="59.9514152" lon="17.7267522">
        <ele>46.2806</ele>
        <time>2012-09-20T18:04:38Z</time>
      </trkpt>
      <trkpt lat="59.9514189" lon="17.7267932">
        <ele>46.2806</ele>
        <time>2012-09-20T18:04:39Z</time>
      </trkpt>
      <trkpt lat="59.9514171" lon="17.7268408">
        <ele>46.7612</ele>
        <time>2012-09-20T18:04:40Z</time>
      </trkpt>
      <trkpt lat="59.9514155" lon="17.7268925">
        <ele>46.7612</ele>
        <time>2012-09-20T18:04:41Z</time>
      </trkpt>
      <trkpt lat="59.9514157" lon="17.7269418">
        <ele>46.7612</ele>
        <time>2012-09-20T18:04:42Z</time>
      </trkpt>
      <trkpt lat="59.951422" lon="17.7269862">
        <ele>46.7612</ele>
        <time>2012-09-20T18:04:43Z</time>
      </trkpt>
      <trkpt lat="59.9514374" lon="17.7270251">
        <ele>46.2806</ele>
        <time>2012-09-20T18:04:44Z</time>
      </trkpt>
      <trkpt lat="59.9514551" lon="17.7270605">
        <ele>46.2806</ele>
        <time>2012-09-20T18:04:45Z</time>
      </trkpt>
      <trkpt lat="59.9514733" lon="17.7271045">
        <ele>46.7612</ele>
        <time>2012-09-20T18:04:46Z</time>
      </trkpt>
      <trkpt lat="59.9514865" lon="17.7271563">
        <ele>47.2418</ele>
        <time>2012-09-20T18:04:47Z</time>
      </trkpt>
      <trkpt lat="59.9514927" lon="17.7272045">
        <ele>47.2418</ele>
        <time>2012-09-20T18:04:48Z</time>
      </trkpt>
      <trkpt lat="59.9514967" lon="17.7272475">
        <ele>47.2418</ele>
        <time>2012-09-20T18:04:49Z</time>
      </trkpt>
      <trkpt lat="59.9515055" lon="17.7272913">
        <ele>47.2418</ele>
        <time>2012-09-20T18:04:50Z</time>
      </trkpt>
      <trkpt lat="59.9515142" lon="17.7273312">
        <ele>47.2418</ele>
        <time>2012-09-20T18:04:51Z</time>
      </trkpt>
      <trkpt lat="59.9515176" lon="17.7273835">
        <ele>46.7612</ele>
        <time>2012-09-20T18:04:52Z</time>
      </trkpt>
      <trkpt lat="59.9515177" lon="17.7274414">
        <ele>47.2418</ele>
        <time>2012-09-20T18:04:53Z</time>
      </trkpt>
      <trkpt lat="59.9515176" lon="17.7274966">
        <ele>47.7225</ele>
        <time>2012-09-20T18:04:54Z</time>
      </trkpt>
      <trkpt lat="59.9515173" lon="17.7275521">
        <ele>48.684</ele>
        <time>2012-09-20T18:04:55Z</time>
      </trkpt>
      <trkpt lat="59.9515252" lon="17.7275984">
        <ele>48.684</ele>
        <time>2012-09-20T18:04:56Z</time>
      </trkpt>
      <trkpt lat="59.9515407" lon="17.727644">
        <ele>48.684</ele>
        <time>2012-09-20T18:04:57Z</time>
      </trkpt>
      <trkpt lat="59.9515542" lon="17.7276856">
        <ele>48.684</ele>
        <time>2012-09-20T18:04:58Z</time>
      </trkpt>
      <trkpt lat="59.9515686" lon="17.7277229">
        <ele>48.684</ele>
        <time>2012-09-20T18:04:59Z</time>
      </trkpt>
      <trkpt lat="59.9515875" lon="17.72777">
        <ele>49.1646</ele>
        <time>2012-09-20T18:05:00Z</time>
      </trkpt>
      <trkpt lat="59.9516049" lon="17.7278163">
        <ele>49.6453</ele>
        <time>2012-09-20T18:05:01Z</time>
      </trkpt>
      <trkpt lat="59.9516214" lon="17.7278496">
        <ele>49.1646</ele>
        <time>2012-09-20T18:05:02Z</time>
      </trkpt>
      <trkpt lat="59.9516426" lon="17.7278731">
        <ele>49.1646</ele>
        <time>2012-09-20T18:05:03Z</time>
      </trkpt>
      <trkpt lat="59.9516634" lon="17.7278971">
        <ele>49.1646</ele>
        <time>2012-09-20T18:05:04Z</time>
      </trkpt>
      <trkpt lat="59.9516839" lon="17.7279104">
        <ele>48.2034</ele>
        <time>2012-09-20T18:05:05Z</time>
      </trkpt>
      <trkpt lat="59.951706" lon="17.727918">
        <ele>48.2034</ele>
        <time>2012-09-20T18:05:06Z</time>
      </trkpt>
      <trkpt lat="59.9517291" lon="17.727927">
        <ele>47.7225</ele>
        <time>2012-09-20T18:05:07Z</time>
      </trkpt>
      <trkpt lat="59.9517541" lon="17.7279332">
        <ele>46.7612</ele>
        <time>2012-09-20T18:05:08Z</time>
      </trkpt>
      <trkpt lat="59.9517789" lon="17.7279341">
        <ele>46.7612</ele>
        <time>2012-09-20T18:05:09Z</time>
      </trkpt>
      <trkpt lat="59.9518001" lon="17.7279275">
        <ele>45.7999</ele>
        <time>2012-09-20T18:05:10Z</time>
      </trkpt>
      <trkpt lat="59.9518232" lon="17.7279192">
        <ele>45.3192</ele>
        <time>2012-09-20T18:05:11Z</time>
      </trkpt>
      <trkpt lat="59.9518462" lon="17.7279009">
        <ele>45.3192</ele>
        <time>2012-09-20T18:05:12Z</time>
      </trkpt>
      <trkpt lat="59.951869" lon="17.7278828">
        <ele>44.8386</ele>
        <time>2012-09-20T18:05:13Z</time>
      </trkpt>
      <trkpt lat="59.9518908" lon="17.7278616">
        <ele>44.8386</ele>
        <time>2012-09-20T18:05:14Z</time>
      </trkpt>
      <trkpt lat="59.9519104" lon="17.7278415">
        <ele>43.8773</ele>
        <time>2012-09-20T18:05:15Z</time>
      </trkpt>
      <trkpt lat="59.9519379" lon="17.7278152">
        <ele>44.358</ele>
        <time>2012-09-20T18:05:16Z</time>
      </trkpt>
      <trkpt lat="59.9519581" lon="17.7277816">
        <ele>43.8773</ele>
        <time>2012-09-20T18:05:17Z</time>
      </trkpt>
      <trkpt lat="59.9519743" lon="17.7277462">
        <ele>43.3966</ele>
        <time>2012-09-20T18:05:18Z</time>
      </trkpt>
      <trkpt lat="59.9519779" lon="17.7277017">
        <ele>42.916</ele>
        <time>2012-09-20T18:05:19Z</time>
      </trkpt>
      <trkpt lat="59.9519867" lon="17.7276534">
        <ele>42.4354</ele>
        <time>2012-09-20T18:05:20Z</time>
      </trkpt>
      <trkpt lat="59.951998" lon="17.7276192">
        <ele>41.9547</ele>
        <time>2012-09-20T18:05:21Z</time>
      </trkpt>
      <trkpt lat="59.9520107" lon="17.7275743">
        <ele>41.9547</ele>
        <time>2012-09-20T18:05:22Z</time>
      </trkpt>
      <trkpt lat="59.9520188" lon="17.7275166">
        <ele>41.474</ele>
        <time>2012-09-20T18:05:23Z</time>
      </trkpt>
      <trkpt lat="59.9520266" lon="17.7274598">
        <ele>41.474</ele>
        <time>2012-09-20T18:05:24Z</time>
      </trkpt>
      <trkpt lat="59.9520366" lon="17.7274045">
        <ele>41.474</ele>
        <time>2012-09-20T18:05:25Z</time>
      </trkpt>
      <trkpt lat="59.952048" lon="17.7273561">
        <ele>41.9547</ele>
        <time>2012-09-20T18:05:26Z</time>
      </trkpt>
      <trkpt lat="59.9520568" lon="17.727308">
        <ele>41.9547</ele>
        <time>2012-09-20T18:05:27Z</time>
      </trkpt>
      <trkpt lat="59.9520636" lon="17.7272583">
        <ele>40.5128</ele>
        <time>2012-09-20T18:05:28Z</time>
      </trkpt>
      <trkpt lat="59.9520739" lon="17.7272114">
        <ele>40.5128</ele>
        <time>2012-09-20T18:05:29Z</time>
      </trkpt>
      <trkpt lat="59.9520685" lon="17.7271504">
        <ele>40.9934</ele>
        <time>2012-09-20T18:05:30Z</time>
      </trkpt>
      <trkpt lat="59.9520734" lon="17.7271029">
        <ele>40.5128</ele>
        <time>2012-09-20T18:05:31Z</time>
      </trkpt>
      <trkpt lat="59.9520776" lon="17.7270495">
        <ele>40.0321</ele>
        <time>2012-09-20T18:05:32Z</time>
      </trkpt>
      <trkpt lat="59.9520812" lon="17.7270018">
        <ele>40.5128</ele>
        <time>2012-09-20T18:05:33Z</time>
      </trkpt>
      <trkpt lat="59.9520881" lon="17.7269563">
        <ele>40.5128</ele>
        <time>2012-09-20T18:05:34Z</time>
      </trkpt>
      <trkpt lat="59.9520959" lon="17.7269091">
        <ele>40.5128</ele>
        <time>2012-09-20T18:05:35Z</time>
      </trkpt>
      <trkpt lat="59.952105" lon="17.7268687">
        <ele>40.0321</ele>
        <time>2012-09-20T18:05:36Z</time>
      </trkpt>
      <trkpt lat="59.9521141" lon="17.7268283">
        <ele>40.0321</ele>
        <time>2012-09-20T18:05:37Z</time>
      </trkpt>
      <trkpt lat="59.9521257" lon="17.7267887">
        <ele>40.0321</ele>
        <time>2012-09-20T18:05:38Z</time>
      </trkpt>
      <trkpt lat="59.9521373" lon="17.7267439">
        <ele>40.5128</ele>
        <time>2012-09-20T18:05:39Z</time>
      </trkpt>
      <trkpt lat="59.9521477" lon="17.7266963">
        <ele>40.9934</ele>
        <time>2012-09-20T18:05:40Z</time>
      </trkpt>
      <trkpt lat="59.9521566" lon="17.7266501">
        <ele>40.9934</ele>
        <time>2012-09-20T18:05:41Z</time>
      </trkpt>
      <trkpt lat="59.9521634" lon="17.7266014">
        <ele>40.5128</ele>
        <time>2012-09-20T18:05:42Z</time>
      </trkpt>
      <trkpt lat="59.9521752" lon="17.7265572">
        <ele>40.5128</ele>
        <time>2012-09-20T18:05:43Z</time>
      </trkpt>
      <trkpt lat="59.9521915" lon="17.7265222">
        <ele>40.5128</ele>
        <time>2012-09-20T18:05:44Z</time>
      </trkpt>
      <trkpt lat="59.9522093" lon="17.7264924">
        <ele>40.5128</ele>
        <time>2012-09-20T18:05:45Z</time>
      </trkpt>
      <trkpt lat="59.9522276" lon="17.7264577">
        <ele>40.5128</ele>
        <time>2012-09-20T18:05:46Z</time>
      </trkpt>
      <trkpt lat="59.9522462" lon="17.7264143">
        <ele>40.5128</ele>
        <time>2012-09-20T18:05:47Z</time>
      </trkpt>
      <trkpt lat="59.9522638" lon="17.7263755">
        <ele>40.5128</ele>
        <time>2012-09-20T18:05:48Z</time>
      </trkpt>
      <trkpt lat="59.9522798" lon="17.7263484">
        <ele>40.0321</ele>
        <time>2012-09-20T18:05:49Z</time>
      </trkpt>
      <trkpt lat="59.9522952" lon="17.726316">
        <ele>40.0321</ele>
        <time>2012-09-20T18:05:50Z</time>
      </trkpt>
      <trkpt lat="59.9523082" lon="17.7262786">
        <ele>39.5513</ele>
        <time>2012-09-20T18:05:51Z</time>
      </trkpt>
      <trkpt lat="59.9523213" lon="17.7262433">
        <ele>39.5513</ele>
        <time>2012-09-20T18:05:52Z</time>
      </trkpt>
      <trkpt lat="59.9523384" lon="17.7262087">
        <ele>39.5513</ele>
        <time>2012-09-20T18:05:53Z</time>
      </trkpt>
      <trkpt lat="59.9523574" lon="17.726179">
        <ele>39.5513</ele>
        <time>2012-09-20T18:05:54Z</time>
      </trkpt>
      <trkpt lat="59.9523742" lon="17.7261467">
        <ele>39.0707</ele>
        <time>2012-09-20T18:05:55Z</time>
      </trkpt>
      <trkpt lat="59.9523877" lon="17.7261042">
        <ele>39.5513</ele>
        <time>2012-09-20T18:05:56Z</time>
      </trkpt>
      <trkpt lat="59.9523992" lon="17.7260649">
        <ele>39.0707</ele>
        <time>2012-09-20T18:05:57Z</time>
      </trkpt>
      <trkpt lat="59.9524158" lon="17.7260294">
        <ele>38.5901</ele>
        <time>2012-09-20T18:05:58Z</time>
      </trkpt>
      <trkpt lat="59.9524336" lon="17.7259974">
        <ele>38.5901</ele>
        <time>2012-09-20T18:05:59Z</time>
      </trkpt>
      <trkpt lat="59.9524482" lon="17.7259613">
        <ele>38.5901</ele>
        <time>2012-09-20T18:06:00Z</time>
      </trkpt>
      <trkpt lat="59.9524586" lon="17.7259162">
        <ele>39.0707</ele>
        <time>2012-09-20T18:06:01Z</time>
      </trkpt>
      <trkpt lat="59.9524707" lon="17.725873">
        <ele>39.0707</ele>
        <time>2012-09-20T18:06:02Z</time>
      </trkpt>
      <trkpt lat="59.952486" lon="17.7258291">
        <ele>39.5513</ele>
        <time>2012-09-20T18:06:03Z</time>
      </trkpt>
      <trkpt lat="59.9525072" lon="17.7257888">
        <ele>39.5513</ele>
        <time>2012-09-20T18:06:04Z</time>
      </trkpt>
      <trkpt lat="59.9525329" lon="17.7257503">
        <ele>39.5513</ele>
        <time>2012-09-20T18:06:05Z</time>
      </trkpt>
      <trkpt lat="59.9525563" lon="17.7257106">
        <ele>39.5513</ele>
        <time>2012-09-20T18:06:06Z</time>
      </trkpt>
      <trkpt lat="59.9525802" lon="17.7256742">
        <ele>40.0321</ele>
        <time>2012-09-20T18:06:07Z</time>
      </trkpt>
      <trkpt lat="59.9526006" lon="17.7256395">
        <ele>40.0321</ele>
        <time>2012-09-20T18:06:08Z</time>
      </trkpt>
      <trkpt lat="59.9526206" lon="17.7256131">
        <ele>39.5513</ele>
        <time>2012-09-20T18:06:09Z</time>
      </trkpt>
      <trkpt lat="59.9526402" lon="17.7255944">
        <ele>39.5513</ele>
        <time>2012-09-20T18:06:10Z</time>
      </trkpt>
      <trkpt lat="59.9526584" lon="17.7255696">
        <ele>40.0321</ele>
        <time>2012-09-20T18:06:11Z</time>
      </trkpt>
      <trkpt lat="59.9526785" lon="17.7255379">
        <ele>40.0321</ele>
        <time>2012-09-20T18:06:12Z</time>
      </trkpt>
      <trkpt lat="59.9526972" lon="17.725496">
        <ele>40.0321</ele>
        <time>2012-09-20T18:06:13Z</time>
      </trkpt>
      <trkpt lat="59.9527149" lon="17.7254546">
        <ele>40.5128</ele>
        <time>2012-09-20T18:06:14Z</time>
      </trkpt>
      <trkpt lat="59.9527319" lon="17.725417">
        <ele>40.0321</ele>
        <time>2012-09-20T18:06:15Z</time>
      </trkpt>
      <trkpt lat="59.9527479" lon="17.7253784">
        <ele>40.9934</ele>
        <time>2012-09-20T18:06:16Z</time>
      </trkpt>
      <trkpt lat="59.9527595" lon="17.7253312">
        <ele>41.9547</ele>
        <time>2012-09-20T18:06:17Z</time>
      </trkpt>
      <trkpt lat="59.9527739" lon="17.7252847">
        <ele>42.4354</ele>
        <time>2012-09-20T18:06:18Z</time>
      </trkpt>
      <trkpt lat="59.9527921" lon="17.7252479">
        <ele>42.4354</ele>
        <time>2012-09-20T18:06:19Z</time>
      </trkpt>
      <trkpt lat="59.9528049" lon="17.7252112">
        <ele>42.4354</ele>
        <time>2012-09-20T18:06:20Z</time>
      </trkpt>
      <trkpt lat="59.9528181" lon="17.7251867">
        <ele>42.4354</ele>
        <time>2012-09-20T18:06:21Z</time>
      </trkpt>
      <trkpt lat="59.9528349" lon="17.7251701">
        <ele>42.916</ele>
        <time>2012-09-20T18:06:22Z</time>
      </trkpt>
      <trkpt lat="59.9528507" lon="17.7251425">
        <ele>42.916</ele>
        <time>2012-09-20T18:06:23Z</time>
      </trkpt>
      <trkpt lat="59.952868" lon="17.7251106">
        <ele>43.3966</ele>
        <time>2012-09-20T18:06:24Z</time>
      </trkpt>
      <trkpt lat="59.9528875" lon="17.7250757">
        <ele>42.916</ele>
        <time>2012-09-20T18:06:25Z</time>
      </trkpt>
      <trkpt lat="59.9529077" lon="17.7250425">
        <ele>42.916</ele>
        <time>2012-09-20T18:06:26Z</time>
      </trkpt>
      <trkpt lat="59.9529258" lon="17.7250061">
        <ele>42.916</ele>
        <time>2012-09-20T18:06:27Z</time>
      </trkpt>
      <trkpt lat="59.9529417" lon="17.7249681">
        <ele>42.916</ele>
        <time>2012-09-20T18:06:28Z</time>
      </trkpt>
      <trkpt lat="59.9529597" lon="17.7249345">
        <ele>43.3966</ele>
        <time>2012-09-20T18:06:29Z</time>
      </trkpt>
      <trkpt lat="59.9529763" lon="17.7249012">
        <ele>43.3966</ele>
        <time>2012-09-20T18:06:30Z</time>
      </trkpt>
      <trkpt lat="59.9529966" lon="17.724878">
        <ele>43.3966</ele>
        <time>2012-09-20T18:06:31Z</time>
      </trkpt>
      <trkpt lat="59.9530195" lon="17.7248532">
        <ele>43.3966</ele>
        <time>2012-09-20T18:06:32Z</time>
      </trkpt>
      <trkpt lat="59.9530385" lon="17.7248229">
        <ele>43.3966</ele>
        <time>2012-09-20T18:06:33Z</time>
      </trkpt>
      <trkpt lat="59.9530604" lon="17.724791">
        <ele>43.3966</ele>
        <time>2012-09-20T18:06:34Z</time>
      </trkpt>
      <trkpt lat="59.9530748" lon="17.7247537">
        <ele>43.3966</ele>
        <time>2012-09-20T18:06:35Z</time>
      </trkpt>
      <trkpt lat="59.9530949" lon="17.724733">
        <ele>42.916</ele>
        <time>2012-09-20T18:06:36Z</time>
      </trkpt>
      <trkpt lat="59.9531185" lon="17.7247146">
        <ele>42.916</ele>
        <time>2012-09-20T18:06:37Z</time>
      </trkpt>
      <trkpt lat="59.9531402" lon="17.7246931">
        <ele>42.916</ele>
        <time>2012-09-20T18:06:38Z</time>
      </trkpt>
      <trkpt lat="59.953162" lon="17.7246668">
        <ele>42.916</ele>
        <time>2012-09-20T18:06:39Z</time>
      </trkpt>
      <trkpt lat="59.9531796" lon="17.7246351">
        <ele>42.4354</ele>
        <time>2012-09-20T18:06:40Z</time>
      </trkpt>
      <trkpt lat="59.9531923" lon="17.7245919">
        <ele>42.4354</ele>
        <time>2012-09-20T18:06:41Z</time>
      </trkpt>
      <trkpt lat="59.9532044" lon="17.7245456">
        <ele>42.4354</ele>
        <time>2012-09-20T18:06:42Z</time>
      </trkpt>
      <trkpt lat="59.9532111" lon="17.7244919">
        <ele>42.4354</ele>
        <time>2012-09-20T18:06:43Z</time>
      </trkpt>
      <trkpt lat="59.9532279" lon="17.7244528">
        <ele>41.9547</ele>
        <time>2012-09-20T18:06:44Z</time>
      </trkpt>
      <trkpt lat="59.9532392" lon="17.724418">
        <ele>42.4354</ele>
        <time>2012-09-20T18:06:45Z</time>
      </trkpt>
      <trkpt lat="59.9532526" lon="17.7243929">
        <ele>42.916</ele>
        <time>2012-09-20T18:06:46Z</time>
      </trkpt>
      <trkpt lat="59.9532636" lon="17.7243579">
        <ele>42.916</ele>
        <time>2012-09-20T18:06:47Z</time>
      </trkpt>
      <trkpt lat="59.9532734" lon="17.7243221">
        <ele>42.916</ele>
        <time>2012-09-20T18:06:48Z</time>
      </trkpt>
      <trkpt lat="59.9532842" lon="17.7242813">
        <ele>43.8773</ele>
        <time>2012-09-20T18:06:49Z</time>
      </trkpt>
      <trkpt lat="59.9533014" lon="17.7242398">
        <ele>44.358</ele>
        <time>2012-09-20T18:06:50Z</time>
      </trkpt>
      <trkpt lat="59.9533179" lon="17.724201">
        <ele>44.8386</ele>
        <time>2012-09-20T18:06:51Z</time>
      </trkpt>
      <trkpt lat="59.9533306" lon="17.7241633">
        <ele>44.8386</ele>
        <time>2012-09-20T18:06:52Z</time>
      </trkpt>
      <trkpt lat="59.9533467" lon="17.7241207">
        <ele>45.7999</ele>
        <time>2012-09-20T18:06:53Z</time>
      </trkpt>
      <trkpt lat="59.9533676" lon="17.7240756">
        <ele>47.7225</ele>
        <time>2012-09-20T18:06:54Z</time>
      </trkpt>
      <trkpt lat="59.9533858" lon="17.7240267">
        <ele>48.684</ele>
        <time>2012-09-20T18:06:55Z</time>
      </trkpt>
      <trkpt lat="59.9534049" lon="17.7239875">
        <ele>49.1646</ele>
        <time>2012-09-20T18:06:56Z</time>
      </trkpt>
      <trkpt lat="59.9534241" lon="17.7239576">
        <ele>49.6453</ele>
        <time>2012-09-20T18:06:57Z</time>
      </trkpt>
      <trkpt lat="59.9534489" lon="17.7239188">
        <ele>51.0872</ele>
        <time>2012-09-20T18:06:58Z</time>
      </trkpt>
      <trkpt lat="59.9534649" lon="17.7238965">
        <ele>51.5679</ele>
        <time>2012-09-20T18:06:59Z</time>
      </trkpt>
      <trkpt lat="59.9534781" lon="17.723861">
        <ele>52.0486</ele>
        <time>2012-09-20T18:07:00Z</time>
      </trkpt>
      <trkpt lat="59.9534912" lon="17.723827">
        <ele>52.5292</ele>
        <time>2012-09-20T18:07:01Z</time>
      </trkpt>
      <trkpt lat="59.95351" lon="17.7237911">
        <ele>53.4905</ele>
        <time>2012-09-20T18:07:02Z</time>
      </trkpt>
      <trkpt lat="59.9535234" lon="17.7237428">
        <ele>53.9712</ele>
        <time>2012-09-20T18:07:03Z</time>
      </trkpt>
      <trkpt lat="59.9535427" lon="17.7237032">
        <ele>54.9324</ele>
        <time>2012-09-20T18:07:04Z</time>
      </trkpt>
      <trkpt lat="59.953563" lon="17.723669">
        <ele>55.8938</ele>
        <time>2012-09-20T18:07:05Z</time>
      </trkpt>
      <trkpt lat="59.9535907" lon="17.723653">
        <ele>56.8551</ele>
        <time>2012-09-20T18:07:06Z</time>
      </trkpt>
      <trkpt lat="59.9536192" lon="17.7236394">
        <ele>57.8165</ele>
        <time>2012-09-20T18:07:07Z</time>
      </trkpt>
      <trkpt lat="59.9536415" lon="17.7236197">
        <ele>58.2971</ele>
        <time>2012-09-20T18:07:08Z</time>
      </trkpt>
      <trkpt lat="59.9536572" lon="17.7235908">
        <ele>58.7777</ele>
        <time>2012-09-20T18:07:09Z</time>
      </trkpt>
      <trkpt lat="59.9536763" lon="17.7235667">
        <ele>58.7777</ele>
        <time>2012-09-20T18:07:10Z</time>
      </trkpt>
      <trkpt lat="59.9536987" lon="17.7235357">
        <ele>59.7391</ele>
        <time>2012-09-20T18:07:11Z</time>
      </trkpt>
      <trkpt lat="59.9537246" lon="17.7235113">
        <ele>60.7003</ele>
        <time>2012-09-20T18:07:12Z</time>
      </trkpt>
      <trkpt lat="59.953749" lon="17.7234892">
        <ele>60.7003</ele>
        <time>2012-09-20T18:07:13Z</time>
      </trkpt>
      <trkpt lat="59.9537717" lon="17.7234689">
        <ele>60.7003</ele>
        <time>2012-09-20T18:07:14Z</time>
      </trkpt>
      <trkpt lat="59.9537904" lon="17.7234462">
        <ele>60.7003</ele>
        <time>2012-09-20T18:07:15Z</time>
      </trkpt>
      <trkpt lat="59.9538077" lon="17.7234225">
        <ele>61.181</ele>
        <time>2012-09-20T18:07:16Z</time>
      </trkpt>
      <trkpt lat="59.953825" lon="17.7234094">
        <ele>61.181</ele>
        <time>2012-09-20T18:07:17Z</time>
      </trkpt>
      <trkpt lat="59.9538463" lon="17.7234131">
        <ele>61.181</ele>
        <time>2012-09-20T18:07:18Z</time>
      </trkpt>
      <trkpt lat="59.953859" lon="17.723407">
        <ele>61.181</ele>
        <time>2012-09-20T18:07:19Z</time>
      </trkpt>
      <trkpt lat="59.9538759" lon="17.7233882">
        <ele>60.2197</ele>
        <time>2012-09-20T18:07:20Z</time>
      </trkpt>
      <trkpt lat="59.9538896" lon="17.7233659">
        <ele>58.7777</ele>
        <time>2012-09-20T18:07:21Z</time>
      </trkpt>
      <trkpt lat="59.9539057" lon="17.7233429">
        <ele>57.8165</ele>
        <time>2012-09-20T18:07:22Z</time>
      </trkpt>
      <trkpt lat="59.9539282" lon="17.7233215">
        <ele>57.3358</ele>
        <time>2012-09-20T18:07:23Z</time>
      </trkpt>
      <trkpt lat="59.9539473" lon="17.7232986">
        <ele>56.3745</ele>
        <time>2012-09-20T18:07:24Z</time>
      </trkpt>
      <trkpt lat="59.9539664" lon="17.7232752">
        <ele>56.3745</ele>
        <time>2012-09-20T18:07:25Z</time>
      </trkpt>
      <trkpt lat="59.9539877" lon="17.7232505">
        <ele>55.8938</ele>
        <time>2012-09-20T18:07:26Z</time>
      </trkpt>
      <trkpt lat="59.9540093" lon="17.7232424">
        <ele>54.4518</ele>
        <time>2012-09-20T18:07:27Z</time>
      </trkpt>
      <trkpt lat="59.9540299" lon="17.7232303">
        <ele>53.4905</ele>
        <time>2012-09-20T18:07:28Z</time>
      </trkpt>
      <trkpt lat="59.9540505" lon="17.7232111">
        <ele>53.4905</ele>
        <time>2012-09-20T18:07:29Z</time>
      </trkpt>
      <trkpt lat="59.9540699" lon="17.7231989">
        <ele>53.4905</ele>
        <time>2012-09-20T18:07:30Z</time>
      </trkpt>
      <trkpt lat="59.9540937" lon="17.7232033">
        <ele>53.4905</ele>
        <time>2012-09-20T18:07:31Z</time>
      </trkpt>
      <trkpt lat="59.9541146" lon="17.7232072">
        <ele>53.9712</ele>
        <time>2012-09-20T18:07:32Z</time>
      </trkpt>
      <trkpt lat="59.9541435" lon="17.7232151">
        <ele>53.4905</ele>
        <time>2012-09-20T18:07:33Z</time>
      </trkpt>
      <trkpt lat="59.954161" lon="17.7232245">
        <ele>52.5292</ele>
        <time>2012-09-20T18:07:34Z</time>
      </trkpt>
      <trkpt lat="59.9541896" lon="17.7232373">
        <ele>53.0098</ele>
        <time>2012-09-20T18:07:35Z</time>
      </trkpt>
      <trkpt lat="59.9542211" lon="17.723251">
        <ele>52.5292</ele>
        <time>2012-09-20T18:07:36Z</time>
      </trkpt>
      <trkpt lat="59.9542524" lon="17.723265">
        <ele>53.4905</ele>
        <time>2012-09-20T18:07:37Z</time>
      </trkpt>
      <trkpt lat="59.9542772" lon="17.7232767">
        <ele>53.0098</ele>
        <time>2012-09-20T18:07:38Z</time>
      </trkpt>
      <trkpt lat="59.9543033" lon="17.7233001">
        <ele>52.5292</ele>
        <time>2012-09-20T18:07:39Z</time>
      </trkpt>
      <trkpt lat="59.9543302" lon="17.7233193">
        <ele>52.5292</ele>
        <time>2012-09-20T18:07:40Z</time>
      </trkpt>
      <trkpt lat="59.9543563" lon="17.7233318">
        <ele>52.0486</ele>
        <time>2012-09-20T18:07:41Z</time>
      </trkpt>
      <trkpt lat="59.9543819" lon="17.7233504">
        <ele>52.0486</ele>
        <time>2012-09-20T18:07:42Z</time>
      </trkpt>
      <trkpt lat="59.9544042" lon="17.7233624">
        <ele>52.0486</ele>
        <time>2012-09-20T18:07:43Z</time>
      </trkpt>
      <trkpt lat="59.9544263" lon="17.7233711">
        <ele>51.5679</ele>
        <time>2012-09-20T18:07:44Z</time>
      </trkpt>
      <trkpt lat="59.9544485" lon="17.7233844">
        <ele>51.0872</ele>
        <time>2012-09-20T18:07:45Z</time>
      </trkpt>
      <trkpt lat="59.9544745" lon="17.7233978">
        <ele>52.0486</ele>
        <time>2012-09-20T18:07:46Z</time>
      </trkpt>
      <trkpt lat="59.9545078" lon="17.7233947">
        <ele>53.9712</ele>
        <time>2012-09-20T18:07:47Z</time>
      </trkpt>
      <trkpt lat="59.9545336" lon="17.7234043">
        <ele>54.4518</ele>
        <time>2012-09-20T18:07:48Z</time>
      </trkpt>
      <trkpt lat="59.95456" lon="17.7234208">
        <ele>54.4518</ele>
        <time>2012-09-20T18:07:49Z</time>
      </trkpt>
      <trkpt lat="59.9545954" lon="17.7234284">
        <ele>56.3745</ele>
        <time>2012-09-20T18:07:50Z</time>
      </trkpt>
      <trkpt lat="59.9546248" lon="17.7234385">
        <ele>57.8165</ele>
        <time>2012-09-20T18:07:51Z</time>
      </trkpt>
      <trkpt lat="59.9546501" lon="17.7234607">
        <ele>57.8165</ele>
        <time>2012-09-20T18:07:52Z</time>
      </trkpt>
      <trkpt lat="59.9546677" lon="17.7234815">
        <ele>57.3358</ele>
        <time>2012-09-20T18:07:53Z</time>
      </trkpt>
      <trkpt lat="59.9546879" lon="17.7234975">
        <ele>56.3745</ele>
        <time>2012-09-20T18:07:54Z</time>
      </trkpt>
      <trkpt lat="59.9547081" lon="17.7235187">
        <ele>56.3745</ele>
        <time>2012-09-20T18:07:55Z</time>
      </trkpt>
      <trkpt lat="59.9547367" lon="17.7235297">
        <ele>57.3358</ele>
        <time>2012-09-20T18:07:56Z</time>
      </trkpt>
      <trkpt lat="59.9547655" lon="17.7235322">
        <ele>57.8165</ele>
        <time>2012-09-20T18:07:57Z</time>
      </trkpt>
      <trkpt lat="59.9547857" lon="17.7235502">
        <ele>57.3358</ele>
        <time>2012-09-20T18:07:58Z</time>
      </trkpt>
      <trkpt lat="59.9548087" lon="17.7235663">
        <ele>56.3745</ele>
        <time>2012-09-20T18:07:59Z</time>
      </trkpt>
      <trkpt lat="59.9548301" lon="17.7235881">
        <ele>54.9324</ele>
        <time>2012-09-20T18:08:00Z</time>
      </trkpt>
      <trkpt lat="59.9548525" lon="17.7236196">
        <ele>53.9712</ele>
        <time>2012-09-20T18:08:01Z</time>
      </trkpt>
      <trkpt lat="59.9548761" lon="17.7236423">
        <ele>52.5292</ele>
        <time>2012-09-20T18:08:02Z</time>
      </trkpt>
      <trkpt lat="59.9548999" lon="17.7236472">
        <ele>51.5679</ele>
        <time>2012-09-20T18:08:03Z</time>
      </trkpt>
      <trkpt lat="59.9549253" lon="17.7236482">
        <ele>51.5679</ele>
        <time>2012-09-20T18:08:04Z</time>
      </trkpt>
      <trkpt lat="59.9549453" lon="17.7236484">
        <ele>51.5679</ele>
        <time>2012-09-20T18:08:05Z</time>
      </trkpt>
      <trkpt lat="59.9549662" lon="17.7236447">
        <ele>52.0486</ele>
        <time>2012-09-20T18:08:06Z</time>
      </trkpt>
      <trkpt lat="59.9549878" lon="17.7236424">
        <ele>53.0098</ele>
        <time>2012-09-20T18:08:07Z</time>
      </trkpt>
      <trkpt lat="59.9550067" lon="17.7236358">
        <ele>52.5292</ele>
        <time>2012-09-20T18:08:08Z</time>
      </trkpt>
      <trkpt lat="59.9550215" lon="17.7236343">
        <ele>53.0098</ele>
        <time>2012-09-20T18:08:09Z</time>
      </trkpt>
      <trkpt lat="59.9550354" lon="17.723626">
        <ele>52.0486</ele>
        <time>2012-09-20T18:08:10Z</time>
      </trkpt>
      <trkpt lat="59.955057" lon="17.7236119">
        <ele>52.5292</ele>
        <time>2012-09-20T18:08:11Z</time>
      </trkpt>
      <trkpt lat="59.9550724" lon="17.7235993">
        <ele>51.5679</ele>
        <time>2012-09-20T18:08:12Z</time>
      </trkpt>
      <trkpt lat="59.9550901" lon="17.7235826">
        <ele>51.5679</ele>
        <time>2012-09-20T18:08:13Z</time>
      </trkpt>
      <trkpt lat="59.9551074" lon="17.7235644">
        <ele>51.0872</ele>
        <time>2012-09-20T18:08:14Z</time>
      </trkpt>
      <trkpt lat="59.9551269" lon="17.7235431">
        <ele>50.6066</ele>
        <time>2012-09-20T18:08:15Z</time>
      </trkpt>
      <trkpt lat="59.9551461" lon="17.7235219">
        <ele>50.126</ele>
        <time>2012-09-20T18:08:16Z</time>
      </trkpt>
      <trkpt lat="59.9551604" lon="17.7234903">
        <ele>49.1646</ele>
        <time>2012-09-20T18:08:17Z</time>
      </trkpt>
      <trkpt lat="59.9551712" lon="17.7234592">
        <ele>49.1646</ele>
        <time>2012-09-20T18:08:18Z</time>
      </trkpt>
      <trkpt lat="59.9551865" lon="17.7234348">
        <ele>47.7225</ele>
        <time>2012-09-20T18:08:19Z</time>
      </trkpt>
      <trkpt lat="59.9552039" lon="17.723414">
        <ele>46.7612</ele>
        <time>2012-09-20T18:08:20Z</time>
      </trkpt>
      <trkpt lat="59.9552258" lon="17.7233928">
        <ele>46.2806</ele>
        <time>2012-09-20T18:08:21Z</time>
      </trkpt>
      <trkpt lat="59.955247" lon="17.7233776">
        <ele>46.2806</ele>
        <time>2012-09-20T18:08:22Z</time>
      </trkpt>
      <trkpt lat="59.9552749" lon="17.7233738">
        <ele>45.7999</ele>
        <time>2012-09-20T18:08:23Z</time>
      </trkpt>
      <trkpt lat="59.9553051" lon="17.7233753">
        <ele>45.7999</ele>
        <time>2012-09-20T18:08:24Z</time>
      </trkpt>
      <trkpt lat="59.9553415" lon="17.7233816">
        <ele>46.2806</ele>
        <time>2012-09-20T18:08:25Z</time>
      </trkpt>
      <trkpt lat="59.95537" lon="17.7233907">
        <ele>46.7612</ele>
        <time>2012-09-20T18:08:26Z</time>
      </trkpt>
      <trkpt lat="59.9553926" lon="17.7233921">
        <ele>46.2806</ele>
        <time>2012-09-20T18:08:27Z</time>
      </trkpt>
      <trkpt lat="59.9554188" lon="17.7233918">
        <ele>46.2806</ele>
        <time>2012-09-20T18:08:28Z</time>
      </trkpt>
      <trkpt lat="59.9554431" lon="17.7233975">
        <ele>45.7999</ele>
        <time>2012-09-20T18:08:29Z</time>
      </trkpt>
      <trkpt lat="59.955469" lon="17.7234151">
        <ele>45.7999</ele>
        <time>2012-09-20T18:08:30Z</time>
      </trkpt>
      <trkpt lat="59.9554939" lon="17.7234347">
        <ele>45.7999</ele>
        <time>2012-09-20T18:08:31Z</time>
      </trkpt>
      <trkpt lat="59.9555187" lon="17.7234466">
        <ele>45.3192</ele>
        <time>2012-09-20T18:08:32Z</time>
      </trkpt>
      <trkpt lat="59.9555493" lon="17.7234654">
        <ele>46.2806</ele>
        <time>2012-09-20T18:08:33Z</time>
      </trkpt>
      <trkpt lat="59.9555747" lon="17.7234812">
        <ele>45.7999</ele>
        <time>2012-09-20T18:08:34Z</time>
      </trkpt>
      <trkpt lat="59.9555955" lon="17.7234984">
        <ele>46.2806</ele>
        <time>2012-09-20T18:08:35Z</time>
      </trkpt>
      <trkpt lat="59.9556158" lon="17.7235219">
        <ele>46.7612</ele>
        <time>2012-09-20T18:08:36Z</time>
      </trkpt>
      <trkpt lat="59.9556365" lon="17.7235478">
        <ele>46.2806</ele>
        <time>2012-09-20T18:08:37Z</time>
      </trkpt>
      <trkpt lat="59.955654" lon="17.7235839">
        <ele>46.7612</ele>
        <time>2012-09-20T18:08:38Z</time>
      </trkpt>
      <trkpt lat="59.955667" lon="17.7236216">
        <ele>46.2806</ele>
        <time>2012-09-20T18:08:39Z</time>
      </trkpt>
      <trkpt lat="59.955677" lon="17.7236528">
        <ele>45.7999</ele>
        <time>2012-09-20T18:08:40Z</time>
      </trkpt>
      <trkpt lat="59.9556909" lon="17.7236768">
        <ele>44.8386</ele>
        <time>2012-09-20T18:08:41Z</time>
      </trkpt>
      <trkpt lat="59.9557104" lon="17.7236957">
        <ele>45.3192</ele>
        <time>2012-09-20T18:08:42Z</time>
      </trkpt>
      <trkpt lat="59.9557282" lon="17.723723">
        <ele>45.7999</ele>
        <time>2012-09-20T18:08:43Z</time>
      </trkpt>
      <trkpt lat="59.9557552" lon="17.723741">
        <ele>46.2806</ele>
        <time>2012-09-20T18:08:44Z</time>
      </trkpt>
      <trkpt lat="59.9557924" lon="17.7237472">
        <ele>48.2034</ele>
        <time>2012-09-20T18:08:45Z</time>
      </trkpt>
      <trkpt lat="59.9558245" lon="17.7237213">
        <ele>47.7225</ele>
        <time>2012-09-20T18:08:46Z</time>
      </trkpt>
      <trkpt lat="59.9558509" lon="17.7236996">
        <ele>48.2034</ele>
        <time>2012-09-20T18:08:47Z</time>
      </trkpt>
      <trkpt lat="59.9558769" lon="17.7236663">
        <ele>48.2034</ele>
        <time>2012-09-20T18:08:48Z</time>
      </trkpt>
      <trkpt lat="59.9559012" lon="17.7236354">
        <ele>48.684</ele>
        <time>2012-09-20T18:08:49Z</time>
      </trkpt>
      <trkpt lat="59.9559235" lon="17.723599">
        <ele>48.2034</ele>
        <time>2012-09-20T18:08:50Z</time>
      </trkpt>
      <trkpt lat="59.9559487" lon="17.7235546">
        <ele>47.7225</ele>
        <time>2012-09-20T18:08:51Z</time>
      </trkpt>
      <trkpt lat="59.9559673" lon="17.7235084">
        <ele>47.2418</ele>
        <time>2012-09-20T18:08:52Z</time>
      </trkpt>
      <trkpt lat="59.9559805" lon="17.7234674">
        <ele>46.2806</ele>
        <time>2012-09-20T18:08:53Z</time>
      </trkpt>
      <trkpt lat="59.955994" lon="17.7234396">
        <ele>45.7999</ele>
        <time>2012-09-20T18:08:54Z</time>
      </trkpt>
      <trkpt lat="59.9560083" lon="17.7234131">
        <ele>45.3192</ele>
        <time>2012-09-20T18:08:55Z</time>
      </trkpt>
      <trkpt lat="59.9560217" lon="17.7233787">
        <ele>45.3192</ele>
        <time>2012-09-20T18:08:56Z</time>
      </trkpt>
      <trkpt lat="59.9560312" lon="17.7233354">
        <ele>44.8386</ele>
        <time>2012-09-20T18:08:57Z</time>
      </trkpt>
      <trkpt lat="59.9560407" lon="17.7232839">
        <ele>44.8386</ele>
        <time>2012-09-20T18:08:58Z</time>
      </trkpt>
      <trkpt lat="59.9560478" lon="17.7232318">
        <ele>44.358</ele>
        <time>2012-09-20T18:08:59Z</time>
      </trkpt>
      <trkpt lat="59.9560581" lon="17.7231827">
        <ele>44.358</ele>
        <time>2012-09-20T18:09:00Z</time>
      </trkpt>
      <trkpt lat="59.9560633" lon="17.7231338">
        <ele>43.8773</ele>
        <time>2012-09-20T18:09:01Z</time>
      </trkpt>
      <trkpt lat="59.9560554" lon="17.723071">
        <ele>43.8773</ele>
        <time>2012-09-20T18:09:02Z</time>
      </trkpt>
      <trkpt lat="59.9560523" lon="17.7230091">
        <ele>44.358</ele>
        <time>2012-09-20T18:09:03Z</time>
      </trkpt>
      <trkpt lat="59.9560462" lon="17.7229594">
        <ele>45.3192</ele>
        <time>2012-09-20T18:09:04Z</time>
      </trkpt>
      <trkpt lat="59.9560384" lon="17.7229142">
        <ele>44.8386</ele>
        <time>2012-09-20T18:09:05Z</time>
      </trkpt>
      <trkpt lat="59.9560236" lon="17.7228587">
        <ele>44.8386</ele>
        <time>2012-09-20T18:09:06Z</time>
      </trkpt>
      <trkpt lat="59.9560139" lon="17.7228019">
        <ele>45.3192</ele>
        <time>2012-09-20T18:09:07Z</time>
      </trkpt>
      <trkpt lat="59.9560077" lon="17.7227406">
        <ele>45.7999</ele>
        <time>2012-09-20T18:09:08Z</time>
      </trkpt>
      <trkpt lat="59.9560001" lon="17.7226814">
        <ele>46.2806</ele>
        <time>2012-09-20T18:09:09Z</time>
      </trkpt>
      <trkpt lat="59.9559944" lon="17.722634">
        <ele>46.2806</ele>
        <time>2012-09-20T18:09:10Z</time>
      </trkpt>
      <trkpt lat="59.9559867" lon="17.7225842">
        <ele>47.2418</ele>
        <time>2012-09-20T18:09:11Z</time>
      </trkpt>
      <trkpt lat="59.9559831" lon="17.7225315">
        <ele>47.7225</ele>
        <time>2012-09-20T18:09:12Z</time>
      </trkpt>
      <trkpt lat="59.9559794" lon="17.7224799">
        <ele>47.7225</ele>
        <time>2012-09-20T18:09:13Z</time>
      </trkpt>
      <trkpt lat="59.9559759" lon="17.7224371">
        <ele>48.684</ele>
        <time>2012-09-20T18:09:14Z</time>
      </trkpt>
      <trkpt lat="59.9559675" lon="17.7223908">
        <ele>48.684</ele>
        <time>2012-09-20T18:09:15Z</time>
      </trkpt>
      <trkpt lat="59.95596" lon="17.7223439">
        <ele>49.1646</ele>
        <time>2012-09-20T18:09:16Z</time>
      </trkpt>
      <trkpt lat="59.9559556" lon="17.7223014">
        <ele>49.6453</ele>
        <time>2012-09-20T18:09:17Z</time>
      </trkpt>
      <trkpt lat="59.9559518" lon="17.7222517">
        <ele>49.6453</ele>
        <time>2012-09-20T18:09:18Z</time>
      </trkpt>
      <trkpt lat="59.9559508" lon="17.7221979">
        <ele>50.126</ele>
        <time>2012-09-20T18:09:19Z</time>
      </trkpt>
      <trkpt lat="59.9559515" lon="17.7221529">
        <ele>50.126</ele>
        <time>2012-09-20T18:09:20Z</time>
      </trkpt>
      <trkpt lat="59.9559585" lon="17.7220964">
        <ele>50.126</ele>
        <time>2012-09-20T18:09:21Z</time>
      </trkpt>
      <trkpt lat="59.9559608" lon="17.7220348">
        <ele>50.126</ele>
        <time>2012-09-20T18:09:22Z</time>
      </trkpt>
      <trkpt lat="59.9559604" lon="17.7219922">
        <ele>50.6066</ele>
        <time>2012-09-20T18:09:23Z</time>
      </trkpt>
      <trkpt lat="59.9559592" lon="17.7219474">
        <ele>50.6066</ele>
        <time>2012-09-20T18:09:24Z</time>
      </trkpt>
      <trkpt lat="59.9559572" lon="17.7218969">
        <ele>50.126</ele>
        <time>2012-09-20T18:09:25Z</time>
      </trkpt>
      <trkpt lat="59.9559635" lon="17.7218486">
        <ele>50.126</ele>
        <time>2012-09-20T18:09:26Z</time>
      </trkpt>
      <trkpt lat="59.9559663" lon="17.7217907">
        <ele>50.126</ele>
        <time>2012-09-20T18:09:27Z</time>
      </trkpt>
      <trkpt lat="59.9559726" lon="17.7217311">
        <ele>50.6066</ele>
        <time>2012-09-20T18:09:28Z</time>
      </trkpt>
      <trkpt lat="59.9559813" lon="17.7216801">
        <ele>50.6066</ele>
        <time>2012-09-20T18:09:29Z</time>
      </trkpt>
      <trkpt lat="59.9559908" lon="17.7216335">
        <ele>51.0872</ele>
        <time>2012-09-20T18:09:30Z</time>
      </trkpt>
      <trkpt lat="59.9559971" lon="17.7215928">
        <ele>51.0872</ele>
        <time>2012-09-20T18:09:31Z</time>
      </trkpt>
      <trkpt lat="59.9560059" lon="17.7215596">
        <ele>50.6066</ele>
        <time>2012-09-20T18:09:32Z</time>
      </trkpt>
      <trkpt lat="59.9560152" lon="17.7215301">
        <ele>50.126</ele>
        <time>2012-09-20T18:09:33Z</time>
      </trkpt>
      <trkpt lat="59.9560208" lon="17.7214908">
        <ele>49.6453</ele>
        <time>2012-09-20T18:09:34Z</time>
      </trkpt>
      <trkpt lat="59.9560238" lon="17.72144">
        <ele>49.1646</ele>
        <time>2012-09-20T18:09:35Z</time>
      </trkpt>
      <trkpt lat="59.9560264" lon="17.7213923">
        <ele>49.6453</ele>
        <time>2012-09-20T18:09:36Z</time>
      </trkpt>
      <trkpt lat="59.9560207" lon="17.7213405">
        <ele>49.1646</ele>
        <time>2012-09-20T18:09:37Z</time>
      </trkpt>
      <trkpt lat="59.9560027" lon="17.721297">
        <ele>49.1646</ele>
        <time>2012-09-20T18:09:38Z</time>
      </trkpt>
      <trkpt lat="59.9559804" lon="17.7212626">
        <ele>48.684</ele>
        <time>2012-09-20T18:09:39Z</time>
      </trkpt>
      <trkpt lat="59.9559578" lon="17.7212355">
        <ele>48.2034</ele>
        <time>2012-09-20T18:09:40Z</time>
      </trkpt>
      <trkpt lat="59.9559293" lon="17.721225">
        <ele>48.684</ele>
        <time>2012-09-20T18:09:41Z</time>
      </trkpt>
      <trkpt lat="59.9559011" lon="17.7212177">
        <ele>48.684</ele>
        <time>2012-09-20T18:09:42Z</time>
      </trkpt>
      <trkpt lat="59.9558708" lon="17.7212061">
        <ele>48.684</ele>
        <time>2012-09-20T18:09:43Z</time>
      </trkpt>
      <trkpt lat="59.955834" lon="17.721196">
        <ele>49.6453</ele>
        <time>2012-09-20T18:09:44Z</time>
      </trkpt>
      <trkpt lat="59.9558038" lon="17.7212082">
        <ele>50.126</ele>
        <time>2012-09-20T18:09:45Z</time>
      </trkpt>
      <trkpt lat="59.9557739" lon="17.7212222">
        <ele>50.6066</ele>
        <time>2012-09-20T18:09:46Z</time>
      </trkpt>
      <trkpt lat="59.955739" lon="17.7212747">
        <ele>51.0872</ele>
        <time>2012-09-20T18:09:47Z</time>
      </trkpt>
      <trkpt lat="59.9557125" lon="17.7212939">
        <ele>51.5679</ele>
        <time>2012-09-20T18:09:48Z</time>
      </trkpt>
      <trkpt lat="59.9556903" lon="17.7212892">
        <ele>53.0098</ele>
        <time>2012-09-20T18:09:49Z</time>
      </trkpt>
      <trkpt lat="59.9556722" lon="17.721297">
        <ele>52.0486</ele>
        <time>2012-09-20T18:09:50Z</time>
      </trkpt>
      <trkpt lat="59.9556469" lon="17.7213074">
        <ele>53.0098</ele>
        <time>2012-09-20T18:09:51Z</time>
      </trkpt>
      <trkpt lat="59.9556151" lon="17.721317">
        <ele>53.0098</ele>
        <time>2012-09-20T18:09:52Z</time>
      </trkpt>
      <trkpt lat="59.955584" lon="17.7213484">
        <ele>53.4905</ele>
        <time>2012-09-20T18:09:53Z</time>
      </trkpt>
      <trkpt lat="59.9555536" lon="17.7213798">
        <ele>53.4905</ele>
        <time>2012-09-20T18:09:54Z</time>
      </trkpt>
      <trkpt lat="59.9555206" lon="17.721412">
        <ele>55.4131</ele>
        <time>2012-09-20T18:09:55Z</time>
      </trkpt>
      <trkpt lat="59.9554887" lon="17.7214286">
        <ele>56.3745</ele>
        <time>2012-09-20T18:09:56Z</time>
      </trkpt>
      <trkpt lat="59.9554618" lon="17.7214592">
        <ele>58.2971</ele>
        <time>2012-09-20T18:09:57Z</time>
      </trkpt>
      <trkpt lat="59.9554358" lon="17.72148">
        <ele>58.7777</ele>
        <time>2012-09-20T18:09:58Z</time>
      </trkpt>
      <trkpt lat="59.9554152" lon="17.7214763">
        <ele>57.8165</ele>
        <time>2012-09-20T18:09:59Z</time>
      </trkpt>
      <trkpt lat="59.9553939" lon="17.7214657">
        <ele>56.8551</ele>
        <time>2012-09-20T18:10:00Z</time>
      </trkpt>
      <trkpt lat="59.9553712" lon="17.7214481">
        <ele>55.8938</ele>
        <time>2012-09-20T18:10:01Z</time>
      </trkpt>
      <trkpt lat="59.9553516" lon="17.7214185">
        <ele>55.8938</ele>
        <time>2012-09-20T18:10:02Z</time>
      </trkpt>
      <trkpt lat="59.955327" lon="17.7213882">
        <ele>55.8938</ele>
        <time>2012-09-20T18:10:03Z</time>
      </trkpt>
      <trkpt lat="59.9552994" lon="17.721357">
        <ele>55.8938</ele>
        <time>2012-09-20T18:10:04Z</time>
      </trkpt>
      <trkpt lat="59.9552686" lon="17.72134">
        <ele>56.3745</ele>
        <time>2012-09-20T18:10:05Z</time>
      </trkpt>
      <trkpt lat="59.9552413" lon="17.7213172">
        <ele>56.3745</ele>
        <time>2012-09-20T18:10:06Z</time>
      </trkpt>
      <trkpt lat="59.9552152" lon="17.721297">
        <ele>56.3745</ele>
        <time>2012-09-20T18:10:07Z</time>
      </trkpt>
      <trkpt lat="59.9551936" lon="17.7213018">
        <ele>55.8938</ele>
        <time>2012-09-20T18:10:08Z</time>
      </trkpt>
      <trkpt lat="59.9551696" lon="17.7213079">
        <ele>56.3745</ele>
        <time>2012-09-20T18:10:09Z</time>
      </trkpt>
      <trkpt lat="59.9551418" lon="17.721303">
        <ele>56.3745</ele>
        <time>2012-09-20T18:10:10Z</time>
      </trkpt>
      <trkpt lat="59.9551165" lon="17.7213088">
        <ele>57.3358</ele>
        <time>2012-09-20T18:10:11Z</time>
      </trkpt>
      <trkpt lat="59.9550962" lon="17.721317">
        <ele>57.3358</ele>
        <time>2012-09-20T18:10:12Z</time>
      </trkpt>
      <trkpt lat="59.955075" lon="17.7213074">
        <ele>57.3358</ele>
        <time>2012-09-20T18:10:13Z</time>
      </trkpt>
      <trkpt lat="59.9550531" lon="17.7213011">
        <ele>57.3358</ele>
        <time>2012-09-20T18:10:14Z</time>
      </trkpt>
      <trkpt lat="59.9550289" lon="17.7212956">
        <ele>57.8165</ele>
        <time>2012-09-20T18:10:15Z</time>
      </trkpt>
      <trkpt lat="59.9549998" lon="17.7212925">
        <ele>57.3358</ele>
        <time>2012-09-20T18:10:16Z</time>
      </trkpt>
      <trkpt lat="59.9549702" lon="17.7212965">
        <ele>56.8551</ele>
        <time>2012-09-20T18:10:17Z</time>
      </trkpt>
      <trkpt lat="59.9549427" lon="17.7212818">
        <ele>57.8165</ele>
        <time>2012-09-20T18:10:18Z</time>
      </trkpt>
      <trkpt lat="59.9549206" lon="17.7212621">
        <ele>58.2971</ele>
        <time>2012-09-20T18:10:19Z</time>
      </trkpt>
      <trkpt lat="59.9548989" lon="17.7212482">
        <ele>58.2971</ele>
        <time>2012-09-20T18:10:20Z</time>
      </trkpt>
      <trkpt lat="59.9548766" lon="17.7212341">
        <ele>58.2971</ele>
        <time>2012-09-20T18:10:21Z</time>
      </trkpt>
      <trkpt lat="59.9548548" lon="17.7212229">
        <ele>57.8165</ele>
        <time>2012-09-20T18:10:22Z</time>
      </trkpt>
      <trkpt lat="59.9548314" lon="17.7212079">
        <ele>57.3358</ele>
        <time>2012-09-20T18:10:23Z</time>
      </trkpt>
      <trkpt lat="59.9548082" lon="17.7211774">
        <ele>58.2971</ele>
        <time>2012-09-20T18:10:24Z</time>
      </trkpt>
      <trkpt lat="59.9547833" lon="17.7211391">
        <ele>57.8165</ele>
        <time>2012-09-20T18:10:25Z</time>
      </trkpt>
      <trkpt lat="59.9547606" lon="17.721096">
        <ele>57.3358</ele>
        <time>2012-09-20T18:10:26Z</time>
      </trkpt>
      <trkpt lat="59.954746" lon="17.721051">
        <ele>56.8551</ele>
        <time>2012-09-20T18:10:27Z</time>
      </trkpt>
      <trkpt lat="59.9547357" lon="17.7209974">
        <ele>55.8938</ele>
        <time>2012-09-20T18:10:28Z</time>
      </trkpt>
      <trkpt lat="59.9547269" lon="17.720935">
        <ele>55.4131</ele>
        <time>2012-09-20T18:10:29Z</time>
      </trkpt>
      <trkpt lat="59.9547127" lon="17.7208711">
        <ele>55.4131</ele>
        <time>2012-09-20T18:10:30Z</time>
      </trkpt>
      <trkpt lat="59.9547034" lon="17.7208213">
        <ele>56.3745</ele>
        <time>2012-09-20T18:10:31Z</time>
      </trkpt>
      <trkpt lat="59.954703" lon="17.7207781">
        <ele>54.9324</ele>
        <time>2012-09-20T18:10:32Z</time>
      </trkpt>
      <trkpt lat="59.9547093" lon="17.7207339">
        <ele>54.9324</ele>
        <time>2012-09-20T18:10:33Z</time>
      </trkpt>
      <trkpt lat="59.954716" lon="17.7206893">
        <ele>54.4518</ele>
        <time>2012-09-20T18:10:34Z</time>
      </trkpt>
      <trkpt lat="59.9547233" lon="17.7206437">
        <ele>54.4518</ele>
        <time>2012-09-20T18:10:35Z</time>
      </trkpt>
      <trkpt lat="59.9547313" lon="17.7205968">
        <ele>55.4131</ele>
        <time>2012-09-20T18:10:36Z</time>
      </trkpt>
      <trkpt lat="59.9547386" lon="17.7205472">
        <ele>55.4131</ele>
        <time>2012-09-20T18:10:37Z</time>
      </trkpt>
      <trkpt lat="59.9547498" lon="17.7205013">
        <ele>56.3745</ele>
        <time>2012-09-20T18:10:38Z</time>
      </trkpt>
      <trkpt lat="59.9547663" lon="17.7204654">
        <ele>56.8551</ele>
        <time>2012-09-20T18:10:39Z</time>
      </trkpt>
      <trkpt lat="59.9547895" lon="17.720447">
        <ele>56.3745</ele>
        <time>2012-09-20T18:10:40Z</time>
      </trkpt>
      <trkpt lat="59.9548056" lon="17.7204242">
        <ele>55.8938</ele>
        <time>2012-09-20T18:10:41Z</time>
      </trkpt>
      <trkpt lat="59.95482" lon="17.7203992">
        <ele>54.9324</ele>
        <time>2012-09-20T18:10:42Z</time>
      </trkpt>
      <trkpt lat="59.9548418" lon="17.7203765">
        <ele>54.9324</ele>
        <time>2012-09-20T18:10:43Z</time>
      </trkpt>
      <trkpt lat="59.9548647" lon="17.7203543">
        <ele>54.9324</ele>
        <time>2012-09-20T18:10:44Z</time>
      </trkpt>
      <trkpt lat="59.9548847" lon="17.7203402">
        <ele>54.4518</ele>
        <time>2012-09-20T18:10:45Z</time>
      </trkpt>
      <trkpt lat="59.9549033" lon="17.7203273">
        <ele>54.4518</ele>
        <time>2012-09-20T18:10:46Z</time>
      </trkpt>
      <trkpt lat="59.9549243" lon="17.7203071">
        <ele>54.4518</ele>
        <time>2012-09-20T18:10:47Z</time>
      </trkpt>
      <trkpt lat="59.9549474" lon="17.7202931">
        <ele>53.9712</ele>
        <time>2012-09-20T18:10:48Z</time>
      </trkpt>
      <trkpt lat="59.9549728" lon="17.720278">
        <ele>54.9324</ele>
        <time>2012-09-20T18:10:49Z</time>
      </trkpt>
      <trkpt lat="59.9549978" lon="17.7202543">
        <ele>55.4131</ele>
        <time>2012-09-20T18:10:50Z</time>
      </trkpt>
      <trkpt lat="59.9550266" lon="17.7202395">
        <ele>55.8938</ele>
        <time>2012-09-20T18:10:51Z</time>
      </trkpt>
      <trkpt lat="59.9550485" lon="17.7202191">
        <ele>56.3745</ele>
        <time>2012-09-20T18:10:52Z</time>
      </trkpt>
      <trkpt lat="59.9550733" lon="17.7201951">
        <ele>56.3745</ele>
        <time>2012-09-20T18:10:53Z</time>
      </trkpt>
      <trkpt lat="59.9550952" lon="17.7201729">
        <ele>56.3745</ele>
        <time>2012-09-20T18:10:54Z</time>
      </trkpt>
      <trkpt lat="59.9551112" lon="17.7201506">
        <ele>56.3745</ele>
        <time>2012-09-20T18:10:55Z</time>
      </trkpt>
      <trkpt lat="59.9551316" lon="17.72012">
        <ele>56.8551</ele>
        <time>2012-09-20T18:10:56Z</time>
      </trkpt>
      <trkpt lat="59.9551553" lon="17.7201111">
        <ele>57.3358</ele>
        <time>2012-09-20T18:10:57Z</time>
      </trkpt>
      <trkpt lat="59.9551713" lon="17.720103">
        <ele>57.3358</ele>
        <time>2012-09-20T18:10:58Z</time>
      </trkpt>
      <trkpt lat="59.9551904" lon="17.7200921">
        <ele>57.3358</ele>
        <time>2012-09-20T18:10:59Z</time>
      </trkpt>
      <trkpt lat="59.9552079" lon="17.720078">
        <ele>56.8551</ele>
        <time>2012-09-20T18:11:00Z</time>
      </trkpt>
      <trkpt lat="59.9552267" lon="17.720052">
        <ele>56.8551</ele>
        <time>2012-09-20T18:11:01Z</time>
      </trkpt>
      <trkpt lat="59.955254" lon="17.7200329">
        <ele>57.8165</ele>
        <time>2012-09-20T18:11:02Z</time>
      </trkpt>
      <trkpt lat="59.9552794" lon="17.7200061">
        <ele>57.8165</ele>
        <time>2012-09-20T18:11:03Z</time>
      </trkpt>
      <trkpt lat="59.9552998" lon="17.7199772">
        <ele>57.3358</ele>
        <time>2012-09-20T18:11:04Z</time>
      </trkpt>
      <trkpt lat="59.9553184" lon="17.7199522">
        <ele>56.3745</ele>
        <time>2012-09-20T18:11:05Z</time>
      </trkpt>
      <trkpt lat="59.9553411" lon="17.7199296">
        <ele>56.8551</ele>
        <time>2012-09-20T18:11:06Z</time>
      </trkpt>
      <trkpt lat="59.9553615" lon="17.719913">
        <ele>56.8551</ele>
        <time>2012-09-20T18:11:07Z</time>
      </trkpt>
      <trkpt lat="59.9553822" lon="17.7198987">
        <ele>56.3745</ele>
        <time>2012-09-20T18:11:08Z</time>
      </trkpt>
      <trkpt lat="59.955405" lon="17.7198857">
        <ele>55.8938</ele>
        <time>2012-09-20T18:11:09Z</time>
      </trkpt>
      <trkpt lat="59.9554348" lon="17.7198782">
        <ele>56.3745</ele>
        <time>2012-09-20T18:11:10Z</time>
      </trkpt>
      <trkpt lat="59.9554629" lon="17.719871">
        <ele>56.8551</ele>
        <time>2012-09-20T18:11:11Z</time>
      </trkpt>
      <trkpt lat="59.9554806" lon="17.7198611">
        <ele>55.8938</ele>
        <time>2012-09-20T18:11:12Z</time>
      </trkpt>
      <trkpt lat="59.9555038" lon="17.7198555">
        <ele>55.8938</ele>
        <time>2012-09-20T18:11:13Z</time>
      </trkpt>
      <trkpt lat="59.955533" lon="17.719844">
        <ele>55.8938</ele>
        <time>2012-09-20T18:11:14Z</time>
      </trkpt>
      <trkpt lat="59.9555612" lon="17.7198316">
        <ele>56.3745</ele>
        <time>2012-09-20T18:11:15Z</time>
      </trkpt>
      <trkpt lat="59.9555847" lon="17.7198098">
        <ele>55.8938</ele>
        <time>2012-09-20T18:11:16Z</time>
      </trkpt>
      <trkpt lat="59.9556097" lon="17.7197853">
        <ele>55.8938</ele>
        <time>2012-09-20T18:11:17Z</time>
      </trkpt>
      <trkpt lat="59.9556364" lon="17.7197552">
        <ele>55.8938</ele>
        <time>2012-09-20T18:11:18Z</time>
      </trkpt>
      <trkpt lat="59.955661" lon="17.7197254">
        <ele>55.8938</ele>
        <time>2012-09-20T18:11:19Z</time>
      </trkpt>
      <trkpt lat="59.955686" lon="17.7197021">
        <ele>54.9324</ele>
        <time>2012-09-20T18:11:20Z</time>
      </trkpt>
      <trkpt lat="59.9557088" lon="17.719686">
        <ele>54.9324</ele>
        <time>2012-09-20T18:11:21Z</time>
      </trkpt>
      <trkpt lat="59.9557323" lon="17.7196682">
        <ele>54.9324</ele>
        <time>2012-09-20T18:11:22Z</time>
      </trkpt>
      <trkpt lat="59.9557546" lon="17.7196456">
        <ele>54.9324</ele>
        <time>2012-09-20T18:11:23Z</time>
      </trkpt>
      <trkpt lat="59.9557795" lon="17.7196155">
        <ele>54.4518</ele>
        <time>2012-09-20T18:11:24Z</time>
      </trkpt>
      <trkpt lat="59.9558053" lon="17.71959">
        <ele>54.4518</ele>
        <time>2012-09-20T18:11:25Z</time>
      </trkpt>
      <trkpt lat="59.9558267" lon="17.7195636">
        <ele>54.4518</ele>
        <time>2012-09-20T18:11:26Z</time>
      </trkpt>
      <trkpt lat="59.9558476" lon="17.7195424">
        <ele>54.9324</ele>
        <time>2012-09-20T18:11:27Z</time>
      </trkpt>
      <trkpt lat="59.9558722" lon="17.7195247">
        <ele>55.4131</ele>
        <time>2012-09-20T18:11:28Z</time>
      </trkpt>
      <trkpt lat="59.9558996" lon="17.719501">
        <ele>56.3745</ele>
        <time>2012-09-20T18:11:29Z</time>
      </trkpt>
      <trkpt lat="59.9559234" lon="17.719474">
        <ele>56.8551</ele>
        <time>2012-09-20T18:11:30Z</time>
      </trkpt>
      <trkpt lat="59.955945" lon="17.7194399">
        <ele>56.8551</ele>
        <time>2012-09-20T18:11:31Z</time>
      </trkpt>
      <trkpt lat="59.9559629" lon="17.7194074">
        <ele>56.8551</ele>
        <time>2012-09-20T18:11:32Z</time>
      </trkpt>
      <trkpt lat="59.9559858" lon="17.7193724">
        <ele>57.3358</ele>
        <time>2012-09-20T18:11:33Z</time>
      </trkpt>
      <trkpt lat="59.9560125" lon="17.7193358">
        <ele>57.3358</ele>
        <time>2012-09-20T18:11:34Z</time>
      </trkpt>
      <trkpt lat="59.9560385" lon="17.7192996">
        <ele>57.8165</ele>
        <time>2012-09-20T18:11:35Z</time>
      </trkpt>
      <trkpt lat="59.9560574" lon="17.7192592">
        <ele>57.3358</ele>
        <time>2012-09-20T18:11:36Z</time>
      </trkpt>
      <trkpt lat="59.9560768" lon="17.7192213">
        <ele>57.3358</ele>
        <time>2012-09-20T18:11:37Z</time>
      </trkpt>
      <trkpt lat="59.9560991" lon="17.7191784">
        <ele>57.3358</ele>
        <time>2012-09-20T18:11:38Z</time>
      </trkpt>
      <trkpt lat="59.9561189" lon="17.7191436">
        <ele>57.8165</ele>
        <time>2012-09-20T18:11:39Z</time>
      </trkpt>
      <trkpt lat="59.9561349" lon="17.7191042">
        <ele>57.3358</ele>
        <time>2012-09-20T18:11:40Z</time>
      </trkpt>
      <trkpt lat="59.9561509" lon="17.719056">
        <ele>57.3358</ele>
        <time>2012-09-20T18:11:41Z</time>
      </trkpt>
      <trkpt lat="59.9561695" lon="17.7190085">
        <ele>57.3358</ele>
        <time>2012-09-20T18:11:42Z</time>
      </trkpt>
      <trkpt lat="59.9561815" lon="17.7189617">
        <ele>57.3358</ele>
        <time>2012-09-20T18:11:43Z</time>
      </trkpt>
      <trkpt lat="59.9561926" lon="17.7189163">
        <ele>57.3358</ele>
        <time>2012-09-20T18:11:44Z</time>
      </trkpt>
      <trkpt lat="59.9562017" lon="17.7188679">
        <ele>56.8551</ele>
        <time>2012-09-20T18:11:45Z</time>
      </trkpt>
      <trkpt lat="59.9562037" lon="17.7188091">
        <ele>57.3358</ele>
        <time>2012-09-20T18:11:46Z</time>
      </trkpt>
      <trkpt lat="59.9562185" lon="17.7187655">
        <ele>57.8165</ele>
        <time>2012-09-20T18:11:47Z</time>
      </trkpt>
      <trkpt lat="59.9562311" lon="17.7187185">
        <ele>57.8165</ele>
        <time>2012-09-20T18:11:48Z</time>
      </trkpt>
      <trkpt lat="59.9562452" lon="17.7186535">
        <ele>57.3358</ele>
        <time>2012-09-20T18:11:49Z</time>
      </trkpt>
      <trkpt lat="59.9562481" lon="17.7185898">
        <ele>56.8551</ele>
        <time>2012-09-20T18:11:50Z</time>
      </trkpt>
      <trkpt lat="59.9562478" lon="17.7185542">
        <ele>56.3745</ele>
        <time>2012-09-20T18:11:51Z</time>
      </trkpt>
      <trkpt lat="59.9562348" lon="17.718512">
        <ele>55.8938</ele>
        <time>2012-09-20T18:11:52Z</time>
      </trkpt>
      <trkpt lat="59.9562182" lon="17.7184713">
        <ele>54.9324</ele>
        <time>2012-09-20T18:11:53Z</time>
      </trkpt>
      <trkpt lat="59.9561965" lon="17.718423">
        <ele>54.4518</ele>
        <time>2012-09-20T18:11:54Z</time>
      </trkpt>
      <trkpt lat="59.9561767" lon="17.7183749">
        <ele>54.4518</ele>
        <time>2012-09-20T18:11:55Z</time>
      </trkpt>
      <trkpt lat="59.956155" lon="17.718336">
        <ele>53.0098</ele>
        <time>2012-09-20T18:11:56Z</time>
      </trkpt>
      <trkpt lat="59.9561333" lon="17.7182961">
        <ele>52.5292</ele>
        <time>2012-09-20T18:11:57Z</time>
      </trkpt>
      <trkpt lat="59.9561151" lon="17.7182514">
        <ele>52.0486</ele>
        <time>2012-09-20T18:11:58Z</time>
      </trkpt>
      <trkpt lat="59.9560976" lon="17.7182029">
        <ele>51.5679</ele>
        <time>2012-09-20T18:11:59Z</time>
      </trkpt>
      <trkpt lat="59.9560772" lon="17.718158">
        <ele>51.5679</ele>
        <time>2012-09-20T18:12:00Z</time>
      </trkpt>
      <trkpt lat="59.9560628" lon="17.7181237">
        <ele>51.0872</ele>
        <time>2012-09-20T18:12:01Z</time>
      </trkpt>
      <trkpt lat="59.9560525" lon="17.7180901">
        <ele>50.6066</ele>
        <time>2012-09-20T18:12:02Z</time>
      </trkpt>
      <trkpt lat="59.9560411" lon="17.7180561">
        <ele>51.0872</ele>
        <time>2012-09-20T18:12:03Z</time>
      </trkpt>
      <trkpt lat="59.9560298" lon="17.7180325">
        <ele>50.6066</ele>
        <time>2012-09-20T18:12:04Z</time>
      </trkpt>
      <trkpt lat="59.9560161" lon="17.718009">
        <ele>50.126</ele>
        <time>2012-09-20T18:12:05Z</time>
      </trkpt>
      <trkpt lat="59.9559908" lon="17.7179725">
        <ele>50.6066</ele>
        <time>2012-09-20T18:12:06Z</time>
      </trkpt>
      <trkpt lat="59.9559668" lon="17.717933">
        <ele>50.6066</ele>
        <time>2012-09-20T18:12:07Z</time>
      </trkpt>
      <trkpt lat="59.9559426" lon="17.7178818">
        <ele>51.5679</ele>
        <time>2012-09-20T18:12:08Z</time>
      </trkpt>
      <trkpt lat="59.9559199" lon="17.7178259">
        <ele>51.5679</ele>
        <time>2012-09-20T18:12:09Z</time>
      </trkpt>
      <trkpt lat="59.9558977" lon="17.717776">
        <ele>51.5679</ele>
        <time>2012-09-20T18:12:10Z</time>
      </trkpt>
      <trkpt lat="59.9558727" lon="17.7177191">
        <ele>51.5679</ele>
        <time>2012-09-20T18:12:11Z</time>
      </trkpt>
      <trkpt lat="59.9558492" lon="17.7176518">
        <ele>51.5679</ele>
        <time>2012-09-20T18:12:12Z</time>
      </trkpt>
      <trkpt lat="59.9558327" lon="17.7175889">
        <ele>52.0486</ele>
        <time>2012-09-20T18:12:13Z</time>
      </trkpt>
      <trkpt lat="59.9558219" lon="17.7175464">
        <ele>51.5679</ele>
        <time>2012-09-20T18:12:14Z</time>
      </trkpt>
      <trkpt lat="59.9558053" lon="17.7175034">
        <ele>51.5679</ele>
        <time>2012-09-20T18:12:15Z</time>
      </trkpt>
      <trkpt lat="59.9557904" lon="17.7174508">
        <ele>51.5679</ele>
        <time>2012-09-20T18:12:16Z</time>
      </trkpt>
      <trkpt lat="59.9557764" lon="17.7173933">
        <ele>51.5679</ele>
        <time>2012-09-20T18:12:17Z</time>
      </trkpt>
      <trkpt lat="59.9557582" lon="17.7173441">
        <ele>51.0872</ele>
        <time>2012-09-20T18:12:18Z</time>
      </trkpt>
      <trkpt lat="59.955736" lon="17.7172972">
        <ele>51.0872</ele>
        <time>2012-09-20T18:12:19Z</time>
      </trkpt>
      <trkpt lat="59.9557178" lon="17.717239">
        <ele>51.0872</ele>
        <time>2012-09-20T18:12:20Z</time>
      </trkpt>
      <trkpt lat="59.9556987" lon="17.7171963">
        <ele>51.5679</ele>
        <time>2012-09-20T18:12:21Z</time>
      </trkpt>
      <trkpt lat="59.9556852" lon="17.7171546">
        <ele>51.0872</ele>
        <time>2012-09-20T18:12:22Z</time>
      </trkpt>
      <trkpt lat="59.955671" lon="17.717111">
        <ele>51.5679</ele>
        <time>2012-09-20T18:12:23Z</time>
      </trkpt>
      <trkpt lat="59.9556608" lon="17.7170695">
        <ele>52.0486</ele>
        <time>2012-09-20T18:12:24Z</time>
      </trkpt>
      <trkpt lat="59.9556442" lon="17.7170166">
        <ele>52.0486</ele>
        <time>2012-09-20T18:12:25Z</time>
      </trkpt>
      <trkpt lat="59.9556271" lon="17.7169562">
        <ele>52.0486</ele>
        <time>2012-09-20T18:12:26Z</time>
      </trkpt>
      <trkpt lat="59.9556112" lon="17.7169012">
        <ele>52.0486</ele>
        <time>2012-09-20T18:12:27Z</time>
      </trkpt>
      <trkpt lat="59.9555964" lon="17.7168504">
        <ele>52.5292</ele>
        <time>2012-09-20T18:12:28Z</time>
      </trkpt>
      <trkpt lat="59.9555914" lon="17.7167958">
        <ele>51.5679</ele>
        <time>2012-09-20T18:12:29Z</time>
      </trkpt>
      <trkpt lat="59.9555857" lon="17.7167521">
        <ele>51.0872</ele>
        <time>2012-09-20T18:12:30Z</time>
      </trkpt>
      <trkpt lat="59.9555788" lon="17.7167081">
        <ele>50.6066</ele>
        <time>2012-09-20T18:12:31Z</time>
      </trkpt>
      <trkpt lat="59.9555755" lon="17.7166572">
        <ele>50.6066</ele>
        <time>2012-09-20T18:12:32Z</time>
      </trkpt>
      <trkpt lat="59.9555739" lon="17.716597">
        <ele>50.126</ele>
        <time>2012-09-20T18:12:33Z</time>
      </trkpt>
      <trkpt lat="59.9555715" lon="17.7165278">
        <ele>50.126</ele>
        <time>2012-09-20T18:12:34Z</time>
      </trkpt>
      <trkpt lat="59.9555655" lon="17.7164551">
        <ele>50.6066</ele>
        <time>2012-09-20T18:12:35Z</time>
      </trkpt>
      <trkpt lat="59.9555622" lon="17.7163978">
        <ele>50.6066</ele>
        <time>2012-09-20T18:12:36Z</time>
      </trkpt>
      <trkpt lat="59.9555561" lon="17.7163474">
        <ele>50.6066</ele>
        <time>2012-09-20T18:12:37Z</time>
      </trkpt>
      <trkpt lat="59.9555552" lon="17.716303">
        <ele>50.126</ele>
        <time>2012-09-20T18:12:38Z</time>
      </trkpt>
      <trkpt lat="59.9555574" lon="17.7162433">
        <ele>49.6453</ele>
        <time>2012-09-20T18:12:39Z</time>
      </trkpt>
      <trkpt lat="59.955546" lon="17.7161616">
        <ele>49.6453</ele>
        <time>2012-09-20T18:12:40Z</time>
      </trkpt>
      <trkpt lat="59.9555324" lon="17.7160977">
        <ele>49.1646</ele>
        <time>2012-09-20T18:12:41Z</time>
      </trkpt>
      <trkpt lat="59.955517" lon="17.7160416">
        <ele>48.684</ele>
        <time>2012-09-20T18:12:42Z</time>
      </trkpt>
      <trkpt lat="59.9555086" lon="17.715981">
        <ele>48.684</ele>
        <time>2012-09-20T18:12:43Z</time>
      </trkpt>
      <trkpt lat="59.9554997" lon="17.715922">
        <ele>48.684</ele>
        <time>2012-09-20T18:12:44Z</time>
      </trkpt>
      <trkpt lat="59.9554836" lon="17.7158387">
        <ele>48.2034</ele>
        <time>2012-09-20T18:12:45Z</time>
      </trkpt>
      <trkpt lat="59.9554672" lon="17.7157611">
        <ele>48.684</ele>
        <time>2012-09-20T18:12:46Z</time>
      </trkpt>
      <trkpt lat="59.9554505" lon="17.7156942">
        <ele>49.1646</ele>
        <time>2012-09-20T18:12:47Z</time>
      </trkpt>
      <trkpt lat="59.9554485" lon="17.7156409">
        <ele>49.6453</ele>
        <time>2012-09-20T18:12:48Z</time>
      </trkpt>
      <trkpt lat="59.9554485" lon="17.7155823">
        <ele>49.6453</ele>
        <time>2012-09-20T18:12:49Z</time>
      </trkpt>
      <trkpt lat="59.9554446" lon="17.7155138">
        <ele>49.6453</ele>
        <time>2012-09-20T18:12:50Z</time>
      </trkpt>
      <trkpt lat="59.9554402" lon="17.7154368">
        <ele>48.684</ele>
        <time>2012-09-20T18:12:51Z</time>
      </trkpt>
      <trkpt lat="59.9554389" lon="17.7153749">
        <ele>48.684</ele>
        <time>2012-09-20T18:12:52Z</time>
      </trkpt>
      <trkpt lat="59.9554322" lon="17.7153321">
        <ele>47.7225</ele>
        <time>2012-09-20T18:12:53Z</time>
      </trkpt>
      <trkpt lat="59.9554244" lon="17.715285">
        <ele>46.7612</ele>
        <time>2012-09-20T18:12:54Z</time>
      </trkpt>
      <trkpt lat="59.9554216" lon="17.7152202">
        <ele>45.7999</ele>
        <time>2012-09-20T18:12:55Z</time>
      </trkpt>
      <trkpt lat="59.9554157" lon="17.7151579">
        <ele>44.8386</ele>
        <time>2012-09-20T18:12:56Z</time>
      </trkpt>
      <trkpt lat="59.9554009" lon="17.7150919">
        <ele>43.8773</ele>
        <time>2012-09-20T18:12:57Z</time>
      </trkpt>
    </trkseg>
  </trk>
</gpx>